GFSWCAN_700_spd_000.txt.gz
Wind_Speed
30 28 27 26 24 24 24 23 20 20 19 18 19 20 19 19 13 18 17 22 23 27 19 17 13 18 16 14 10 10 10 13 16 17 15 10 8 9 16 27 36 39 13 4 1 2 3 19 27 25 26 29 10 9
28 26 25 23 24 24 22 21 20 18 18 16 14 10 12 13 13 16 15 20 21 24 11 8 20 17 13 11 14 10 9 7 3 7 6 11 7 9 9 16 23 29 22 9 1 6 8 11 20 34 28 26 24 16
27 25 24 23 23 22 20 20 18 18 18 17 12 7 11 13 11 14 12 17 19 20 15 15 14 14 12 11 13 15 16 11 11 3 5 4 11 6 7 11 31 28 30 7 9 22 33 36 36 31 28 26 28 26
27 26 24 20 18 19 16 17 17 15 19 15 11 9 11 11 10 10 11 17 16 15 14 4 12 13 11 11 13 11 14 13 10 9 2 5 6 5 4 10 22 31 31 27 14 21 23 23 22 23 22 19 12 7
28 23 19 18 15 15 15 12 11 15 14 9 7 10 7 7 7 8 12 14 12 11 7 6 9 12 10 9 9 15 16 16 12 11 7 6 6 6 8 14 22 29 29 32 34 28 25 15 13 13 12 6 9 15
24 18 16 15 12 12 9 11 10 12 12 7 6 7 5 6 4 5 5 7 7 7 5 6 11 9 6 7 10 13 16 19 15 9 7 8 3 6 9 8 11 15 22 29 27 33 28 35 34 21 13 5 1 7
16 15 15 10 9 9 9 8 7 9 5 3 7 8 4 5 4 3 5 2 5 3 1 4 8 8 6 6 9 11 13 17 18 8 7 6 4 7 11 6 9 18 25 24 34 35 34 29 23 16 10 13 8 14
15 13 12 8 9 6 7 7 9 6 2 3 6 6 3 3 7 8 5 3 2 2 1 2 6 7 6 6 5 10 13 16 17 8 11 11 9 12 18 17 18 22 24 29 27 21 18 16 14 14 11 9 9 11
15 11 8 6 3 3 6 7 4 2 2 4 5 4 1 4 10 11 5 8 6 3 2 3 7 8 7 6 9 11 13 12 11 12 20 21 11 7 20 22 19 21 20 21 17 14 13 9 10 9 9 11 14 16
12 12 8 7 6 7 5 3 2 3 5 7 7 6 5 4 9 6 5 3 2 2 2 6 8 7 8 12 8 10 11 7 7 13 12 15 20 19 20 21 20 21 19 16 11 9 6 5 7 11 14 18 21 23
10 9 10 8 8 9 7 6 5 7 9 10 7 7 9 11 10 5 4 4 3 3 5 10 8 8 8 8 7 5 6 6 6 7 6 7 16 16 16 16 14 12 9 6 5 6 8 10 12 14 16 18 20 20
8 8 8 9 10 9 7 9 9 11 11 12 17 13 9 6 5 4 4 4 5 4 7 10 7 5 9 5 5 8 5 5 5 11 8 9 17 13 11 9 7 6 5 6 8 10 11 13 15 18 20 21 20 19
11 11 11 11 11 11 11 12 13 13 18 13 7 7 5 5 5 5 8 8 4 9 9 8 6 4 9 6 7 3 4 7 14 5 6 12 17 11 9 6 5 8 10 10 11 13 16 18 18 18 18 17 17 17
15 15 14 13 15 16 15 10 10 14 9 8 7 7 5 6 8 13 21 15 10 10 9 8 4 4 9 6 8 5 5 5 4 4 6 20 15 11 9 7 4 6 7 8 10 11 11 11 12 12 12 12 13 13
15 16 19 20 18 19 20 18 12 8 7 7 6 4 11 19 16 18 18 12 8 8 8 5 3 2 7 6 5 5 4 3 4 10 15 13 10 10 9 7 5 3 4 6 7 8 9 11 12 12 12 11 9 7
19 21 17 19 17 15 14 13 12 16 22 16 15 16 24 22 16 17 14 10 5 6 6 5 5 4 6 4 6 4 3 3 19 18 15 12 9 7 5 5 5 5 5 5 6 7 7 8 10 11 10 8 6 4
17 15 16 18 17 16 12 11 11 21 13 15 20 19 17 17 16 11 8 10 6 5 4 6 5 5 5 4 7 7 11 13 14 9 8 7 7 6 5 4 3 2 5 9 10 5 5 8 11 9 8 5 5 4
15 13 10 12 12 15 15 17 20 17 19 20 16 14 13 12 11 8 6 5 5 8 6 9 7 6 6 12 19 14 11 10 7 5 5 6 6 4 3 2 2 2 2 4 5 3 2 7 9 6 4 4 4 5
13 12 10 7 8 7 14 17 14 10 10 11 9 6 6 8 11 11 6 7 7 7 10 10 9 19 17 12 9 6 5 5 4 5 5 7 4 4 5 5 4 5 4 7 10 8 8 9 12 9 6 9 9 8
13 12 11 8 7 8 9 13 11 10 7 9 9 6 6 7 9 9 7 7 7 8 10 15 14 11 8 7 5 3 2 3 4 5 7 8 6 5 4 6 7 8 8 10 10 10 11 12 13 11 13 10 11 12
9 9 8 6 5 8 9 10 10 9 7 9 9 11 11 11 10 10 9 8 7 10 11 9 6 5 4 2 3 4 4 5 4 4 6 7 5 5 4 6 8 8 7 8 13 12 12 14 14 15 15 15 13 13
8 7 6 6 7 8 8 9 8 8 8 8 8 8 9 10 9 9 10 8 8 6 4 3 4 4 6 8 9 9 8 4 0 3 9 10 6 3 3 6 7 8 10 12 14 16 16 16 17 19 20 20 20 21
11 8 7 11 8 9 8 9 7 8 7 9 9 8 10 8 9 9 9 11 10 10 9 8 10 11 14 16 12 8 6 6 8 8 8 6 5 6 8 11 12 13 16 18 20 22 23 23 24 24 25 26 27 28
19 16 14 10 12 12 11 11 13 16 14 12 16 19 21 20 15 17 18 15 18 17 16 18 13 16 15 22 15 11 10 11 10 9 10 9 10 12 16 20 23 24 25 27 28 29 29 29 29 30 31 33 35 37
22 16 17 18 15 17 22 24 26 28 31 31 25 22 24 24 24 22 21 20 18 17 19 17 16 18 17 15 15 15 14 12 11 10 10 12 15 18 21 23 25 27 28 28 27 28 27 27 26 26 27 28 28 27
19 22 17 15 15 16 17 16 20 19 16 19 17 19 20 25 20 16 19 18 18 14 15 16 12 11 11 14 14 15 16 17 17 17 17 18 19 22 24 25 26 25 26 28 29 29 29 28 27 27 27 26 26 25
16 17 20 22 14 11 9 9 11 15 14 12 7 9 10 12 16 18 17 16 16 14 14 13 13 13 15 18 20 21 21 22 23 24 24 24 24 25 26 26 27 27 27 28 29 30 29 28 28 29 30 30 30 29
15 14 14 15 15 17 19 17 14 11 11 11 9 8 9 12 13 15 16 16 16 15 12 13 14 15 16 19 21 22 23 23 24 25 25 24 24 24 26 26 28 28 30 32 32 31 30 30 30 29 30 30 30 31
7 9 10 13 12 10 11 14 16 13 9 8 6 11 11 9 8 10 12 14 14 13 14 15 16 16 18 21 23 25 26 26 26 25 25 25 26 26 28 30 31 32 33 33 33 33 33 32 32 32 32 33 33 34
7 8 12 11 8 8 9 6 8 8 8 4 1 4 6 5 3 2 1 3 5 4 6 14 18 19 21 23 26 29 29 30 30 30 30 30 31 31 31 32 33 33 33 32 33 33 34 34 34 34 35 35 35 35
13 13 10 9 5 5 11 8 5 6 6 8 10 12 11 12 13 13 13 13 11 7 14 14 17 21 24 27 30 32 33 33 32 32 32 32 32 32 33 33 34 34 35 35 36 36 37 37 37 37 36 35 35 35
19 18 14 13 10 7 8 7 5 8 14 20 18 16 18 20 18 18 16 11 11 21 25 21 23 28 33 37 39 39 39 38 37 36 35 35 35 35 36 35 35 35 35 36 36 36 36 36 35 35 35 34 34 33
16 17 14 11 11 11 11 9 8 9 13 18 18 9 11 13 14 17 19 23 24 23 26 29 31 34 38 39 39 39 38 38 37 36 35 35 34 34 34 34 34 33 33 33 34 34 34 34 34 33 31 30 29 28

GFSWCAN_700_spd_003.txt.gz
Wind_Speed
35 32 30 27 25 24 22 22 21 20 20 18 17 16 17 19 18 17 16 19 19 26 18 18 15 18 18 18 14 8 8 13 16 15 15 13 12 17 16 20 24 22 21 19 11 8 11 10 15 18 22 19 27 28
33 31 29 25 22 24 22 22 19 17 18 17 16 16 15 11 12 14 16 16 17 21 11 6 12 20 18 12 19 11 9 7 8 10 12 16 11 10 14 15 23 22 26 34 10 17 23 15 15 19 22 24 23 26
31 31 29 25 22 21 20 18 15 16 17 15 16 14 13 9 11 12 11 16 19 21 15 13 13 16 20 17 13 14 7 10 10 8 11 10 12 8 13 14 26 19 23 25 25 6 21 36 41 36 33 30 31 31
30 29 28 21 18 15 15 14 14 13 12 14 16 11 10 8 8 9 14 14 14 16 13 2 10 14 16 15 12 8 8 8 4 6 1 4 3 6 11 14 25 24 24 23 23 21 24 25 28 31 31 29 26 24
28 26 20 17 16 11 12 10 9 10 13 14 5 4 5 2 6 8 11 13 12 10 10 2 8 14 12 10 9 9 10 9 6 6 5 2 1 5 8 16 28 34 32 33 32 31 23 23 18 17 19 15 11 4
25 22 20 16 10 8 8 8 9 10 12 7 2 4 1 3 6 5 3 2 6 7 6 7 11 11 10 8 8 8 10 12 12 9 5 4 3 6 7 5 11 36 36 30 25 31 29 26 19 13 9 9 4 6
22 21 17 14 10 10 9 7 8 10 8 2 1 2 1 6 4 2 4 3 3 2 2 6 9 8 6 4 9 11 11 10 12 9 8 5 3 7 4 10 3 13 29 30 27 36 33 30 26 21 19 14 11 9
21 19 14 14 11 8 7 8 8 8 4 1 2 1 3 2 4 6 5 1 4 5 6 3 8 9 7 6 5 8 10 14 13 6 7 5 2 7 10 25 25 24 19 18 23 27 28 26 25 21 14 11 10 11
20 18 15 14 14 12 10 8 6 4 3 3 5 5 4 4 4 4 11 4 5 6 6 6 9 8 6 7 10 14 15 13 10 10 13 9 8 11 14 27 31 33 35 36 32 32 25 13 13 11 6 5 7 9
17 17 16 16 16 15 12 10 8 7 7 8 7 3 5 6 8 6 7 5 4 5 8 10 9 7 10 12 12 14 12 7 7 12 11 15 16 10 19 21 27 27 26 23 20 11 14 8 5 5 9 12 13 15
15 15 15 14 14 13 13 13 12 11 10 7 6 11 12 11 7 5 4 4 4 5 8 13 11 9 9 12 10 8 7 6 6 7 6 7 17 13 17 20 20 14 13 12 11 8 6 4 4 6 9 11 14 16
17 17 17 17 17 16 17 16 14 14 18 16 13 10 8 7 6 5 4 5 5 6 7 13 11 9 12 7 7 7 5 4 4 10 7 7 15 15 14 15 12 7 6 6 3 2 5 8 11 13 15 17 18 18
19 18 20 21 19 17 15 15 15 12 7 6 6 6 5 6 8 5 6 4 4 9 10 13 10 8 6 7 7 6 4 6 14 5 6 14 17 16 13 11 10 6 3 4 6 8 10 13 15 17 17 17 17 17
19 21 22 18 15 15 13 10 8 11 11 9 6 7 6 6 9 18 13 9 10 11 8 11 9 9 9 7 6 5 6 4 4 4 8 20 15 17 12 9 7 5 2 3 6 10 12 12 11 10 10 9 8 7
21 19 22 19 14 15 14 15 13 11 14 4 5 8 17 27 18 18 13 9 9 7 8 6 8 4 8 9 5 2 2 5 5 9 24 22 18 13 10 8 5 3 2 3 4 5 6 7 7 7 7 6 5 5
18 18 16 16 12 10 12 12 15 25 28 27 23 24 23 24 19 16 13 6 10 9 8 5 7 6 8 5 3 5 4 5 13 19 13 14 14 9 7 7 4 1 1 6 9 10 10 11 11 10 9 6 3 2
16 16 15 18 17 17 14 12 12 21 17 15 21 22 20 19 16 12 13 12 9 7 5 3 4 5 5 5 7 10 10 16 21 16 12 9 9 8 7 4 4 5 8 12 15 8 7 11 13 11 9 8 4 4
15 13 13 14 19 17 16 14 15 13 12 12 14 13 14 15 11 7 10 11 11 7 5 8 8 11 7 13 15 12 10 11 12 9 7 7 6 5 3 1 1 5 6 8 12 13 11 12 13 12 8 9 10 9
15 13 12 11 12 13 15 17 13 10 13 12 10 9 10 12 12 11 11 12 11 9 11 13 11 20 18 14 11 9 7 6 6 6 7 8 5 3 2 0 3 4 6 9 13 10 9 12 12 10 9 7 7 7
12 10 9 9 11 16 11 15 12 12 12 14 14 13 13 12 11 11 11 11 10 14 23 22 18 14 12 10 8 6 6 7 6 5 6 4 3 2 2 2 4 5 4 5 8 10 9 9 11 9 9 8 8 8
9 9 8 9 11 12 9 11 10 10 9 12 12 12 13 12 12 11 11 13 11 17 16 13 10 8 8 8 9 7 6 6 5 3 0 2 1 1 1 7 4 3 6 5 9 11 11 13 14 14 14 15 15 15
9 10 12 10 11 10 11 10 8 8 9 10 10 11 11 11 13 13 12 10 12 12 11 10 10 11 12 11 11 11 12 12 6 1 4 7 8 5 4 3 3 7 10 12 14 16 17 18 19 19 19 20 21 22
16 15 17 17 11 14 11 11 10 11 9 9 10 13 15 18 17 18 17 17 15 15 17 15 15 15 18 19 16 14 11 11 11 10 9 8 7 7 9 9 11 15 19 21 23 24 25 25 26 25 25 26 27 28
22 23 22 19 19 30 31 27 25 26 23 20 22 22 23 24 23 24 27 24 30 28 25 27 22 21 20 17 16 13 11 8 6 5 6 7 8 10 14 17 20 22 24 25 25 25 25 25 25 25 25 24 24 25
22 15 15 17 16 22 24 23 24 23 25 24 22 23 24 29 31 27 20 23 22 21 19 17 15 12 10 8 9 9 9 9 8 9 10 11 13 16 19 22 24 25 25 25 26 26 26 26 26 26 25 24 24 24
15 19 16 15 15 14 17 18 16 15 17 20 20 20 20 20 19 19 19 18 16 15 12 11 9 9 10 11 12 14 15 17 17 17 17 17 17 18 19 21 23 25 26 28 28 28 28 28 28 27 26 26 25 25
17 15 17 18 19 19 18 14 12 14 13 12 8 7 8 8 12 13 12 11 11 10 9 9 9 11 13 15 16 18 20 23 24 23 22 20 19 20 21 22 24 26 28 29 29 30 30 30 29 29 29 29 29 30
12 14 16 15 14 14 17 18 16 12 9 8 6 5 6 5 8 9 9 8 6 6 6 7 9 11 13 16 20 22 24 26 26 24 22 21 20 20 22 24 26 28 30 31 31 31 31 32 32 32 32 32 31 31
10 11 13 14 11 13 14 13 12 12 9 7 3 7 8 6 4 4 4 5 3 3 3 7 11 15 19 22 24 26 26 25 23 23 22 23 23 23 25 27 29 30 32 34 34 34 34 34 33 33 33 33 33 33
15 13 13 11 9 10 11 11 9 11 12 10 7 6 7 11 12 12 13 14 10 14 19 14 16 18 23 25 27 28 27 26 27 27 28 28 29 30 31 31 31 31 31 31 31 31 31 32 32 32 32 31 31 30
20 19 19 14 11 9 9 10 7 11 15 18 15 16 16 16 21 22 15 16 18 19 24 27 25 24 26 27 27 28 29 30 31 31 31 31 31 31 30 30 30 31 31 31 31 31 31 31 31 31 30 30 30 29
20 19 17 14 13 15 13 11 15 12 14 13 13 10 9 7 9 9 17 17 18 21 24 26 28 30 31 33 34 34 34 34 32 31 30 30 30 30 30 30 29 30 30 30 30 30 30 30 30 29 28 26 25 24
17 18 19 17 17 18 16 11 9 10 10 11 11 11 15 15 16 20 26 27 29 31 32 32 33 33 34 35 36 35 33 32 31 30 29 28 27 27 27 28 28 28 28 30 29 28 27 26 25 24 24 23 23 22

GFSWCAN_700_spd_006.txt.gz
Wind_Speed
36 34 32 30 28 25 21 22 20 18 18 15 16 14 15 16 17 21 19 18 18 25 28 24 21 22 19 15 10 13 6 12 15 15 20 21 20 25 28 27 29 32 31 25 17 19 20 20 19 16 16 23 20 31
37 33 31 30 29 23 20 19 16 16 15 15 15 14 15 15 15 15 15 15 17 23 22 16 14 19 22 17 18 15 8 10 12 11 9 13 15 11 24 25 18 27 32 26 23 24 23 20 20 20 16 14 16 23
35 32 29 26 22 18 17 12 13 12 13 13 12 11 15 13 11 11 12 13 14 23 19 10 10 14 15 16 16 16 7 10 8 10 14 11 11 11 16 12 24 19 20 19 20 24 24 19 20 19 12 13 15 20
29 28 26 23 21 17 12 12 11 12 10 11 13 12 9 8 9 11 10 11 13 16 18 0 3 10 12 15 10 8 11 11 12 7 7 7 8 5 8 12 10 17 19 13 16 11 9 15 26 28 28 27 26 28
27 26 25 23 18 12 12 11 9 10 10 12 12 3 4 4 4 5 7 9 10 13 13 4 2 8 7 8 10 11 11 12 8 4 4 6 1 5 6 8 22 20 20 12 13 20 25 33 31 24 24 26 25 23
26 24 20 20 16 14 12 10 10 10 13 5 2 3 2 4 6 4 4 3 7 9 8 2 5 7 7 9 9 9 10 12 7 3 4 6 4 6 6 6 13 22 23 18 26 32 38 39 24 24 17 17 15 12
26 22 18 18 17 15 13 13 11 11 7 1 2 2 2 4 6 2 3 6 7 4 4 3 5 7 8 5 9 11 6 8 9 3 5 6 5 4 5 5 7 16 27 25 35 38 35 34 26 24 16 6 5 4
23 22 21 20 20 17 15 12 9 7 7 6 6 5 7 6 1 8 7 11 11 8 6 4 8 12 9 6 7 8 8 10 6 4 12 3 6 9 6 11 7 10 24 26 25 34 29 31 33 12 8 6 5 9
22 21 21 20 18 17 14 13 11 9 8 8 8 9 9 6 5 9 6 7 11 9 5 8 7 6 6 7 8 12 12 12 5 8 3 6 12 9 10 16 17 18 20 24 18 23 28 22 21 21 23 17 4 3
22 21 20 17 17 17 16 15 13 11 8 7 8 8 9 6 7 8 8 9 8 16 13 15 10 6 8 10 12 12 11 9 9 6 7 21 18 12 12 19 22 24 27 23 21 20 22 20 13 13 21 15 6 7
22 21 20 19 19 18 17 16 14 12 12 12 14 13 8 7 8 7 6 7 9 8 13 14 13 10 11 12 13 7 5 6 3 6 7 6 14 18 18 21 22 22 23 22 21 21 19 17 8 4 4 4 8 10
23 22 21 20 20 21 19 17 16 17 13 10 8 8 9 8 7 5 4 3 8 6 10 14 10 16 13 8 6 5 3 3 4 5 5 6 14 13 18 19 18 20 23 23 20 15 8 6 3 4 6 9 11 13
26 23 21 21 20 19 15 16 16 14 12 10 9 9 7 7 11 7 9 7 7 13 12 11 8 4 13 10 6 5 2 5 11 4 5 16 16 18 18 20 20 17 15 13 10 9 6 5 5 6 7 9 10 10
22 22 18 19 19 20 22 18 18 17 12 10 8 10 6 6 8 11 9 13 13 13 14 14 6 12 9 7 7 4 6 4 5 5 9 19 18 16 16 19 19 16 12 10 10 9 6 4 4 4 3 3 4 5
20 21 21 21 20 19 16 17 21 18 5 6 7 8 17 21 20 16 10 11 10 12 10 12 4 9 7 5 6 5 4 6 5 9 21 19 20 17 17 18 16 14 12 8 7 8 8 8 7 5 4 4 3 3
15 17 18 20 23 20 13 12 15 22 26 23 24 22 19 15 16 13 9 2 6 7 9 10 6 7 8 6 7 9 5 6 8 25 22 18 16 15 14 12 13 13 12 11 9 8 10 12 13 11 8 6 5 4
15 17 19 19 19 18 13 12 18 20 13 13 19 20 19 16 16 17 14 11 5 4 3 5 7 7 7 8 11 12 16 16 12 14 15 17 14 11 8 7 8 9 9 12 13 11 12 14 14 13 12 10 7 6
10 9 13 15 17 16 16 16 15 16 15 13 13 15 15 15 10 10 13 14 10 7 5 10 10 13 8 13 14 14 17 14 13 11 12 11 9 7 5 3 3 5 7 9 12 10 9 12 12 13 13 11 12 10
10 10 12 14 17 16 15 19 16 14 16 16 15 14 13 14 14 14 15 16 12 7 11 10 10 15 15 13 12 12 10 9 8 7 6 6 4 3 3 4 4 5 6 7 7 8 8 7 7 9 8 8 6 8
11 12 13 14 14 13 10 13 13 13 13 14 15 14 15 14 14 15 15 13 16 19 19 17 15 14 12 11 10 10 10 9 7 6 5 3 2 1 2 2 3 2 1 2 4 8 9 9 9 11 13 13 12 12
11 14 13 12 10 12 10 11 10 11 10 14 13 13 15 13 12 12 12 14 14 18 15 14 13 14 14 13 13 12 10 7 7 4 4 4 3 4 1 3 1 1 4 6 9 13 14 15 17 18 18 18 18 19
16 17 13 12 11 16 17 13 10 8 12 11 11 14 15 14 15 16 19 20 22 18 17 17 17 16 15 15 14 13 13 14 10 8 7 5 5 5 6 2 3 6 9 12 16 19 21 23 23 23 24 24 24 25
25 29 28 25 27 22 24 22 24 20 17 18 19 21 22 28 27 23 23 20 27 21 18 19 18 17 16 16 13 12 12 12 12 10 9 10 9 8 9 11 14 16 19 21 21 22 23 23 23 21 21 21 21 22
23 30 26 23 21 22 23 27 27 26 22 23 31 29 25 26 27 29 23 19 19 18 19 20 19 17 13 10 10 10 10 10 9 11 12 11 10 14 15 18 20 23 22 24 25 25 25 25 24 23 22 21 21 20
18 15 13 18 17 15 18 20 23 20 21 23 23 21 21 23 26 25 21 19 17 16 16 13 11 11 11 10 10 11 12 12 12 12 14 14 15 16 14 19 21 24 24 23 25 25 25 25 24 23 22 20 22 21
12 14 16 16 14 12 12 11 12 12 12 13 13 13 14 13 10 10 14 11 9 8 7 7 10 12 13 14 16 17 20 20 21 20 20 18 16 16 16 17 16 17 30 28 28 28 28 26 24 23 19 19 21 21
14 13 13 13 15 16 15 11 9 9 7 5 4 5 6 5 6 9 6 6 6 7 8 10 11 14 17 18 20 22 24 25 26 24 22 20 19 18 18 21 24 26 28 29 29 29 28 27 24 22 21 20 19 19
10 10 11 10 12 14 14 15 16 14 12 8 4 3 1 1 4 4 3 2 4 6 9 10 12 16 19 19 20 22 24 23 21 18 13 12 16 21 20 23 27 28 30 30 29 30 28 28 29 28 29 29 28 28
16 13 10 8 9 11 14 13 9 10 11 9 6 5 6 8 11 13 14 14 10 12 17 16 17 21 26 23 23 27 25 23 22 22 21 22 23 26 25 25 25 26 26 27 30 30 27 27 29 28 28 29 29 30
18 17 13 12 12 9 10 13 17 16 15 15 17 17 16 14 15 16 15 12 12 15 22 23 22 23 24 25 25 25 27 26 25 24 24 24 25 26 27 27 27 27 26 26 26 27 29 26 26 27 27 26 26 26
19 17 12 10 9 11 14 15 14 17 17 20 20 13 11 12 9 8 19 18 20 19 21 23 25 27 28 28 27 25 26 27 26 26 24 25 25 24 24 24 24 24 24 24 25 26 27 26 25 24 22 22 22 21
16 16 14 10 12 15 15 10 8 13 15 16 14 17 15 13 12 16 22 26 25 26 28 29 30 30 29 29 28 29 27 26 25 24 23 22 22 22 22 22 22 23 24 23 22 22 22 22 22 22 22 21 20 19
12 12 13 12 12 12 13 8 7 5 10 14 14 13 14 12 12 19 26 28 28 29 30 30 29 29 28 28 27 27 26 25 23 21 21 21 19 19 21 22 21 20 19 18 18 19 20 21 21 21 21 20 20 19

GFSWCAN_700_spd_009.txt.gz
Wind_Speed
34 32 30 29 28 26 24 21 21 20 17 15 13 14 16 15 16 17 16 19 21 32 25 23 26 27 19 14 17 6 4 14 17 16 22 26 28 37 35 35 41 43 43 41 37 36 31 14 10 18 17 15 18 25
31 30 29 28 25 24 23 20 18 15 14 11 12 14 15 13 17 15 14 14 16 18 26 25 27 22 19 21 23 15 6 7 9 15 20 21 17 20 36 35 39 46 46 42 34 41 28 22 21 16 24 31 25 27
30 30 27 25 25 21 17 17 16 12 12 12 11 13 13 17 14 12 11 12 15 18 24 11 11 10 13 17 19 19 10 10 14 11 11 16 10 14 22 32 34 37 37 43 18 13 17 18 9 22 15 4 6 11
31 29 25 23 23 17 17 18 14 13 12 12 14 15 9 8 7 10 11 12 11 14 18 4 7 6 9 12 12 16 11 11 19 12 15 19 15 12 25 12 16 29 27 23 23 16 14 15 22 26 17 8 10 14
29 26 24 23 22 20 18 16 14 14 13 16 9 5 6 4 4 7 7 6 8 11 15 11 2 4 5 10 13 13 18 15 12 14 13 14 6 7 13 12 7 13 17 15 30 18 12 14 19 16 26 21 21 21
26 26 25 24 23 19 17 16 14 14 14 6 5 7 3 7 7 6 7 6 4 9 10 6 5 0 3 9 12 12 12 11 15 17 5 7 8 10 11 8 6 8 8 12 15 17 16 25 33 33 28 18 19 21
25 24 23 24 22 19 16 15 13 12 10 7 6 7 7 9 7 5 3 6 2 1 2 4 4 7 7 10 9 9 9 7 8 9 2 4 6 5 6 3 3 6 15 18 18 18 26 28 27 34 36 26 16 13
23 23 23 22 23 21 18 16 14 11 9 10 11 10 9 8 9 9 7 9 10 5 4 3 1 8 11 10 10 8 3 3 9 3 8 7 10 3 3 4 3 8 16 21 23 30 31 27 31 29 22 24 11 8
22 23 23 24 24 24 22 19 15 12 11 11 12 11 8 8 11 8 8 5 9 5 2 3 4 8 11 16 14 9 9 7 6 7 8 4 3 2 9 9 6 12 16 20 22 27 30 28 30 33 16 8 11 8
23 23 24 25 25 22 22 23 21 18 15 16 11 13 12 8 9 8 8 10 11 11 7 9 5 1 1 10 9 9 8 9 5 8 14 17 14 13 12 11 5 8 14 20 19 22 19 15 30 20 22 25 17 9
21 22 24 24 21 19 20 22 20 17 14 15 14 10 8 11 11 8 8 6 6 4 7 6 6 2 3 10 11 8 6 3 2 4 4 7 17 18 14 18 19 17 18 18 14 16 13 10 7 17 12 7 7 5
20 20 22 22 23 25 22 19 18 17 15 13 11 9 10 11 8 7 10 6 7 7 14 10 13 6 5 6 4 6 6 5 1 7 5 5 15 22 22 21 25 26 22 26 27 22 19 12 4 8 8 6 3 2
17 18 22 24 24 22 21 25 23 16 14 11 11 12 7 8 9 11 14 17 14 23 18 11 9 4 4 6 4 4 5 6 4 8 7 15 21 20 23 26 26 27 27 26 21 21 14 10 7 4 4 3 1 1
17 19 22 22 20 20 22 22 27 14 9 11 12 13 10 9 14 16 17 17 17 19 16 8 10 13 13 10 10 3 6 9 5 6 12 15 21 21 23 20 19 16 11 11 13 13 11 8 7 7 7 7 7 6
15 16 18 21 19 17 19 19 18 23 17 11 9 8 15 19 19 22 17 14 13 14 15 14 11 12 9 8 8 8 6 7 5 8 21 19 17 18 23 21 13 8 10 11 11 11 11 8 7 8 8 8 10 7
13 14 17 19 20 19 17 16 13 18 21 20 21 20 17 19 19 19 16 14 12 17 17 9 8 5 11 7 8 9 5 6 19 17 16 18 18 20 18 17 15 12 12 12 12 10 10 11 10 7 8 6 4 3
11 13 14 18 21 18 16 10 12 16 10 13 16 14 13 15 17 17 16 15 15 14 14 10 11 9 6 12 11 13 20 16 23 22 16 15 16 14 12 12 14 11 11 9 9 11 14 12 12 8 12 12 11 9
14 15 17 18 16 12 17 18 15 11 12 12 13 15 13 14 14 16 16 15 12 14 15 15 12 14 9 18 20 18 15 15 14 15 12 11 11 9 9 9 9 9 10 10 12 6 7 9 8 9 11 12 7 10
13 13 14 14 13 11 13 17 14 9 11 12 15 13 14 15 16 17 19 19 13 12 10 9 11 18 19 17 16 16 16 14 12 11 11 9 8 7 7 8 7 7 6 6 9 7 8 5 5 5 4 4 4 7
12 13 13 13 14 11 10 11 14 9 9 13 13 13 13 15 15 16 17 18 16 17 20 21 16 13 13 14 14 14 13 11 10 11 12 12 9 8 6 6 8 10 8 8 7 3 7 6 8 8 11 10 7 6
14 13 14 15 17 14 11 10 8 10 9 12 12 12 12 8 10 13 16 11 15 17 18 17 16 16 17 17 16 15 13 11 10 9 9 6 7 7 7 6 5 5 5 5 6 9 10 14 17 17 16 14 17 15
20 21 21 23 25 25 19 15 13 14 16 10 9 8 17 19 21 24 23 24 26 23 22 18 17 16 17 17 17 18 20 19 16 16 15 13 10 6 5 4 5 5 8 10 12 12 12 17 17 15 14 16 13 10
18 20 25 25 25 19 23 24 23 20 21 22 21 26 28 24 25 26 27 21 20 22 24 25 24 23 20 17 12 12 13 15 14 15 14 11 11 8 7 8 7 8 5 9 10 11 12 16 16 17 13 13 12 10
15 19 20 16 15 19 22 20 20 17 19 21 21 21 20 18 21 26 25 22 22 22 19 18 13 10 12 15 16 14 14 14 12 11 12 9 6 10 14 11 9 9 12 9 10 13 14 16 16 13 14 15 12 13
15 14 12 15 12 12 11 11 11 8 8 10 10 9 10 11 14 18 16 15 16 11 11 13 15 15 14 14 15 16 15 16 16 13 17 14 12 7 4 6 13 16 22 24 21 20 20 18 15 14 15 14 17 17
9 11 11 15 14 11 9 8 7 7 7 6 7 7 9 9 7 7 10 9 10 11 11 12 12 12 14 19 19 20 22 26 25 18 20 18 18 14 12 11 12 17 26 28 28 26 26 24 20 17 14 14 17 17
7 8 9 12 12 11 10 10 12 11 10 9 9 8 6 3 3 5 7 4 4 11 13 14 14 17 17 19 24 26 24 21 20 17 12 15 13 17 18 16 20 27 25 29 29 27 29 28 27 26 25 23 20 17
10 9 8 8 9 11 13 10 9 9 10 10 12 6 4 3 5 12 15 15 16 19 20 20 21 20 19 21 21 17 19 22 21 19 10 2 10 17 26 22 23 24 22 27 26 26 27 26 26 25 26 25 23 21
15 11 9 11 7 9 9 13 11 10 12 10 10 14 19 18 16 19 18 16 18 20 21 18 20 17 16 17 17 18 18 24 24 21 16 12 13 17 23 24 24 23 22 21 25 27 24 23 23 22 21 19 16 16
12 11 12 10 10 11 11 6 8 16 17 16 14 13 15 14 11 15 19 20 19 17 15 14 15 19 23 23 22 19 18 26 25 23 20 20 21 23 24 23 23 22 22 21 21 19 25 21 16 14 15 16 17 19
11 11 10 9 10 9 4 10 14 15 17 16 17 17 15 14 12 16 24 20 14 14 20 21 19 24 27 26 26 24 21 25 23 22 21 21 21 21 21 20 20 21 21 19 17 16 17 16 15 16 17 18 18 18
9 11 11 10 9 11 8 12 9 9 12 13 15 15 13 9 10 17 24 26 24 22 24 25 24 25 24 23 23 24 23 24 23 22 20 18 17 18 19 19 18 17 16 15 15 14 16 16 16 18 18 18 19 18
6 9 8 7 7 8 9 11 8 6 8 7 9 10 8 11 15 18 20 27 27 28 25 21 23 25 26 25 23 22 22 22 19 17 18 19 19 18 17 16 16 15 15 15 15 15 16 17 18 18 18 18 18 18

GFSWCAN_700_spd_012.txt.gz
Wind_Speed
30 31 31 30 27 27 24 23 22 20 18 16 13 12 13 15 17 16 16 16 21 25 28 24 25 28 24 22 26 20 15 9 10 13 11 18 15 12 17 29 28 26 22 26 25 22 13 13 22 25 17 17 17 16
31 32 29 28 27 25 21 22 22 19 16 15 15 13 14 14 12 14 15 16 17 24 23 22 23 23 19 19 21 21 19 9 6 9 12 11 24 13 13 17 25 26 30 30 23 28 33 12 18 20 20 13 19 17
31 29 28 27 25 23 22 21 19 18 18 16 16 16 16 17 13 14 13 13 16 19 24 10 7 9 16 12 7 19 13 11 12 6 9 9 11 10 8 14 21 24 26 36 34 32 21 22 14 9 12 8 10 16
30 29 29 28 28 25 21 19 19 18 18 19 17 12 10 10 9 8 10 11 13 17 24 8 10 14 5 12 16 13 15 8 5 7 9 7 14 13 11 11 14 18 21 22 41 35 23 21 23 16 16 18 14 12
29 29 29 27 27 25 23 20 18 18 17 13 12 13 11 10 9 9 9 10 10 11 21 15 5 5 6 12 12 14 17 12 9 8 13 10 13 15 25 12 15 19 18 12 19 25 31 25 20 20 19 18 20 19
27 26 25 26 25 23 22 20 19 17 16 14 12 12 11 11 11 10 10 8 7 7 19 15 4 6 2 9 9 14 13 13 12 11 15 16 15 8 8 4 3 8 14 15 19 21 34 29 21 15 20 19 19 22
23 24 25 26 25 25 23 21 19 17 16 16 16 14 11 11 8 5 5 9 8 3 9 9 4 5 11 7 8 8 10 7 10 12 13 20 10 10 10 5 13 8 5 18 13 2 16 15 24 26 25 23 21 22
22 24 24 24 25 26 26 24 22 19 18 17 15 14 11 10 7 7 11 11 11 7 3 3 13 5 13 9 9 9 8 13 5 7 17 6 7 3 4 6 9 4 9 12 16 13 20 26 32 30 22 29 25 19
21 22 23 24 24 25 25 23 22 22 22 21 14 12 12 15 17 15 13 8 4 3 2 2 10 5 9 16 13 10 4 5 10 12 3 2 7 2 5 10 11 10 14 16 21 19 23 23 23 25 24 21 23 28
20 24 27 26 27 26 23 22 20 19 19 18 15 15 14 13 16 16 9 11 7 5 4 5 7 12 6 15 9 5 7 5 5 2 9 14 12 8 7 6 6 8 13 15 14 21 24 26 27 21 20 18 13 12
21 25 26 27 26 26 30 22 20 17 16 16 16 14 13 17 16 11 6 6 7 7 7 6 3 9 6 2 4 7 6 3 1 5 7 5 10 13 16 14 11 11 10 10 11 9 2 5 13 14 22 19 23 21
20 22 23 24 23 26 26 31 19 16 18 14 12 9 9 10 8 8 11 7 5 6 6 2 7 7 5 4 9 1 1 1 6 10 4 5 17 19 21 26 24 22 16 14 17 21 18 18 19 20 17 11 4 8
15 18 21 22 22 25 28 29 27 11 13 16 17 14 11 11 11 13 14 18 19 15 7 12 13 11 7 1 4 4 3 7 13 7 6 16 25 23 30 31 33 31 25 25 27 25 16 17 21 16 11 17 13 10
13 16 19 23 23 26 26 23 23 21 14 14 12 15 16 14 24 25 30 32 30 17 22 16 19 13 8 7 8 7 10 10 6 7 10 18 18 19 23 20 18 19 23 22 20 21 17 11 16 16 16 12 6 3
13 17 20 21 26 24 19 15 14 18 27 21 12 13 26 29 29 29 29 29 28 22 11 13 11 11 9 6 8 8 6 7 7 9 13 20 22 19 19 21 17 18 17 16 15 15 13 12 11 15 12 10 10 7
17 17 18 22 24 22 18 11 6 20 24 17 16 20 19 21 22 24 23 28 33 26 17 13 12 11 15 9 11 12 6 8 13 20 20 21 18 18 21 21 17 17 16 10 17 20 16 13 13 12 7 12 12 6
17 20 19 18 17 16 18 6 21 15 12 13 17 15 17 20 27 24 20 20 26 29 25 16 15 12 7 20 17 21 25 27 14 16 16 11 13 13 15 23 12 19 15 13 14 10 18 19 21 21 15 10 16 18
17 16 15 14 13 12 18 16 13 9 13 14 16 17 19 19 19 19 23 18 22 21 19 22 24 32 21 24 25 21 21 22 20 19 18 17 16 18 21 17 13 15 14 10 19 8 13 14 6 11 11 10 8 11
14 12 11 10 9 8 12 14 16 8 12 12 13 16 19 18 20 20 21 23 21 18 20 23 19 26 25 25 23 21 22 20 21 21 19 19 20 19 17 16 15 14 10 10 12 10 6 0 3 4 6 4 5 5
14 13 12 11 9 9 8 12 15 8 11 14 14 17 17 17 15 17 20 14 17 28 32 30 28 26 26 25 24 22 20 18 16 17 20 18 16 12 12 14 15 12 10 10 9 1 5 4 7 5 7 5 8 9
20 19 17 13 20 15 10 9 9 7 11 18 12 9 16 17 22 24 23 24 30 33 33 29 26 25 23 24 25 25 24 23 18 15 14 9 9 8 6 7 8 7 7 7 8 9 10 11 11 8 7 9 7 5
18 19 19 24 24 22 20 17 15 17 20 15 18 19 21 21 22 23 25 29 32 28 27 27 27 24 22 21 20 18 22 24 21 16 16 16 14 11 9 9 8 6 7 8 10 10 10 13 14 11 10 11 8 8
14 18 21 23 19 14 18 18 16 16 14 17 17 19 20 22 24 24 28 27 28 28 26 25 23 22 19 19 13 12 11 14 13 9 5 11 12 9 10 7 6 6 4 6 6 8 10 13 14 11 10 12 9 7
12 17 17 14 13 14 13 14 16 12 10 9 12 11 12 14 17 22 20 20 19 13 12 13 11 11 12 15 17 15 14 14 12 13 14 3 1 5 11 8 5 8 7 4 8 13 13 12 11 9 9 10 10 8
10 10 11 16 13 11 10 9 10 8 10 9 11 10 7 5 9 13 13 11 11 12 10 11 11 12 16 18 19 20 20 15 13 11 15 12 9 3 1 11 13 16 20 25 27 28 23 21 19 16 9 10 15 17
7 9 8 7 5 5 5 8 8 9 8 8 8 9 17 8 5 4 8 11 11 13 19 22 22 21 19 19 17 18 18 18 16 10 10 12 10 12 13 11 15 20 20 22 24 24 21 22 23 21 19 19 20 21
6 9 8 9 9 8 6 7 9 11 12 11 13 14 8 10 4 7 11 13 15 22 24 23 17 15 15 16 16 15 14 18 19 14 9 9 9 14 20 23 28 26 21 22 23 23 24 24 23 21 19 18 15 14
9 10 22 16 6 11 17 12 11 11 12 11 15 12 10 11 13 14 15 14 13 15 20 25 16 15 16 17 15 15 15 21 20 14 6 4 9 13 24 24 21 23 19 21 21 21 20 20 18 16 14 12 11 13
15 13 10 14 10 11 12 11 13 13 15 10 8 9 8 8 14 16 17 20 23 18 13 15 16 16 16 15 13 13 17 25 24 20 15 14 17 19 22 20 18 17 16 14 18 20 21 19 15 13 11 12 15 17
13 14 21 15 13 12 9 7 8 13 14 13 13 13 13 13 15 19 21 19 14 14 15 15 14 17 19 16 17 16 16 27 24 20 20 18 19 19 19 19 18 17 17 13 12 11 18 13 12 12 14 14 16 17
9 10 12 11 9 12 9 7 12 12 13 15 16 14 16 14 14 14 20 18 13 12 15 14 14 16 20 19 19 20 17 19 24 21 20 18 17 17 18 18 16 15 13 11 12 11 14 13 12 14 15 17 18 18
7 9 8 8 5 13 12 11 10 8 11 13 20 19 16 15 16 18 22 20 18 16 16 15 15 15 24 23 21 21 21 21 19 19 18 18 17 17 16 15 14 15 14 12 12 13 16 16 15 16 16 17 17 17
5 8 8 6 5 7 6 12 17 11 4 8 10 14 8 9 14 19 23 23 23 24 22 20 14 16 23 23 21 20 22 21 19 16 17 18 16 16 16 16 16 16 16 17 15 15 15 14 14 15 15 16 17 18

GFSWCAN_700_spd_015.txt.gz
Wind_Speed
33 33 32 32 32 31 29 26 24 22 21 20 18 17 15 14 16 16 12 16 20 24 25 22 15 20 23 21 21 24 27 10 14 9 6 6 7 10 17 19 14 6 5 12 12 20 6 31 28 20 24 26 21 25
32 32 32 31 31 30 28 24 23 22 22 21 20 19 18 18 18 19 17 18 17 23 29 22 19 18 19 15 19 21 23 20 9 3 9 5 8 8 11 13 11 11 9 7 6 7 4 12 27 26 23 29 27 25
31 32 32 31 30 29 27 26 23 22 21 21 20 17 15 14 14 13 12 13 17 24 25 12 8 8 10 14 6 13 10 11 15 15 10 7 7 6 9 5 13 11 9 20 11 14 10 5 21 28 30 19 14 17
29 30 30 31 30 28 26 25 23 22 21 19 18 17 17 14 15 13 12 13 16 21 28 6 8 9 11 15 19 13 10 11 13 9 6 6 8 4 9 7 3 14 9 15 17 14 7 10 16 16 24 24 24 19
27 29 29 29 29 28 27 25 24 23 22 22 23 21 19 17 16 15 14 9 10 14 26 15 5 1 5 7 9 5 5 6 11 10 13 11 5 8 4 6 1 8 8 5 8 16 20 12 10 9 18 24 28 24
25 25 29 29 30 29 28 28 26 24 24 23 22 21 19 19 16 13 9 4 16 16 18 19 13 7 7 6 3 7 8 13 11 6 15 9 8 7 3 8 1 3 8 11 12 11 13 20 12 11 23 21 22 20
23 26 29 31 31 30 29 26 25 25 25 23 20 19 15 15 15 14 14 16 17 19 16 16 7 9 1 7 2 9 7 4 6 10 13 12 6 2 7 7 5 6 3 4 11 12 12 19 14 20 20 22 21 21
24 28 31 30 29 29 29 28 25 23 22 21 20 17 15 16 15 17 20 19 15 14 11 7 9 10 8 10 12 8 5 8 12 12 12 11 3 2 2 5 2 5 9 12 19 22 19 23 16 15 15 14 17 22
26 28 29 26 26 30 33 30 26 23 22 22 19 19 19 22 22 21 20 10 9 9 8 10 15 12 1 9 11 17 6 10 10 6 9 5 3 3 7 12 7 8 17 18 13 11 19 17 15 19 12 12 14 17
23 25 25 27 28 31 34 32 25 21 21 21 20 21 23 22 26 11 8 12 10 7 8 11 11 19 11 11 7 12 12 7 4 3 5 13 15 7 5 9 10 0 9 12 25 26 24 20 18 20 16 12 10 11
21 22 25 28 31 32 32 31 24 18 21 23 21 20 22 28 22 15 7 5 5 7 11 12 13 13 1 8 6 4 1 3 1 6 4 8 11 15 5 15 15 12 13 12 18 18 13 12 11 9 12 11 8 8
19 20 23 28 31 31 27 26 27 20 18 25 24 19 15 13 10 10 12 8 4 5 11 14 14 6 1 6 3 4 1 4 7 11 6 7 15 21 25 23 26 27 20 27 32 25 18 17 13 10 5 14 15 20
18 19 24 27 29 29 23 20 25 24 17 12 24 21 13 16 21 11 15 17 20 11 16 21 17 24 3 2 3 4 8 10 12 9 9 20 30 24 23 22 29 27 27 24 20 19 16 17 15 18 14 16 13 13
20 22 23 25 27 24 19 17 23 20 22 24 14 20 18 16 28 43 38 40 22 24 22 24 15 14 20 10 9 8 11 9 8 9 12 15 14 17 25 25 32 25 24 21 17 17 21 16 15 14 13 12 13 11
20 20 21 23 21 22 20 15 14 21 27 21 13 14 28 25 31 36 36 33 38 28 21 17 14 16 12 9 9 9 7 9 9 16 17 20 24 25 21 22 21 23 18 16 16 22 15 15 11 14 18 15 13 14
19 17 16 18 19 20 15 10 22 26 25 23 20 23 25 26 27 34 37 37 39 20 18 17 15 17 22 12 12 13 8 10 17 14 13 19 23 18 27 23 20 16 17 26 23 26 27 25 21 17 20 17 15 11
17 16 14 15 16 16 11 19 22 17 18 15 21 18 32 25 25 31 30 26 27 32 41 29 20 12 10 22 21 25 15 17 14 18 18 17 14 28 27 20 22 14 17 24 20 17 16 14 14 15 11 11 13 15
16 15 14 13 12 12 10 16 13 15 17 21 25 25 21 22 21 29 28 25 20 26 39 44 38 40 20 26 28 25 21 23 25 24 30 24 20 19 21 17 17 24 20 16 10 8 7 6 7 9 8 8 11 9
17 16 13 10 8 8 18 16 19 13 14 17 20 19 16 17 21 19 22 28 33 37 41 36 31 37 31 28 26 29 28 28 27 26 22 23 22 21 22 19 16 12 9 6 2 1 2 2 3 3 3 4 2 2
21 19 16 14 12 12 12 14 15 10 16 19 19 18 23 24 23 25 27 29 32 39 46 42 36 30 29 28 25 25 24 20 20 20 18 17 14 12 13 10 10 9 4 6 7 6 8 9 5 4 5 4 6 10
16 19 18 19 23 23 18 15 14 15 21 20 13 18 25 18 20 28 31 32 37 39 34 32 26 21 20 20 22 21 20 19 19 14 18 18 18 18 17 14 10 8 8 11 11 13 14 13 9 5 8 6 3 5
14 16 16 21 26 25 21 22 20 18 19 18 17 19 19 21 22 26 28 31 33 28 27 25 23 20 14 15 14 12 12 12 7 8 10 10 5 3 3 2 0 4 6 5 6 11 14 16 15 5 8 10 3 9
7 9 12 16 16 11 16 19 19 16 11 14 13 14 13 15 19 21 27 24 21 19 16 16 14 14 16 14 8 5 5 8 8 5 3 6 3 4 11 8 7 10 13 12 12 14 15 21 21 13 9 10 6 10
7 10 12 13 13 12 16 15 14 13 15 9 8 7 7 9 12 18 17 14 12 10 14 14 13 14 16 17 20 15 11 7 1 9 8 1 6 10 11 12 11 14 19 21 20 22 27 29 27 22 21 20 15 14
8 8 7 14 11 12 9 10 8 8 8 11 14 18 14 1 4 10 11 10 12 17 21 20 15 17 18 16 11 14 18 16 6 4 5 6 7 12 17 21 18 17 21 24 26 26 28 26 22 18 18 24 23 19
8 10 7 7 5 4 6 8 11 15 15 11 18 16 9 6 6 8 14 16 17 17 18 18 21 15 13 15 15 17 21 22 17 4 9 14 16 18 20 25 27 21 27 28 22 21 23 22 17 15 14 15 17 18
11 11 15 8 10 10 9 10 11 10 10 12 15 14 7 7 7 13 13 13 13 13 17 15 13 11 15 18 19 18 24 23 16 4 4 15 18 19 22 25 31 27 23 21 19 19 18 18 16 11 8 7 13 16
27 26 11 13 11 14 13 8 8 11 12 8 11 11 7 7 11 14 17 20 20 15 15 13 13 19 23 23 17 22 26 20 11 8 18 18 21 25 23 24 22 20 19 18 17 18 17 16 11 9 10 14 18 18
15 16 11 13 8 5 5 11 15 15 13 13 12 12 10 9 12 20 20 17 18 16 16 17 20 24 26 17 18 21 26 23 17 10 8 13 20 21 17 16 15 15 14 9 12 16 18 19 17 15 16 17 17 16
7 10 14 12 10 10 17 19 22 18 16 20 21 18 15 18 20 26 28 25 16 15 18 14 16 24 24 21 20 19 24 24 20 18 18 16 17 17 17 16 16 14 10 4 3 11 16 17 18 17 16 16 15 14
6 8 9 10 7 5 17 18 22 23 20 19 20 22 17 17 17 19 27 28 26 25 25 17 13 21 25 24 24 21 20 24 21 20 19 18 18 17 17 16 15 14 12 9 11 16 17 15 14 13 13 13 15 16
6 9 8 8 6 7 12 10 11 12 13 14 15 19 23 22 22 22 28 28 32 35 27 23 19 22 25 26 23 22 24 21 20 18 17 18 17 16 16 15 13 13 13 14 13 15 13 13 13 12 12 13 14 15
6 7 8 7 13 15 7 7 12 8 12 11 10 14 19 18 18 16 22 32 37 33 22 24 25 23 24 22 19 22 22 20 19 17 18 18 17 16 15 14 14 13 13 12 11 14 15 14 13 12 12 12 12 13

GFSWCAN_700_spd_018.txt.gz
Wind_Speed
33 31 31 32 32 31 30 30 30 28 27 25 23 21 19 17 18 19 14 16 17 25 28 20 7 18 17 13 19 16 19 14 12 15 12 13 15 13 17 14 27 14 12 13 16 15 8 10 25 31 29 15 16 18
28 29 30 31 32 31 30 30 29 27 26 25 23 20 20 18 16 16 13 14 16 23 26 25 25 22 20 16 21 20 22 24 15 10 4 11 15 12 16 13 20 23 17 24 17 6 11 4 17 22 27 27 25 26
25 28 30 32 32 33 32 30 28 27 26 25 25 24 21 18 16 17 14 15 19 24 25 14 15 16 19 17 14 22 15 5 13 10 18 19 11 13 12 15 17 28 28 23 26 18 9 3 15 21 22 21 20 22
24 29 32 33 33 32 32 31 30 29 30 28 26 24 21 18 15 14 14 16 15 20 25 8 11 4 10 15 18 8 4 13 15 13 18 16 22 7 15 12 21 35 29 12 24 24 11 4 10 13 12 18 16 19
26 30 33 32 32 32 32 32 32 31 30 28 26 24 20 18 17 14 12 11 13 18 26 9 2 8 7 10 11 10 7 8 13 14 13 19 27 15 1 9 17 26 31 16 16 20 6 4 6 10 15 20 24 19
28 31 31 29 29 33 34 34 34 32 29 28 26 24 21 19 17 18 14 12 19 22 23 15 6 7 14 10 8 11 5 4 10 12 13 17 21 17 5 5 4 12 24 29 15 7 10 8 6 12 8 12 23 25
26 28 27 28 30 33 35 35 34 32 30 27 27 26 26 19 17 17 17 21 24 22 23 15 6 5 5 1 2 3 5 2 5 10 15 16 20 10 3 9 6 16 12 24 23 12 16 7 6 6 10 4 12 12
24 26 28 28 30 33 35 35 31 29 29 29 27 22 21 16 21 23 20 16 16 16 13 7 10 7 5 5 7 9 7 5 13 16 16 15 6 3 7 9 4 9 12 21 24 25 21 15 15 17 11 13 15 18
24 25 25 28 31 33 33 32 31 28 29 30 27 25 24 25 27 23 14 13 13 12 9 9 16 10 10 13 17 15 13 12 12 11 6 4 5 7 6 4 4 8 15 13 16 17 21 21 19 15 11 11 18 7
25 24 25 26 30 32 30 29 32 23 27 30 23 26 21 24 21 18 12 9 10 8 9 12 14 16 13 3 2 3 5 5 2 5 3 11 32 11 11 5 8 9 12 13 16 17 19 14 18 12 6 7 6 16
23 23 25 28 28 30 29 26 27 24 19 29 27 25 26 22 17 12 9 8 7 8 9 15 12 14 4 2 6 2 2 2 4 7 6 10 21 17 5 11 4 4 11 16 18 23 21 19 19 14 10 8 7 4
22 24 25 26 27 28 25 22 26 24 23 23 30 28 23 18 10 7 17 10 6 9 17 24 16 8 4 3 3 1 3 7 7 10 8 14 20 18 21 13 16 21 16 18 17 13 16 10 6 1 8 10 9 10
21 23 24 26 27 25 22 16 21 22 19 20 29 27 17 21 19 11 22 26 29 35 33 20 16 16 5 6 9 11 10 11 12 9 7 21 27 23 27 27 27 28 31 22 24 22 19 19 16 15 15 15 14 10
19 20 21 22 23 23 18 18 17 16 21 25 18 17 20 18 31 40 36 32 26 21 20 27 25 13 16 14 12 9 11 8 8 9 23 24 35 30 38 27 31 33 27 33 32 21 24 18 17 17 16 15 15 14
17 17 17 18 19 18 12 13 19 25 27 21 16 16 30 32 33 33 32 21 17 14 15 20 29 21 17 12 10 10 8 9 15 22 19 25 20 27 26 25 24 26 30 26 26 24 23 21 18 18 16 14 14 12
17 14 14 16 17 17 12 11 23 31 29 27 23 29 27 33 34 31 39 33 24 22 32 38 31 31 30 14 17 16 8 11 24 20 23 15 24 22 22 21 21 24 21 24 23 19 19 17 18 20 18 16 14 13
20 17 14 14 14 12 14 18 28 27 25 22 25 24 24 27 28 26 26 37 37 40 45 37 25 16 14 24 26 25 26 25 21 25 22 35 29 21 16 14 26 20 16 17 15 16 14 13 8 10 10 13 11 10
20 17 15 13 13 9 11 20 26 22 25 23 27 24 22 24 27 32 27 22 34 43 47 47 41 44 34 34 32 32 30 24 26 23 25 22 24 21 20 20 15 12 11 10 9 8 7 5 7 6 4 3 3 4
24 20 16 13 11 9 20 20 21 20 23 24 22 25 25 25 27 28 28 31 34 37 41 33 32 37 28 24 21 19 23 23 24 24 22 19 18 15 10 7 6 7 9 12 12 9 10 9 7 5 7 8 8 7
22 21 19 15 12 19 21 19 22 14 20 19 17 19 23 25 26 26 28 30 31 38 43 39 34 28 25 23 23 24 22 20 16 14 14 15 19 15 12 11 10 12 12 13 12 10 8 9 9 9 9 9 10 10
17 15 18 18 23 26 25 21 18 16 16 16 14 15 19 15 18 23 27 28 32 35 33 27 18 17 16 12 13 13 13 12 9 5 4 4 7 5 4 4 6 10 14 16 17 14 11 14 17 17 16 16 13 12
11 11 9 13 21 23 20 19 18 16 15 14 12 13 14 16 18 21 22 27 29 25 21 20 18 11 4 3 6 7 8 7 2 2 4 2 2 3 3 7 9 14 18 20 22 23 20 15 17 20 20 21 21 18
10 9 9 11 15 12 13 13 15 15 9 2 4 5 7 13 15 16 20 17 16 14 14 13 12 13 9 4 3 6 11 11 8 7 9 10 9 8 8 13 15 15 15 17 18 18 19 19 23 25 19 20 24 25
9 7 10 9 8 9 11 16 14 13 8 11 18 6 3 5 13 15 15 14 16 16 15 10 8 8 11 13 17 17 14 10 9 10 12 13 13 14 16 17 19 19 17 19 23 24 24 23 26 28 23 20 24 29
5 6 4 10 9 9 6 10 13 17 12 13 17 13 10 5 7 14 13 12 13 14 9 8 10 13 16 21 25 27 28 24 17 11 14 19 22 21 19 20 23 25 25 24 26 27 25 20 17 19 23 22 21 27
9 10 5 5 8 10 12 14 14 14 10 14 15 10 6 6 8 9 12 10 8 11 13 11 11 14 19 24 30 31 26 24 25 21 16 17 20 22 24 21 19 22 27 26 22 21 20 18 15 16 17 18 18 20
13 11 15 15 14 13 12 10 9 10 4 8 10 8 6 4 8 11 12 10 13 12 12 11 14 19 23 29 33 30 25 22 22 23 23 21 23 25 26 26 28 29 27 24 20 19 18 17 15 15 15 15 17 19
16 12 16 14 12 12 14 15 12 11 11 9 8 6 7 5 13 21 20 19 15 10 12 19 22 27 29 29 25 23 21 16 13 16 21 22 22 25 28 29 25 20 18 19 19 19 18 15 13 14 15 15 15 16
10 13 17 20 14 10 14 16 11 14 16 16 14 14 13 14 17 25 24 24 24 21 19 21 23 25 28 26 23 22 18 14 14 13 14 14 13 13 13 14 14 13 13 14 15 17 18 18 19 19 19 17 16 15
8 5 8 11 13 14 16 14 15 12 11 15 18 21 22 20 22 25 22 26 28 31 31 29 24 26 27 25 24 23 20 18 17 15 14 14 15 14 13 12 11 9 10 12 13 15 16 17 17 16 14 12 10 11
7 6 8 11 14 18 17 14 17 17 19 19 21 21 23 25 25 23 27 32 32 35 32 27 28 29 27 24 25 24 23 21 18 17 16 16 15 14 13 13 12 10 10 11 13 13 13 13 12 11 10 9 9 10
8 6 6 8 12 14 14 12 13 17 17 16 16 17 20 21 22 28 29 30 35 37 30 28 29 30 27 24 23 21 20 18 18 16 16 16 16 15 14 13 11 10 10 12 13 13 13 13 12 10 9 9 9 9
3 3 9 9 11 10 12 13 14 14 15 14 15 16 19 21 21 28 32 32 37 39 32 30 31 30 27 22 22 21 21 20 18 17 17 16 15 14 14 14 12 10 10 12 13 13 13 12 11 10 9 9 9 10

GFSWCAN_700_spd_021.txt.gz
Wind_Speed
26 29 31 32 32 32 33 33 33 34 33 31 30 28 27 24 21 17 13 17 18 25 27 17 11 16 18 22 23 19 21 10 9 11 11 15 16 17 21 29 25 26 28 26 28 19 16 12 14 12 13 17 33 30
26 29 31 32 32 33 32 33 32 32 32 31 32 32 27 25 22 20 15 17 19 25 26 25 25 18 21 19 21 23 22 20 14 9 8 11 14 10 16 24 23 36 35 30 26 32 25 14 9 9 22 23 28 25
25 28 31 31 31 33 33 33 34 35 35 33 29 25 28 25 22 21 17 18 21 24 20 6 10 16 20 14 14 17 16 19 19 8 12 14 16 11 13 28 31 30 35 40 41 28 49 20 8 13 17 23 24 24
24 26 28 30 32 34 35 36 36 36 36 34 33 31 28 24 19 17 17 16 19 21 23 14 13 14 15 16 14 14 17 22 17 18 18 25 27 17 25 32 26 32 36 37 42 34 35 28 10 16 22 25 25 23
25 25 27 29 32 34 36 37 36 36 37 36 32 29 26 30 19 14 14 13 15 15 25 8 6 3 6 6 11 11 12 12 15 19 25 28 27 26 23 24 25 27 42 42 38 38 40 29 20 18 17 25 23 21
25 25 25 27 31 34 36 35 36 36 35 34 37 31 32 24 19 15 16 13 15 17 21 16 4 5 10 13 12 11 3 9 17 20 22 23 24 18 19 15 20 25 35 38 32 38 37 21 14 18 5 10 20 18
26 25 26 27 29 34 35 34 35 36 32 33 30 30 28 29 22 15 16 16 15 15 17 11 3 3 2 0 0 3 6 11 13 19 24 23 24 15 27 17 8 25 33 32 35 39 27 40 8 5 4 8 5 13
25 25 25 26 29 32 33 31 31 33 28 32 32 29 29 25 25 21 17 15 15 16 16 7 7 4 8 8 8 8 10 12 17 22 23 23 23 14 7 10 15 12 43 32 33 25 27 21 11 5 9 7 5 3
25 25 24 26 28 31 31 27 28 30 28 30 31 28 26 28 24 18 19 15 13 11 7 8 15 8 7 10 16 11 12 13 14 17 19 14 12 8 23 15 16 15 40 33 30 28 19 14 14 11 7 6 7 6
25 25 24 24 25 29 29 24 26 27 23 25 25 30 28 30 21 18 13 10 6 8 10 12 11 12 6 3 3 10 8 8 6 8 8 11 27 19 11 10 16 13 20 29 34 30 25 21 22 16 16 11 10 10
25 24 25 25 25 25 27 24 24 26 22 22 25 20 28 22 13 13 12 9 7 7 10 21 14 7 8 2 3 3 3 3 4 9 7 12 25 22 16 12 13 18 24 19 17 22 25 19 13 10 8 8 8 7
23 22 22 24 25 24 22 19 23 23 22 23 28 24 21 18 16 11 23 15 10 14 30 25 18 10 8 6 3 5 5 7 5 10 7 12 31 18 16 20 28 29 23 25 25 21 19 16 13 9 6 6 7 7
22 20 19 20 23 24 17 21 23 20 18 22 27 31 12 17 22 13 21 24 27 19 26 21 16 20 18 18 13 10 8 10 7 10 11 30 39 29 23 28 27 32 31 30 28 29 26 23 22 20 18 19 15 8
21 19 18 19 21 18 13 17 21 18 26 22 20 28 21 18 28 35 28 21 17 18 19 23 21 15 14 14 11 7 12 10 11 12 22 30 33 32 34 36 38 34 35 32 33 29 27 27 22 22 21 20 13 19
20 18 16 17 17 11 11 15 15 26 35 32 18 19 32 26 32 30 23 14 17 17 20 29 30 24 18 14 11 9 8 9 15 29 26 27 27 29 35 37 32 33 30 28 22 27 24 21 18 17 20 16 15 14
20 17 14 14 14 14 15 14 20 31 33 28 24 26 30 27 35 31 24 18 16 20 26 27 23 27 29 15 18 15 9 11 26 32 25 24 23 25 30 29 28 26 26 27 25 24 22 21 19 17 13 13 13 14
23 19 17 15 12 13 14 24 32 31 21 25 24 25 30 29 26 30 29 28 26 28 38 36 23 13 10 24 26 24 24 24 31 26 25 28 25 20 24 21 24 20 20 20 17 17 18 12 10 9 11 13 6 7
23 20 19 18 14 9 15 24 31 25 28 25 25 22 23 24 27 29 23 23 29 37 39 40 35 32 18 28 29 22 22 24 23 21 20 19 20 17 14 14 14 15 17 17 15 11 8 7 8 7 7 5 4 3
21 19 17 18 15 11 22 23 25 22 20 20 18 18 20 24 25 24 23 24 26 27 32 32 24 32 31 22 21 18 19 13 13 12 12 14 11 10 9 8 10 14 19 23 21 19 17 17 15 12 10 8 8 9
19 19 16 15 14 17 21 19 19 13 16 16 13 14 16 19 21 21 21 22 24 31 38 35 30 22 20 17 15 14 13 10 8 7 8 7 7 8 11 14 17 20 20 19 19 19 18 18 17 17 17 16 14 13
12 12 12 12 15 23 22 18 15 11 8 10 11 15 17 16 19 21 21 20 25 32 29 21 15 12 11 11 10 11 11 10 12 11 9 9 8 9 12 18 18 19 21 22 21 20 19 20 21 21 23 24 22 20
8 7 4 7 11 16 16 16 13 9 4 3 5 7 11 16 20 19 19 25 27 22 17 15 13 11 8 10 14 16 16 15 13 12 11 10 11 12 15 16 17 20 22 23 23 22 20 21 23 24 26 28 28 27
6 4 2 4 7 7 14 16 10 13 18 14 6 5 6 10 17 16 17 19 19 13 11 11 13 14 12 13 16 17 19 18 15 12 12 12 13 14 15 18 20 21 22 23 24 25 26 26 27 29 30 30 30 30
4 3 5 4 4 7 9 14 15 11 12 15 12 10 7 8 13 16 15 16 13 9 9 12 14 15 17 22 26 29 25 22 19 17 16 18 19 21 21 21 22 22 21 22 22 23 25 27 27 28 28 28 28 28
4 3 2 7 6 7 8 8 11 8 8 14 12 8 9 9 10 16 17 14 11 13 14 20 18 19 23 29 32 31 29 22 19 21 22 20 20 20 21 23 24 23 23 25 26 22 20 18 17 18 18 20 22 24
7 8 5 6 8 6 8 10 10 9 4 9 10 8 7 6 12 13 15 13 15 17 15 19 20 23 27 30 29 28 26 24 23 23 22 22 20 19 18 19 21 23 24 24 21 20 20 20 18 16 16 17 18 20
10 7 10 10 10 10 11 10 8 6 4 3 4 9 6 5 9 15 15 15 13 18 21 25 28 28 25 25 26 26 26 24 23 22 21 22 22 22 21 22 23 24 23 22 22 20 17 15 13 12 13 14 15 16
17 17 14 12 12 12 11 9 9 8 7 8 9 8 8 8 15 18 17 20 22 22 25 29 30 27 26 25 25 25 25 23 21 21 22 22 21 20 20 20 20 20 21 20 18 17 16 17 16 16 16 16 15 15
8 7 9 11 13 11 10 11 8 9 9 11 13 14 15 19 21 24 25 27 28 24 25 32 28 28 27 25 22 23 23 22 21 19 16 14 13 15 15 15 15 15 15 15 15 15 17 19 19 18 17 15 13 13
9 6 4 8 11 11 12 6 8 9 10 9 12 15 18 18 21 26 28 27 25 23 30 30 28 28 26 24 22 22 21 20 19 19 16 15 14 14 13 12 12 14 14 13 13 13 15 16 14 13 12 11 11 11
6 6 7 9 11 11 12 14 11 12 13 15 13 13 17 19 23 26 27 27 27 29 31 27 25 29 29 27 25 22 20 19 18 18 18 18 17 16 15 14 13 12 11 11 11 11 11 12 12 11 10 10 10 9
7 7 7 12 12 12 13 15 16 16 13 18 15 17 18 20 22 27 27 28 29 31 31 27 27 28 29 28 25 22 21 18 16 16 15 15 15 15 15 15 13 12 11 11 11 10 10 11 11 10 9 8 8 8
6 6 9 14 12 13 12 14 16 15 17 18 13 15 16 19 21 24 27 29 32 33 30 28 28 29 31 29 24 21 20 18 16 17 17 16 16 15 14 13 14 13 12 12 11 10 10 9 9 9 8 8 8 9

GFSWCAN_700_spd_024.txt.gz
Wind_Speed
22 26 28 30 32 35 35 36 37 38 37 36 34 33 27 26 23 23 20 21 21 28 24 10 22 26 23 22 22 23 20 10 7 9 9 12 15 13 17 26 27 19 15 24 32 17 22 11 31 26 24 26 30 21
24 26 29 31 31 33 34 36 38 39 39 39 37 31 29 27 26 22 19 19 25 29 27 24 15 16 20 19 20 21 19 16 11 9 9 7 13 23 21 24 23 32 33 22 24 32 8 18 21 22 28 22 26 38
26 27 28 31 29 31 33 36 37 40 40 40 38 37 30 24 25 20 19 18 23 27 21 11 17 18 17 14 16 14 10 10 13 15 21 22 16 15 19 15 18 27 26 30 34 40 41 39 35 27 23 19 21 26
27 28 28 30 29 32 34 36 37 38 40 42 42 37 36 34 18 20 15 16 20 25 24 15 11 9 9 8 7 7 8 13 15 18 19 23 24 18 22 24 32 29 32 30 39 32 29 39 45 36 19 19 18 24
27 28 29 30 30 30 33 36 36 36 38 41 40 38 34 32 24 15 13 14 14 17 24 21 6 6 3 1 3 6 8 10 15 20 20 23 28 31 34 32 36 21 31 33 42 38 30 29 44 36 22 28 20 19
27 27 28 29 30 30 32 35 35 33 36 38 40 38 37 29 24 16 10 10 11 14 20 23 11 3 8 9 10 9 11 13 14 21 27 30 28 28 23 35 43 29 17 25 43 26 35 35 37 34 26 31 26 22
28 27 27 29 30 31 31 33 32 31 36 35 36 34 32 28 26 19 15 17 16 16 18 17 10 6 3 2 5 5 6 9 13 22 30 32 32 30 40 47 18 21 23 30 36 30 37 31 32 33 27 34 28 26
30 28 26 27 28 31 31 32 32 29 33 35 34 32 26 23 33 28 24 21 12 13 14 7 11 9 6 10 8 9 11 15 22 26 29 29 33 26 30 31 28 16 28 27 38 27 37 25 26 32 37 29 18 20
30 28 24 23 25 29 32 33 31 28 31 30 30 23 22 24 34 32 25 13 10 8 7 8 16 11 11 8 11 15 19 20 19 21 24 17 19 8 30 26 18 15 29 25 36 25 25 25 20 17 23 21 19 18
29 27 23 20 21 27 32 31 27 23 21 25 19 23 23 29 23 23 14 13 11 9 10 19 13 11 10 7 8 9 8 7 6 11 17 13 28 25 23 23 29 19 20 30 32 27 36 23 15 11 11 16 13 5
27 25 21 19 20 23 25 26 24 19 19 22 19 20 18 15 13 14 13 10 11 9 16 23 13 12 13 10 9 8 9 9 9 12 13 22 40 31 26 20 20 16 22 33 26 19 25 24 19 16 15 14 13 11
25 23 19 19 21 21 18 28 24 21 18 28 21 13 15 15 11 13 17 12 11 18 31 24 20 19 21 16 10 12 9 12 7 20 11 31 32 34 33 27 26 21 19 25 23 21 18 21 20 16 14 12 10 9
23 21 19 18 19 18 17 21 23 16 14 23 31 22 11 15 17 15 25 26 22 24 22 18 14 15 14 13 11 14 12 12 14 18 15 34 40 44 33 30 31 29 33 33 29 25 27 26 21 14 10 6 7 5
22 19 17 17 17 15 18 18 14 14 28 23 28 22 16 16 21 22 22 21 21 15 19 25 19 13 11 10 10 7 15 11 13 17 30 34 43 45 46 45 41 42 36 36 36 30 31 31 28 23 24 20 18 20
20 18 16 15 16 18 16 11 13 23 39 29 18 17 31 29 27 19 19 20 15 17 21 29 33 24 19 15 12 10 9 12 18 28 27 31 31 36 38 37 39 41 38 36 40 37 35 24 28 24 23 21 22 21
20 18 14 13 17 18 13 16 20 30 39 34 31 31 31 26 26 21 15 16 17 15 25 22 19 25 32 18 20 19 15 17 27 22 26 29 32 36 32 32 33 30 29 28 29 25 24 24 23 20 21 21 18 17
18 19 14 12 17 13 15 17 23 32 30 27 29 27 29 30 26 26 22 18 8 11 27 26 16 11 8 19 19 23 29 25 24 22 23 23 23 24 25 24 24 25 20 16 15 16 17 15 11 10 12 12 9 10
18 17 15 13 13 9 13 17 26 26 29 25 25 25 27 26 26 27 21 18 22 27 32 40 32 36 23 29 29 22 18 17 15 15 16 16 17 20 20 22 23 26 27 27 24 23 20 16 12 14 12 11 10 9
18 15 15 13 9 8 18 21 23 22 19 19 18 20 21 23 22 21 20 20 16 19 27 26 17 32 28 25 23 22 18 16 14 16 18 15 17 17 19 22 24 22 23 23 20 19 18 18 17 15 14 12 11 10
13 12 13 13 8 10 13 12 14 10 12 13 14 16 21 23 22 22 20 19 16 20 31 30 24 18 16 15 15 15 16 16 17 15 14 16 14 15 15 18 17 17 19 19 19 18 18 18 16 16 16 14 14 14
8 7 9 12 12 14 14 13 12 9 6 6 12 14 17 21 23 23 24 23 21 26 24 20 16 16 16 16 16 17 16 15 16 16 15 13 13 15 16 18 20 22 23 25 24 23 22 21 21 22 23 23 23 22
7 6 4 4 7 14 12 13 13 16 12 9 7 8 11 17 23 24 22 24 26 22 19 16 14 15 14 17 22 22 18 14 12 12 12 12 13 16 18 20 21 23 24 24 24 25 24 24 24 24 23 22 21 20
6 4 3 2 4 4 9 12 9 11 14 15 10 8 8 11 16 22 23 21 18 18 18 19 19 18 21 24 27 23 18 13 10 10 11 13 16 17 19 20 21 22 24 26 26 26 25 24 23 21 20 20 19 19
3 2 2 2 2 2 3 7 8 9 11 16 11 10 11 13 17 17 21 17 14 15 17 18 19 19 21 22 24 24 23 22 20 17 14 13 14 14 14 15 16 18 19 21 23 23 21 19 18 18 18 18 18 18
2 1 1 3 2 2 2 4 6 6 6 12 12 10 12 11 14 12 20 18 15 14 14 17 17 19 22 23 24 25 24 23 22 20 19 18 18 19 19 18 18 18 18 18 17 15 14 14 14 14 15 17 18 19
3 5 2 1 3 3 3 4 5 6 6 8 9 11 12 10 9 12 17 15 15 15 18 20 22 22 21 20 21 23 24 24 24 22 21 20 19 17 18 18 19 20 19 18 16 15 13 12 12 12 12 13 15 16
4 3 5 5 5 6 6 6 7 6 6 6 7 8 7 7 6 12 14 14 15 18 22 23 22 23 25 23 23 24 25 26 26 25 23 22 21 20 19 19 19 19 19 18 17 15 14 13 15 15 16 15 15 14
10 10 8 8 9 10 9 7 5 5 5 5 6 7 8 10 14 17 18 20 20 21 24 28 26 26 27 25 24 23 22 22 22 23 24 22 20 19 21 22 22 21 19 18 17 15 15 16 18 17 15 13 12 12
4 4 4 6 9 11 11 9 8 6 6 4 7 8 8 12 18 21 23 24 24 20 20 26 28 27 27 26 25 24 22 20 19 18 17 16 17 17 18 17 17 17 17 17 15 15 15 16 15 15 14 13 12 12
6 7 5 6 8 8 10 12 10 8 9 9 9 10 12 13 15 19 23 25 25 23 23 26 25 26 26 27 25 22 21 21 20 19 19 18 16 15 14 14 14 13 12 11 11 11 12 13 15 15 14 12 10 9
8 7 8 10 12 11 12 15 14 13 12 11 13 13 14 14 15 15 20 24 25 25 25 25 24 25 26 26 23 20 19 18 17 18 19 19 19 17 15 14 13 11 10 10 10 10 10 12 13 12 11 10 9 9
8 11 13 12 15 14 15 15 15 17 19 15 16 16 18 18 19 18 20 24 26 26 25 25 24 24 25 24 21 19 17 16 15 15 17 17 17 17 16 16 14 13 12 12 12 12 12 12 11 11 10 10 9 10
14 14 11 12 14 16 16 16 17 21 16 16 15 17 18 18 20 20 21 24 27 27 25 24 23 23 23 23 21 19 18 15 13 14 16 16 17 16 15 15 15 14 14 13 12 12 11 11 11 10 10 10 11 11

GFSWCAN_700_spd_027.txt.gz
Wind_Speed
29 29 29 29 30 31 33 35 36 37 38 40 41 41 39 33 26 21 24 20 23 25 15 17 21 24 22 21 19 16 18 8 6 7 6 7 8 9 12 14 12 15 13 18 24 21 27 21 31 28 15 14 12 12
30 30 29 29 30 31 34 35 37 37 39 39 40 43 41 33 30 22 24 20 21 26 24 13 14 17 17 13 15 19 17 10 7 7 8 7 9 10 11 13 13 24 30 20 21 25 13 17 32 28 35 40 31 20
30 31 30 29 29 31 34 35 36 37 38 38 40 43 43 35 33 18 20 18 19 24 15 11 16 19 17 11 14 12 6 7 11 10 16 15 17 18 14 17 18 18 20 31 35 43 33 34 25 28 34 32 27 34
29 30 32 30 29 31 34 35 35 36 37 38 40 43 44 36 27 15 15 13 15 21 20 13 8 10 8 8 6 5 9 9 9 10 14 20 23 19 26 26 26 23 21 24 32 38 41 39 39 28 27 27 27 20
29 30 31 32 30 31 33 34 35 37 37 38 39 41 39 34 29 16 8 10 10 16 23 21 9 11 7 5 5 7 6 9 11 16 18 23 25 28 33 34 42 34 32 34 43 33 38 37 33 40 38 32 27 17
30 30 30 31 30 29 31 33 35 37 36 35 36 35 35 32 29 18 11 9 9 10 16 20 10 9 8 11 9 9 10 16 20 23 26 31 30 31 28 40 47 39 33 30 37 31 33 36 39 26 29 34 28 25
30 31 30 30 29 27 29 32 34 34 32 32 32 31 23 29 33 28 18 13 10 11 13 11 7 12 6 3 7 8 11 13 15 23 32 35 35 38 49 55 27 33 35 25 25 24 29 31 33 27 23 29 30 30
31 31 28 27 25 26 27 30 28 29 29 27 30 27 19 24 24 27 18 15 14 13 10 10 12 12 12 11 13 15 17 18 24 29 34 37 38 32 36 39 38 40 15 20 24 25 22 23 28 26 26 29 24 26
29 28 25 22 22 25 26 24 26 25 27 27 25 18 19 26 22 20 18 16 16 16 10 15 19 12 19 14 14 13 18 20 16 21 24 19 22 11 44 35 34 14 13 15 16 21 21 25 35 20 32 28 31 28
27 25 22 20 20 23 22 23 22 24 24 25 18 15 18 18 24 20 17 20 16 17 17 24 19 17 18 18 16 14 10 10 10 15 25 18 33 35 24 26 19 21 20 15 11 19 23 21 22 40 33 26 24 26
25 24 20 19 21 19 16 20 25 23 22 19 17 19 13 15 20 16 18 11 14 10 28 30 28 26 27 24 18 17 12 12 13 23 22 36 56 43 32 26 33 23 16 12 8 22 25 22 24 26 24 22 22 23
25 21 19 19 18 15 17 18 24 20 21 13 12 7 17 14 11 12 15 14 13 18 29 23 24 24 24 21 17 18 13 14 11 29 24 34 54 48 54 32 40 31 25 29 30 34 32 27 18 14 20 22 22 21
22 20 19 18 18 19 18 19 18 12 21 33 28 10 8 13 17 17 20 24 21 24 22 20 19 19 17 16 12 13 13 11 15 20 16 40 52 52 53 54 50 46 43 33 26 27 24 25 21 22 25 23 23 23
22 20 17 19 21 18 17 19 18 21 25 21 26 25 15 11 13 21 21 19 18 20 21 20 26 26 19 14 12 7 13 12 15 20 31 36 46 47 47 45 46 46 45 42 42 34 35 34 33 35 33 34 34 34
21 18 16 17 18 16 16 17 22 30 41 34 18 16 30 27 22 18 17 17 12 15 21 25 28 26 18 16 13 11 9 10 14 30 30 37 39 42 43 37 36 37 39 43 38 38 35 33 35 30 31 29 30 28
19 17 14 16 17 15 11 12 20 29 41 39 30 29 30 28 24 23 18 8 6 5 13 20 11 17 30 12 13 15 11 11 20 25 28 32 33 33 36 38 37 33 33 31 28 26 25 28 27 26 23 23 21 18
16 17 14 14 14 11 8 13 23 29 30 27 28 27 26 28 27 24 24 20 10 4 8 11 10 10 7 21 21 19 15 15 15 20 23 25 25 26 28 27 27 27 27 29 28 26 21 17 13 9 8 14 17 15
13 16 16 13 12 11 13 17 23 23 27 24 25 25 25 25 25 24 23 14 9 9 15 28 25 29 13 23 27 28 27 24 18 18 20 17 20 19 22 23 23 23 23 22 22 20 18 17 17 18 17 16 11 8
12 15 15 11 10 12 12 17 17 18 19 18 17 21 24 24 25 24 19 15 12 9 8 13 13 25 22 18 17 16 16 17 17 17 15 15 13 16 19 21 17 17 21 22 22 22 20 17 15 12 11 9 9 10
9 10 12 13 13 13 12 15 14 12 11 13 14 17 21 24 25 25 21 16 11 12 23 25 20 16 16 17 18 18 16 14 12 12 11 10 10 14 16 18 21 22 22 21 19 18 18 17 15 13 11 10 9 7
8 7 8 10 13 15 12 13 14 14 12 11 11 12 14 19 24 25 22 19 21 27 23 19 16 14 15 17 19 19 16 12 9 7 7 9 13 15 17 19 19 19 19 20 21 20 19 16 14 12 11 10 10 9
8 7 5 7 8 9 12 10 11 12 15 13 9 8 12 17 22 24 20 20 21 19 18 16 14 13 16 18 19 17 14 13 13 13 13 13 15 17 18 19 20 21 21 21 21 19 18 16 13 9 7 7 7 8
7 6 4 5 5 7 6 11 10 11 14 13 11 11 13 17 21 21 21 18 16 17 14 14 14 16 17 20 22 19 15 13 12 11 11 13 15 16 17 17 18 18 19 18 17 16 15 14 13 12 11 11 12 12
4 3 4 4 5 5 7 8 9 10 9 13 12 11 16 15 16 19 21 17 13 14 14 15 15 16 17 18 20 20 18 17 16 14 11 10 11 12 13 14 16 16 16 16 16 15 13 11 11 11 12 13 14 14
4 2 2 3 3 5 6 8 8 8 8 10 11 12 14 15 14 14 18 15 12 12 14 15 17 18 19 20 21 22 20 18 16 14 13 13 14 13 13 12 12 11 11 11 10 10 10 10 10 11 12 12 11 11
3 3 2 3 5 6 6 7 7 8 9 9 10 11 12 11 9 11 16 15 13 12 16 19 20 21 23 23 23 22 22 21 19 18 16 14 12 11 11 12 12 13 12 10 9 8 7 7 9 11 13 14 14 13
5 4 6 7 8 9 9 8 8 7 7 6 8 9 8 7 6 12 15 17 16 16 18 20 23 25 25 25 24 22 22 22 21 20 19 18 16 14 14 13 13 12 11 10 9 8 7 9 10 11 11 10 8 7
5 6 6 7 9 10 9 9 8 6 7 7 8 8 6 8 12 15 18 21 23 22 21 22 24 26 27 27 26 24 22 21 21 21 20 19 18 17 17 17 16 15 13 11 9 9 9 10 10 10 10 9 8 7
6 7 5 6 9 11 12 13 12 11 11 12 13 13 13 11 11 13 15 19 23 24 24 23 25 27 27 27 27 25 21 19 18 18 17 17 16 16 15 15 14 13 11 10 9 9 10 10 11 12 12 10 9 7
6 6 7 9 11 13 14 15 14 14 14 14 15 15 14 13 14 12 15 17 21 24 25 25 26 27 27 27 27 24 21 19 17 16 16 17 16 15 14 13 13 12 11 10 10 10 11 12 12 13 12 11 9 8
10 10 11 12 13 13 15 17 18 18 17 17 16 16 18 17 17 17 20 15 20 24 27 26 26 26 26 26 25 22 20 18 16 15 16 16 16 15 15 14 13 12 11 11 11 11 12 11 11 11 10 9 8 8
8 9 13 15 12 13 17 17 16 18 20 17 15 15 18 20 20 19 21 18 20 25 28 27 26 25 25 24 22 19 18 16 15 14 15 15 16 16 16 15 14 12 12 11 11 11 11 11 10 10 9 9 9 9
14 12 13 11 13 16 18 18 19 21 21 16 14 16 16 19 20 19 19 19 21 27 27 26 24 23 23 22 20 18 16 15 14 13 14 15 16 15 15 15 15 15 15 14 13 12 12 11 11 11 11 11 11 11

GFSWCAN_700_spd_030.txt.gz
Wind_Speed
27 29 29 29 31 32 33 33 34 34 34 37 39 41 39 39 38 25 19 17 20 24 22 17 19 17 12 14 13 10 10 6 8 9 7 8 11 11 17 18 16 17 22 26 28 29 30 19 19 17 11 8 9 11
28 29 30 31 31 31 32 33 33 33 34 37 39 40 37 40 36 26 19 15 17 23 20 15 10 14 13 9 10 15 12 9 8 6 7 7 8 8 13 17 18 27 26 24 24 31 21 15 27 26 27 25 21 25
29 31 32 32 32 32 31 31 31 33 35 38 38 35 37 33 28 21 15 12 18 22 21 8 8 14 13 9 9 13 7 10 14 11 15 13 14 12 16 19 22 25 24 29 31 38 34 25 27 40 32 34 33 29
29 30 32 32 31 30 30 29 31 33 35 36 34 33 32 26 30 17 11 8 11 18 22 11 17 14 12 9 7 7 10 13 12 12 16 17 18 12 19 21 25 24 22 28 35 36 33 34 33 32 35 35 40 46
28 30 33 32 30 28 28 28 30 32 33 32 30 29 27 22 28 16 12 9 10 10 19 16 7 4 8 7 7 9 11 14 17 19 21 26 26 26 30 29 40 30 36 39 41 29 29 30 28 33 36 36 35 37
29 32 32 30 28 26 26 27 29 29 30 28 27 26 22 22 22 19 17 16 14 12 13 9 9 10 6 9 10 6 8 15 19 23 29 34 30 30 28 44 43 34 36 36 40 34 34 31 30 32 29 44 38 34
29 30 29 28 25 25 25 26 24 27 28 26 27 20 19 20 18 20 18 19 17 13 13 8 7 15 16 11 13 11 12 16 16 22 31 37 38 38 47 55 40 35 37 39 39 35 37 38 40 31 28 34 39 36
29 28 27 26 23 24 25 22 25 27 25 25 22 12 18 17 16 16 15 21 23 16 13 15 11 14 24 18 15 16 14 17 20 23 28 29 27 26 22 44 32 22 17 21 26 33 36 27 25 25 26 29 30 29
29 27 26 23 22 22 22 22 25 26 23 22 16 11 16 15 15 14 12 12 27 29 20 31 27 16 26 25 18 16 14 13 13 23 26 20 19 22 48 44 20 15 11 2 24 25 25 23 22 19 23 24 26 28
29 26 23 20 20 19 19 21 24 22 23 15 15 17 16 16 15 16 17 19 13 29 32 37 34 31 28 29 27 15 14 22 17 30 22 22 43 53 62 38 22 20 27 23 21 12 13 21 16 20 18 28 22 26
26 23 20 19 18 19 19 20 19 22 14 13 19 16 10 10 19 16 16 12 18 14 28 29 30 29 28 26 25 20 16 8 18 31 30 42 52 62 64 46 29 33 18 15 15 15 11 10 16 14 14 31 26 30
23 19 18 20 19 18 18 18 17 18 11 13 11 12 19 18 11 12 13 12 11 14 25 22 23 24 27 29 19 17 17 14 12 27 26 41 52 51 61 55 59 47 31 34 18 27 29 34 30 23 32 30 23 23
19 16 19 21 17 14 17 22 15 4 21 24 24 13 8 12 18 15 21 18 13 20 22 20 15 17 15 15 15 14 14 15 19 22 17 41 44 47 48 52 53 54 55 51 49 37 26 25 26 28 31 29 26 25
16 16 18 18 13 15 18 15 9 14 10 22 27 23 14 11 16 17 17 14 12 15 21 20 18 19 15 12 10 6 14 11 16 14 30 37 42 44 44 44 46 49 50 49 47 45 48 45 41 37 31 32 36 39
14 14 15 13 14 12 15 16 17 20 25 18 12 12 20 21 18 19 14 11 8 9 11 12 16 14 11 11 11 9 8 9 14 22 26 31 34 34 35 39 40 40 41 42 39 38 40 39 37 36 35 35 34 30
13 13 13 15 15 13 16 7 14 21 32 31 22 21 22 18 20 20 23 16 3 2 5 10 5 10 16 10 11 14 5 7 10 12 18 21 24 28 29 30 30 31 33 34 34 31 28 27 25 24 23 25 25 22
12 13 12 13 14 14 14 8 16 25 28 18 16 21 24 24 22 20 15 14 17 13 9 4 7 6 5 9 13 19 21 16 14 16 13 14 17 20 23 22 22 23 23 24 25 23 22 21 17 14 14 12 10 8
12 13 11 11 12 10 12 12 14 16 23 21 19 21 23 24 21 20 18 16 15 10 8 13 11 14 7 8 11 13 13 11 12 11 11 11 14 16 18 17 14 21 21 18 18 16 14 12 11 11 11 10 9 6
9 11 13 14 14 12 13 17 15 14 14 13 15 16 21 23 23 22 20 17 13 9 3 9 8 11 10 9 10 10 11 10 8 8 9 9 11 13 18 20 20 19 19 19 18 16 14 12 10 9 7 5 5 4
9 8 9 11 15 14 11 14 14 12 8 8 11 12 17 20 22 21 19 16 13 13 15 11 9 7 8 12 15 15 14 12 9 5 10 13 13 17 20 21 22 23 21 19 18 15 13 11 9 8 6 5 5 6
8 9 7 7 9 12 12 10 11 12 9 10 9 12 10 12 15 20 17 15 17 16 14 10 8 10 13 15 16 16 15 13 11 11 14 15 16 15 18 20 20 20 17 16 15 12 10 9 8 7 7 7 7 7
6 7 6 7 7 7 10 12 9 10 11 10 9 9 7 8 10 18 15 12 13 12 11 10 12 13 12 16 15 14 15 15 15 15 15 14 12 14 16 17 17 16 18 16 13 11 9 6 5 6 7 7 8 9
4 5 5 5 5 6 6 10 10 11 10 11 9 8 10 8 14 18 10 11 12 15 16 16 16 16 17 19 19 18 16 15 15 15 15 14 14 15 13 15 15 15 14 14 11 10 8 8 7 6 5 5 7 8
5 3 3 4 5 5 8 10 11 11 8 10 11 9 11 12 13 11 10 9 14 12 12 16 17 14 15 20 16 21 19 17 16 16 15 14 13 13 15 13 12 12 12 10 8 8 7 8 7 7 8 9 9 7
3 2 2 3 4 7 8 9 9 9 8 9 10 10 13 12 8 8 11 11 12 11 12 15 17 18 15 15 19 23 22 19 17 15 15 14 13 12 10 10 10 11 9 6 6 6 6 6 7 8 9 9 9 9
3 4 3 4 6 7 8 8 8 9 8 8 8 11 12 10 7 6 11 16 15 14 14 15 17 16 14 23 23 23 23 21 19 17 16 14 12 11 10 9 7 8 9 7 5 5 7 8 10 11 11 13 10 7
6 5 5 6 7 8 9 9 9 8 9 8 9 11 10 5 4 9 14 16 19 22 24 24 23 23 25 27 28 28 26 22 19 17 15 13 11 10 9 9 8 9 7 6 5 5 5 7 8 8 8 8 9 8
5 5 5 6 8 10 11 12 13 11 11 12 14 12 10 8 10 12 17 16 19 21 25 28 28 28 28 29 28 29 28 26 25 20 17 15 14 13 12 11 11 9 8 7 6 5 6 6 6 7 7 7 7 6
3 4 4 6 8 10 11 13 12 12 15 16 14 11 13 19 18 19 23 16 16 17 21 23 27 30 30 31 29 28 25 21 20 18 15 12 12 14 13 12 11 10 8 7 8 6 6 6 7 8 7 6 5 4
8 8 9 10 11 11 11 14 14 14 14 15 16 16 15 17 18 19 20 20 26 21 18 23 26 27 29 29 28 30 26 20 17 14 13 13 13 14 13 12 11 10 8 7 6 9 8 8 8 8 8 6 5 4
7 7 7 9 14 11 11 14 15 14 15 17 15 12 14 16 17 18 17 17 17 17 20 27 27 28 27 28 27 25 15 22 18 14 12 13 14 14 13 13 12 11 9 8 7 7 8 7 7 7 6 5 5 5
9 12 11 12 11 11 13 17 17 15 18 18 12 13 15 16 17 19 19 19 20 22 25 25 25 28 27 27 25 22 17 15 15 14 13 13 13 13 13 13 13 13 12 11 10 10 9 8 8 7 7 7 7 8
17 8 6 10 12 13 17 16 16 18 19 14 10 14 17 16 16 19 18 19 21 25 25 25 25 24 24 23 21 19 17 15 14 13 13 13 13 14 15 15 14 13 13 13 11 10 9 9 8 8 8 8 9 9

GFSWCAN_700_spd_033.txt.gz
Wind_Speed
26 27 29 31 32 32 32 32 30 30 31 33 36 35 30 32 31 28 24 17 17 20 20 14 16 14 14 11 14 11 10 4 7 8 7 6 10 7 17 18 16 18 26 29 27 29 26 14 6 15 16 15 10 13
27 28 29 30 32 33 32 30 28 28 30 33 34 29 30 31 25 24 20 15 13 18 19 20 19 12 11 7 12 15 9 3 4 4 6 7 9 8 12 17 22 26 22 22 29 30 19 22 22 20 10 13 11 7
27 29 30 32 33 33 30 27 26 27 30 30 28 27 29 27 21 22 14 11 11 17 20 10 13 10 13 10 9 11 8 7 15 11 12 10 11 11 15 18 18 19 22 30 28 30 26 24 24 24 22 20 19 16
27 30 31 33 32 31 27 25 27 29 28 27 28 26 24 20 19 16 13 11 11 15 15 15 13 10 11 11 9 10 9 11 11 11 14 17 14 10 16 20 24 22 22 25 35 35 31 31 30 29 29 34 30 32
27 30 31 31 29 27 24 25 27 26 27 26 27 23 17 19 17 14 13 15 15 13 16 9 11 7 8 12 9 11 10 10 15 17 19 23 23 24 25 25 31 26 30 34 37 27 31 31 30 30 33 37 46 39
27 30 30 28 27 24 24 25 25 26 27 24 24 13 16 15 16 17 20 22 19 17 18 8 14 15 15 14 10 10 11 14 17 20 22 29 29 27 22 35 28 30 32 43 47 40 39 35 29 26 28 28 33 53
27 29 29 26 24 23 24 23 23 27 25 21 17 9 14 13 12 21 21 21 22 20 20 10 12 25 27 21 17 13 11 15 17 21 23 29 32 30 37 41 50 39 35 28 37 50 50 47 36 34 27 30 34 43
28 28 26 24 23 22 21 22 26 25 22 17 12 9 13 12 9 12 24 30 28 22 28 29 19 30 31 26 24 23 23 23 24 16 20 21 18 13 20 49 28 24 24 25 30 44 52 46 44 37 38 30 28 30
26 25 23 23 22 21 21 23 24 23 13 15 9 11 16 16 12 12 9 18 32 36 29 34 32 21 20 20 18 25 22 13 31 36 32 22 29 24 47 47 33 15 19 17 10 28 39 44 43 40 37 33 27 25
23 21 22 23 21 20 21 20 21 17 13 13 9 17 20 18 12 15 19 14 15 31 28 28 22 22 21 23 21 15 7 25 21 27 26 37 49 52 50 51 38 15 22 28 19 11 9 15 21 20 19 20 23 19
20 19 21 21 17 18 19 16 20 20 11 8 18 18 17 12 17 16 12 12 15 15 19 21 21 19 19 22 20 13 13 9 16 23 22 36 48 54 57 56 47 33 21 12 9 13 13 13 12 17 10 12 25 23
17 17 18 17 18 22 25 23 13 17 14 11 10 13 21 20 13 11 11 10 10 12 22 23 25 17 18 18 15 12 12 11 11 17 18 32 40 47 53 55 52 49 40 50 52 40 34 21 16 25 26 21 25 27
14 14 15 16 17 20 25 24 14 7 13 14 14 10 8 12 16 13 17 15 17 18 23 21 18 17 16 15 11 9 8 10 11 20 10 32 34 39 46 49 50 49 45 44 50 47 44 34 25 27 25 33 34 33
12 12 13 14 14 18 22 25 14 4 5 11 16 18 11 10 14 19 21 17 16 16 14 16 14 13 15 8 7 6 8 6 8 12 20 25 28 31 34 36 41 43 43 42 43 42 44 47 40 38 39 37 26 25
12 10 11 11 11 15 16 16 17 7 10 11 9 11 14 13 16 15 14 14 14 12 13 11 7 11 9 7 8 7 6 6 8 13 16 17 22 24 27 28 31 34 33 34 34 35 34 33 34 33 34 37 36 35
12 11 9 9 10 15 14 11 9 10 20 15 11 10 10 12 13 14 15 16 16 16 11 9 8 4 9 6 9 13 6 8 14 11 12 14 18 21 23 20 26 29 27 24 23 24 25 25 22 20 20 21 21 20
12 11 9 11 14 14 13 8 7 14 15 11 10 11 12 12 14 16 16 15 13 14 10 6 7 6 4 5 7 11 14 14 12 13 16 14 16 17 20 21 24 22 21 21 20 18 16 15 13 13 14 14 12 9
9 10 10 12 11 11 14 10 7 9 9 7 8 11 13 13 14 16 17 15 14 11 11 9 8 11 5 7 9 10 11 13 15 12 14 17 19 20 21 23 23 22 20 17 16 16 13 11 12 13 10 9 8 7
8 8 8 11 11 10 9 14 10 5 5 5 6 9 11 13 14 14 15 16 13 12 8 8 6 9 7 6 7 9 10 9 11 17 13 17 16 19 24 19 19 20 19 19 16 14 14 14 12 9 8 7 7 6
8 8 7 7 10 11 7 9 10 6 3 3 9 6 8 10 13 13 14 15 13 13 13 11 8 6 6 8 9 9 11 11 9 9 11 11 14 15 18 18 18 18 16 16 15 13 12 11 11 11 9 10 11 10
6 8 7 7 7 9 7 5 6 6 3 5 7 9 10 8 11 10 10 11 11 11 10 8 7 8 11 14 14 13 13 14 11 10 12 11 11 11 13 14 15 14 15 14 13 13 11 11 11 11 12 11 12 10
4 6 6 5 5 5 6 9 3 6 4 5 5 6 6 7 8 10 7 9 9 8 10 8 11 10 8 15 14 14 17 17 13 13 15 11 10 11 10 12 12 12 12 12 11 11 11 10 7 11 10 9 10 15
3 3 4 4 4 5 5 9 5 6 2 5 6 6 7 8 9 11 7 8 9 11 12 13 17 15 18 20 22 18 22 19 11 11 13 11 8 9 12 10 9 10 8 10 10 9 10 11 9 8 10 11 9 9
4 2 2 3 4 5 7 4 6 5 5 6 6 7 7 6 7 5 7 7 7 7 10 19 15 9 11 17 13 14 20 20 13 11 12 13 9 8 9 9 9 9 8 6 8 7 8 9 10 9 11 8 8 9
2 2 1 3 4 4 4 4 5 5 5 7 7 7 8 10 5 6 6 7 6 6 7 10 9 11 11 11 13 13 23 24 17 12 12 15 11 7 6 7 7 9 9 6 5 7 8 7 9 9 9 10 7 7
2 4 2 2 3 3 4 4 6 7 8 7 7 9 10 9 8 7 8 7 7 6 7 10 13 12 11 14 16 19 23 22 18 11 14 15 12 9 7 6 4 8 14 7 7 6 6 8 9 9 8 14 12 8
4 2 3 4 4 5 6 7 8 7 7 7 10 11 10 8 7 8 9 11 8 8 13 21 18 17 22 16 23 25 25 25 20 16 14 12 11 10 9 8 8 10 8 3 2 3 5 6 6 6 6 6 7 7
2 3 2 4 4 6 8 7 8 7 8 10 12 13 6 7 11 12 11 17 23 21 23 17 19 21 22 22 25 18 18 14 16 15 11 13 13 12 13 10 11 9 7 7 6 5 2 3 4 4 5 6 7 11
3 4 5 6 6 8 9 5 9 9 9 13 15 15 14 13 14 13 18 15 18 18 20 11 15 25 26 22 24 21 23 12 8 10 9 6 8 9 11 10 8 8 6 12 12 8 9 8 8 7 6 5 8 6
5 6 9 9 9 10 18 9 12 13 15 14 14 14 12 10 15 17 18 18 17 22 23 23 20 17 13 13 12 14 15 15 11 9 6 6 7 8 9 9 8 7 5 2 5 13 12 7 7 5 6 4 4 3
6 8 7 9 11 12 9 12 15 16 12 12 12 9 9 12 17 15 15 17 18 25 22 13 11 11 11 13 16 14 7 10 17 16 9 5 8 11 11 11 9 9 8 8 6 6 7 7 6 6 5 5 5 5
8 9 14 12 10 13 15 10 12 11 11 11 10 10 13 12 14 16 19 19 23 14 17 13 9 13 20 13 12 15 15 7 7 7 9 9 11 12 12 11 10 11 10 9 8 8 8 8 7 7 7 7 7 8
9 9 7 7 7 10 10 13 13 11 10 8 8 11 12 14 16 20 20 22 22 15 11 12 18 22 21 18 16 14 12 11 10 9 8 10 11 12 12 11 12 12 11 11 10 10 9 7 7 8 8 8 8 8

GFSWCAN_700_spd_036.txt.gz
Wind_Speed
24 26 27 28 30 31 32 30 28 27 26 27 27 27 28 30 30 30 26 19 20 25 24 13 17 18 12 10 13 14 12 11 7 7 6 6 8 7 8 9 4 21 23 22 21 22 18 14 4 8 7 12 14 18
25 26 28 29 30 30 29 27 25 25 26 25 26 29 29 28 25 24 23 15 18 19 20 20 16 14 11 5 9 9 12 9 8 10 11 7 14 11 13 9 5 14 9 15 23 30 22 11 8 2 3 7 9 14
25 26 28 30 29 27 27 24 24 24 22 25 28 28 27 22 21 19 18 14 16 19 18 17 13 13 13 9 5 9 7 8 5 9 10 8 8 10 12 14 16 14 11 13 20 24 22 19 18 18 11 8 8 10
24 26 28 29 28 27 25 23 23 22 23 27 29 25 19 18 16 14 13 14 13 13 15 14 15 15 12 8 9 12 8 9 9 10 9 10 9 7 11 19 21 18 22 20 23 24 24 27 23 18 19 21 16 17
24 27 29 29 26 24 23 23 23 23 26 28 24 17 16 15 15 17 17 18 17 15 14 14 23 26 22 14 11 10 11 10 11 13 15 16 18 19 19 23 26 20 26 28 34 27 29 31 27 26 27 26 27 26
24 27 27 25 23 22 22 23 24 26 25 22 17 11 16 13 19 16 22 23 21 19 19 25 35 35 29 28 21 14 10 12 13 18 20 21 24 23 15 21 29 37 18 34 49 47 45 42 37 32 30 29 43 41
25 26 23 21 21 23 23 24 26 25 20 15 12 14 15 10 22 25 21 22 23 24 23 20 29 31 28 26 27 31 38 35 18 13 15 15 15 11 18 31 47 27 16 16 24 33 53 53 53 44 38 34 43 54
24 22 21 21 22 24 27 27 26 19 17 15 12 14 13 12 8 14 24 22 21 31 25 13 14 18 15 28 38 26 28 29 32 24 31 22 12 6 23 46 45 17 15 16 24 31 41 39 56 56 45 39 31 35
21 19 20 21 22 26 29 25 24 17 16 12 11 10 12 13 14 13 14 22 29 27 25 20 21 17 18 18 9 11 25 22 31 31 27 39 40 27 39 46 49 40 13 16 23 18 25 30 38 55 54 47 46 45
18 18 19 19 23 26 31 22 20 23 11 11 13 18 17 14 9 9 12 13 16 22 21 25 22 20 14 15 16 11 8 17 20 26 20 36 46 43 44 50 45 45 37 16 21 22 2 11 19 41 48 51 43 48
16 16 17 17 20 25 30 32 18 19 10 7 18 14 12 11 8 9 10 8 12 10 20 21 24 20 19 16 12 9 8 8 13 20 12 32 42 44 49 50 52 47 47 31 30 20 18 15 8 13 27 32 28 24
14 15 16 16 18 23 24 27 20 16 16 9 6 7 16 18 10 7 10 9 9 13 19 20 20 18 21 16 13 10 9 7 9 14 12 22 33 35 42 45 48 49 50 45 47 30 17 9 6 7 12 17 19 20
12 13 14 15 18 20 21 25 23 14 13 15 16 11 8 10 13 12 16 17 17 24 21 23 24 11 16 16 8 8 6 8 5 11 9 25 25 29 30 36 36 39 44 43 46 38 33 37 25 32 40 34 19 19
13 12 13 14 14 17 19 20 22 18 12 7 9 14 9 8 12 14 15 18 19 20 22 21 21 15 10 8 6 5 5 3 5 9 11 20 24 26 27 29 31 30 32 36 37 36 35 33 34 31 36 44 39 31
13 12 12 13 13 17 16 16 17 9 13 7 7 10 10 11 11 13 14 13 15 15 19 21 9 7 8 6 6 6 5 5 6 12 15 18 21 23 24 27 26 25 24 26 25 27 29 31 29 30 32 32 32 26
13 11 9 11 14 14 13 10 10 8 9 7 9 9 9 11 13 15 16 16 16 16 9 11 10 5 7 4 5 7 7 6 14 16 15 17 20 22 23 23 25 22 19 19 23 20 24 24 21 23 24 24 22 21
9 10 12 14 11 12 10 7 6 7 7 7 8 10 11 11 13 16 17 17 15 13 12 7 10 7 4 5 7 8 11 16 17 18 19 20 22 19 21 19 20 21 21 15 17 19 15 20 24 20 17 17 15 14
9 9 10 12 12 11 11 8 5 5 6 5 7 11 12 12 13 14 16 17 15 12 11 8 9 11 6 6 9 10 10 11 15 18 19 17 16 25 18 24 18 20 19 18 15 16 16 10 13 14 14 13 14 13
9 10 9 9 12 11 5 9 6 3 4 3 6 7 8 11 14 13 14 14 14 12 9 8 5 9 8 7 8 8 10 11 10 10 15 20 19 14 19 21 16 17 16 17 20 12 13 16 12 10 10 11 8 5
9 8 8 7 8 8 5 6 12 6 5 6 4 13 6 6 12 12 12 13 11 11 11 11 8 6 6 8 10 10 11 14 11 10 10 11 11 10 16 16 15 14 13 12 15 10 10 11 12 17 15 10 9 10
7 6 7 6 5 5 2 2 4 10 3 4 8 11 9 7 10 13 7 11 11 8 7 8 7 9 15 17 16 11 15 17 12 10 14 13 10 11 13 11 13 11 11 10 10 12 11 5 11 9 7 9 12 13
4 5 6 5 3 5 2 6 2 7 6 5 7 7 7 10 9 13 7 7 10 10 10 9 17 12 9 17 18 19 22 25 16 12 14 15 11 9 12 12 11 11 8 10 8 10 11 12 8 9 10 9 10 16
6 4 4 3 2 4 3 7 3 6 5 7 5 7 7 9 8 13 4 8 8 13 10 19 19 15 19 22 19 19 25 27 15 13 13 13 11 10 9 10 10 10 8 6 9 8 10 14 11 10 9 7 9 8
5 3 1 3 4 5 4 3 5 6 7 6 7 9 8 7 11 5 6 7 9 8 13 16 13 10 15 16 12 13 21 21 14 12 11 14 11 9 8 8 8 9 9 5 6 7 7 8 9 8 10 10 8 8
4 3 2 4 3 3 5 5 6 6 8 9 9 9 8 9 8 6 6 5 6 8 14 13 15 11 8 9 11 12 20 21 15 11 12 15 10 8 5 5 6 8 10 9 7 7 7 7 8 10 7 14 8 9
2 3 1 2 5 6 6 7 8 10 11 10 10 11 14 9 8 3 5 6 6 12 22 21 14 11 8 10 12 15 14 20 19 11 13 11 9 8 7 6 5 11 19 3 6 5 6 7 7 6 7 10 11 6
4 4 7 6 4 6 10 12 12 12 9 10 9 12 9 19 3 5 10 9 9 19 20 23 12 10 8 12 13 13 14 16 21 22 20 19 11 10 11 8 12 14 9 4 5 4 4 5 4 5 4 6 11 12
5 9 8 9 7 10 16 16 18 12 16 7 12 12 16 8 12 7 4 14 13 16 21 25 28 8 11 18 12 21 13 12 13 12 12 6 5 7 15 10 13 16 13 10 11 8 8 8 7 6 6 9 11 14
7 11 8 8 15 13 14 14 13 6 14 17 15 12 13 17 29 20 9 11 12 19 22 22 17 14 14 11 12 12 13 16 12 9 8 6 7 10 12 13 9 8 7 15 16 15 14 11 9 8 8 7 7 11
9 10 10 11 14 14 20 13 10 14 17 15 13 15 9 13 10 14 13 14 19 22 14 14 11 9 9 9 10 14 12 9 10 10 11 6 7 10 15 14 11 11 10 7 8 12 15 13 11 10 7 7 6 4
12 7 11 12 15 15 15 17 10 14 16 13 16 21 7 9 22 17 13 26 21 9 12 15 12 10 8 10 13 11 6 10 17 22 13 1 5 11 13 14 11 12 14 12 9 9 11 9 9 9 9 8 7 6
8 10 11 13 12 11 8 16 13 16 15 15 16 5 9 17 20 24 27 25 14 13 15 10 7 15 23 19 10 13 14 10 12 15 19 19 18 16 14 8 9 11 14 15 12 10 10 10 8 9 9 8 8 8
10 10 8 9 9 13 12 10 15 14 13 14 20 17 9 9 14 25 32 24 21 16 11 12 15 17 19 17 14 10 17 19 17 13 13 15 15 15 16 16 16 13 8 12 12 13 13 9 6 7 7 8 8 7

GFSWCAN_700_spd_042.txt.gz
Wind_Speed
19 20 23 26 29 29 26 24 22 22 21 21 23 24 22 19 21 22 18 12 10 15 14 17 18 19 17 15 10 10 11 12 9 13 10 10 9 14 10 23 14 5 3 7 3 6 4 11 18 23 16 12 9 17
19 22 25 27 26 25 23 21 21 22 23 23 22 19 14 18 20 19 14 13 12 15 15 17 21 19 10 8 5 8 9 9 11 10 12 9 12 17 16 9 23 14 18 9 6 8 9 9 19 22 10 7 11 13
21 24 26 24 24 23 23 24 23 23 21 19 16 13 16 16 17 16 14 18 23 14 27 31 28 21 12 6 6 7 5 5 9 11 12 12 8 18 17 14 20 16 13 12 12 8 3 4 10 15 10 4 4 2
22 25 24 23 21 21 22 22 22 20 18 16 15 14 15 14 14 14 17 25 24 30 31 30 33 40 38 25 14 8 5 4 6 11 9 11 9 17 20 19 21 25 17 17 12 12 13 11 11 13 12 10 8 8
23 23 21 20 20 22 21 20 19 19 18 17 15 14 17 15 14 22 29 28 30 28 34 36 41 46 44 43 41 38 31 22 18 14 15 16 21 25 30 35 34 26 23 22 23 18 21 18 20 25 23 19 19 14
22 21 19 17 21 26 20 17 18 16 14 19 14 12 19 18 14 16 17 17 15 21 23 22 22 30 37 41 41 43 44 34 26 23 19 17 19 23 29 40 36 24 21 17 26 26 29 30 28 29 34 26 28 22
20 18 16 17 22 26 20 17 17 15 16 14 12 11 14 17 16 13 15 14 16 15 10 6 13 17 22 19 24 31 33 36 41 36 25 19 13 15 35 39 43 36 20 18 13 16 17 22 32 35 40 40 39 43
18 17 16 17 20 25 21 19 16 16 19 16 9 10 11 14 11 14 12 14 15 18 14 11 8 13 12 9 19 16 20 24 27 34 39 32 29 29 23 32 33 42 31 19 11 15 21 25 30 30 39 49 47 47
17 17 16 17 19 20 21 18 20 14 15 14 9 7 7 6 4 4 8 9 10 22 15 20 21 10 11 10 8 6 13 18 28 30 25 34 31 21 30 32 35 40 41 33 24 17 17 21 26 26 30 39 51 50
15 15 16 16 18 22 20 20 14 16 10 10 6 3 3 4 6 8 9 12 12 12 20 27 28 26 13 7 6 3 4 10 12 19 15 28 27 25 29 29 33 34 35 36 30 26 26 24 24 22 21 23 38 38
13 14 16 17 18 18 21 21 15 10 12 7 9 13 11 14 14 10 13 15 11 11 18 27 27 24 17 8 5 5 3 4 5 11 10 12 29 27 28 28 30 26 28 33 30 23 19 19 23 20 8 10 18 31
12 14 15 16 16 20 19 20 16 10 9 12 7 12 14 13 9 9 13 13 9 11 25 25 26 20 10 7 6 3 5 4 4 9 5 7 22 24 27 28 26 23 24 23 29 27 23 21 14 15 9 9 14 22
13 14 13 13 16 18 18 17 17 11 9 13 13 13 8 9 9 9 11 14 14 19 16 20 19 12 11 9 7 7 3 4 5 7 6 15 22 26 24 23 21 18 20 22 25 28 28 24 23 16 10 7 5 7
11 13 11 12 15 15 16 14 13 10 6 9 10 11 7 6 9 13 17 23 20 11 13 13 10 12 9 7 4 2 3 0 3 4 11 19 19 18 20 25 19 16 18 20 22 25 27 27 28 23 21 14 10 6
9 10 10 13 14 14 15 11 9 7 8 8 5 5 9 10 14 19 18 13 5 9 6 4 8 6 3 3 5 3 3 4 6 10 15 16 17 16 18 26 19 18 15 20 22 23 23 26 24 25 22 21 20 18
8 9 10 11 13 15 13 12 6 3 8 5 2 12 17 17 23 20 20 16 10 6 3 5 8 4 5 3 3 6 3 3 8 12 15 18 18 15 16 20 20 13 15 15 18 22 26 27 26 24 18 19 20 18
8 11 11 11 12 13 12 10 5 4 2 4 7 12 16 20 22 23 24 25 16 8 8 4 5 6 3 2 1 2 3 8 13 16 17 16 14 14 18 20 21 12 13 13 14 18 20 24 27 30 28 22 19 17
11 11 12 11 11 10 7 7 6 2 2 3 7 13 17 23 14 17 23 26 21 12 4 6 4 6 2 5 8 12 15 17 18 19 11 10 12 13 13 17 17 11 13 13 10 13 14 15 17 18 19 25 27 22
11 13 13 11 10 9 6 7 8 5 5 10 11 14 12 12 12 16 17 22 20 17 12 9 7 14 13 13 13 13 9 11 8 11 12 12 15 8 7 11 14 11 12 12 13 13 17 18 13 15 19 20 16 13
13 12 9 9 9 8 4 4 6 7 6 13 16 11 10 13 11 13 13 19 12 18 21 18 20 19 12 12 10 4 9 14 14 4 6 5 1 6 9 8 10 12 13 16 15 10 13 14 15 17 19 19 16 13
9 8 6 7 8 7 5 5 6 7 12 8 7 14 15 15 15 14 16 19 10 8 16 20 18 17 15 14 10 6 11 16 19 19 17 15 14 8 5 6 9 10 11 12 13 16 10 10 15 16 17 19 15 13
8 8 7 7 8 6 5 7 9 6 8 8 8 10 13 17 16 18 14 15 18 16 15 17 26 24 21 14 11 11 14 17 20 19 22 21 16 12 12 9 9 11 10 12 12 14 11 7 8 10 11 13 13 10
8 8 6 6 5 5 4 4 7 7 11 16 18 18 19 14 18 15 10 12 14 16 17 16 21 25 23 12 11 11 12 17 19 21 27 21 16 16 13 9 8 9 9 10 8 13 14 10 11 11 13 16 12 13
8 6 4 2 4 8 10 8 14 19 21 16 18 22 24 20 19 19 13 18 20 11 15 15 18 20 23 22 20 14 13 16 22 25 20 16 17 13 12 12 11 10 8 8 9 8 11 12 10 13 11 12 15 15
6 4 3 3 4 7 10 11 16 20 25 24 23 20 18 16 13 15 13 9 3 10 13 13 14 18 26 23 20 14 13 18 19 21 16 13 10 7 9 15 17 17 14 12 14 17 17 13 12 10 9 11 12 13
3 3 4 7 4 8 13 18 25 23 17 14 6 6 15 21 15 17 7 9 7 10 11 14 20 22 19 13 13 15 17 19 22 19 16 18 15 12 11 10 11 20 18 11 13 15 14 14 14 10 11 14 15 15
3 1 5 6 7 9 15 19 14 18 13 10 15 15 10 9 13 14 15 17 14 15 15 17 21 19 19 15 13 18 17 14 16 16 14 14 12 16 15 16 16 20 22 13 7 7 11 16 18 16 16 14 14 17
5 3 6 7 12 15 15 14 13 12 16 15 22 23 15 9 10 15 14 14 10 12 16 19 18 17 11 15 16 13 11 13 15 12 11 11 10 13 15 17 18 19 21 16 11 9 8 8 12 13 15 16 14 9
5 8 8 7 12 19 17 14 15 15 13 19 16 21 14 13 18 16 17 13 15 15 17 19 18 19 16 19 21 17 16 12 15 12 11 16 19 18 24 21 17 19 22 16 12 8 6 7 5 6 5 6 7 8
8 6 9 12 14 15 21 18 16 16 11 11 17 16 14 15 16 17 21 15 9 11 14 20 19 18 20 20 21 23 24 19 15 14 14 17 19 20 22 19 20 24 21 15 12 12 5 3 7 5 3 5 10 7
5 8 15 7 9 7 15 15 16 14 14 15 17 16 18 10 13 17 19 16 11 14 16 17 17 18 19 18 16 14 14 14 14 17 18 17 17 19 21 23 23 17 14 13 11 11 11 9 4 4 5 4 3 4
4 8 10 10 11 9 11 15 18 16 15 18 19 21 19 17 12 20 21 23 22 21 21 21 21 22 23 26 25 23 22 19 19 21 19 16 13 11 10 10 13 14 11 11 11 10 5 6 9 5 4 4 4 2
6 8 9 8 11 12 11 9 5 12 13 14 17 19 17 16 19 25 27 24 24 25 27 29 30 29 27 26 24 24 21 17 16 17 17 17 15 13 9 7 7 6 6 5 4 2 6 7 6 5 4 5 5 5

GFSWCAN_700_spd_045.txt.gz
Wind_Speed
20 22 23 22 22 22 23 24 25 26 25 22 19 17 15 17 21 17 12 13 16 13 16 15 21 21 17 12 11 6 9 13 12 10 10 9 8 12 21 19 20 8 3 2 4 4 4 7 16 16 18 15 12 18
22 22 21 21 21 23 26 26 25 25 22 19 16 15 16 18 18 14 16 17 28 30 28 17 11 9 12 10 5 7 9 12 13 13 14 11 13 16 19 18 15 10 8 5 4 1 11 18 27 28 21 15 15 14
21 21 21 20 22 27 26 22 22 22 20 19 17 17 17 16 16 17 24 21 16 17 25 34 35 26 14 6 5 6 11 9 13 13 10 9 6 21 19 27 23 8 7 2 3 6 11 9 17 21 22 14 13 12
21 21 19 19 24 28 23 20 18 16 20 17 17 18 19 20 23 22 20 19 29 34 34 33 38 40 38 33 25 13 6 7 9 16 20 21 20 27 24 24 29 19 17 15 5 5 4 6 11 11 26 17 10 10
19 19 17 19 24 28 22 19 17 13 15 15 15 17 16 15 19 19 21 20 19 19 24 27 30 31 37 41 39 33 28 23 24 24 22 19 22 25 28 37 43 26 23 21 17 14 6 5 17 16 18 26 13 10
18 17 16 18 23 26 22 20 15 14 12 14 10 14 11 9 7 13 17 17 18 7 7 12 15 17 17 20 25 35 35 34 32 21 17 16 22 19 30 30 37 29 18 13 17 15 9 1 8 16 25 27 25 13
16 16 15 17 19 23 22 21 14 15 12 10 9 9 10 8 6 9 15 12 18 20 15 8 6 9 12 16 16 17 14 26 28 24 24 28 23 21 30 34 33 35 34 26 19 12 5 6 3 9 18 25 32 35
14 15 15 16 18 20 22 17 16 13 14 10 6 5 6 5 6 7 11 11 14 17 20 20 17 11 14 10 7 10 13 17 28 31 31 22 20 20 25 28 28 32 34 35 26 19 12 14 10 8 17 25 30 36
13 14 15 16 18 18 20 19 13 11 8 10 4 3 3 5 8 11 10 11 12 14 21 25 30 18 18 8 4 5 10 7 19 17 30 26 29 19 25 27 26 31 32 34 31 23 20 11 9 14 11 25 35 37
12 14 14 15 16 20 21 19 14 8 7 7 5 3 5 6 6 12 11 14 12 14 19 28 32 31 18 11 6 3 5 7 9 16 10 24 27 25 24 28 27 25 30 30 32 33 30 28 25 22 23 12 17 28
11 13 15 14 15 18 18 18 14 9 7 3 7 7 4 7 9 6 13 11 9 10 17 28 30 25 14 10 7 6 5 6 6 12 11 10 27 30 25 25 25 22 24 28 29 29 29 28 28 26 21 20 10 11
11 14 14 12 14 16 16 16 13 7 7 4 3 6 10 9 7 6 10 11 8 10 24 22 23 19 15 9 7 5 4 6 4 9 6 7 22 21 25 28 25 23 20 22 26 26 28 28 28 25 19 16 14 10
11 12 11 12 14 14 16 14 11 6 4 4 5 8 6 7 7 6 13 18 20 21 16 18 15 15 11 8 5 6 3 4 8 5 4 14 17 19 21 27 25 23 20 21 24 25 27 26 23 23 20 17 15 13
9 10 10 12 14 16 16 13 8 7 3 3 5 7 7 6 8 20 21 22 18 13 16 14 12 10 8 6 5 4 4 4 4 6 9 17 19 21 20 23 20 19 19 21 21 24 27 27 26 23 21 16 12 10
8 10 11 13 14 15 15 12 7 4 3 2 2 4 11 13 19 18 17 18 13 10 8 8 11 7 5 4 5 4 4 3 4 8 14 19 24 20 20 21 18 16 19 19 21 24 25 28 28 23 20 22 20 13
8 10 11 12 14 14 15 11 6 2 1 1 3 7 13 15 20 19 20 21 16 7 4 9 7 4 4 5 5 3 7 3 9 14 17 21 22 23 20 18 18 15 18 19 18 21 24 27 27 27 29 25 18 16
11 12 11 11 13 13 13 9 5 2 3 3 5 10 15 17 21 11 18 21 18 12 9 5 5 6 5 4 7 7 12 17 17 17 20 20 19 15 18 17 15 16 17 20 20 19 21 24 25 26 29 30 26 20
13 13 10 10 11 11 9 7 4 3 5 6 8 11 15 15 14 13 14 16 17 12 11 9 6 11 6 8 11 12 14 14 16 17 16 15 17 17 16 13 13 15 17 20 20 20 20 23 23 23 26 27 26 24
12 14 13 10 9 9 9 8 5 7 7 9 12 13 18 14 13 13 13 12 11 12 13 14 8 16 15 12 13 12 7 11 11 8 12 15 20 16 12 14 13 13 14 17 18 19 20 18 18 20 20 20 21 20
11 10 8 5 7 9 9 6 9 10 9 12 14 11 11 13 13 16 16 15 15 12 14 14 17 20 22 16 12 6 6 11 11 12 13 12 13 13 13 16 13 12 13 15 19 20 19 16 11 14 18 21 20 15
8 8 7 7 8 11 8 6 7 9 11 7 7 11 15 16 18 20 17 17 20 19 16 18 17 16 22 21 12 9 7 11 16 18 19 21 22 17 14 16 16 13 11 14 17 19 19 15 13 16 17 21 23 17
10 10 9 7 8 9 5 6 7 8 11 13 14 17 19 18 17 18 15 19 20 19 17 12 8 10 16 19 13 11 12 12 14 19 22 25 20 17 15 15 16 14 14 15 17 18 16 15 15 13 15 17 19 16
7 6 5 4 4 5 5 9 10 14 19 21 21 22 22 26 25 21 15 12 16 18 13 13 17 13 11 20 16 13 17 14 15 19 23 25 19 18 17 11 12 14 15 16 18 16 16 17 17 17 16 15 16 14
7 4 2 2 3 5 10 12 15 18 22 22 22 20 17 21 24 16 8 8 14 17 16 17 14 10 11 19 12 14 11 13 16 18 22 21 17 14 12 13 16 18 18 18 16 15 18 19 20 19 18 13 14 12
3 3 3 3 4 8 12 15 14 18 16 17 24 12 9 9 11 17 13 14 16 14 12 12 12 16 20 19 15 12 11 15 16 19 22 19 15 9 9 10 8 10 14 11 12 15 18 19 18 16 15 15 14 15
1 2 2 3 4 7 12 18 21 16 12 13 20 18 14 4 7 11 15 14 13 11 12 13 15 16 17 20 18 16 17 22 20 19 21 20 17 12 8 8 10 12 15 11 9 12 14 16 15 14 13 15 15 14
1 2 0 3 6 9 12 12 13 10 10 8 17 18 10 4 7 12 15 13 11 11 14 15 15 19 22 24 23 23 21 13 16 18 23 19 18 16 12 7 11 12 13 14 9 9 11 13 14 13 13 12 12 16
4 4 3 5 9 8 12 12 13 12 10 9 11 10 7 8 9 12 15 15 14 15 15 12 18 26 27 26 21 19 21 16 20 25 23 21 19 18 16 14 10 17 11 15 13 12 7 9 10 11 10 8 6 7
3 5 5 6 12 12 12 13 11 12 10 11 9 5 6 17 16 18 17 14 14 14 14 19 23 22 16 19 22 24 23 15 13 16 16 17 20 20 19 16 19 18 17 14 9 12 6 5 4 6 7 5 5 5
1 3 7 7 6 8 9 12 12 12 11 10 11 6 3 15 21 20 16 14 13 14 16 18 18 18 20 23 22 17 14 14 13 14 18 21 23 23 20 20 16 19 14 10 8 8 9 3 4 4 5 6 8 10
4 4 4 8 8 9 12 12 13 15 13 11 16 11 8 13 20 21 18 15 16 16 16 15 15 15 17 18 19 17 15 16 17 19 19 18 18 18 19 17 13 7 8 8 7 6 4 7 5 1 3 4 5 5
3 6 6 7 10 11 12 11 15 14 14 17 17 13 13 17 16 23 19 18 18 19 20 21 21 20 21 22 22 19 19 19 19 18 16 14 12 9 6 6 7 5 4 5 4 6 6 3 6 7 6 5 4 4
3 5 5 8 9 11 10 12 14 16 17 15 15 14 14 14 16 21 21 20 21 22 23 22 22 21 22 21 18 15 16 17 18 19 17 16 15 13 11 8 6 6 5 3 1 1 1 3 5 6 6 6 6 6

GFSWCAN_700_spd_048.txt.gz
Wind_Speed
23 25 24 23 26 30 28 24 23 24 22 22 19 18 17 17 18 18 17 27 25 25 25 21 17 16 16 14 13 13 8 15 14 16 9 9 6 5 4 22 24 21 14 9 9 5 5 4 20 21 20 20 16 22
22 23 22 21 26 30 27 24 22 21 22 20 17 18 18 18 19 20 18 21 30 33 31 32 30 26 10 12 10 7 10 14 15 15 16 13 15 21 16 8 14 1 3 2 2 4 5 13 25 27 25 22 18 19
20 21 20 21 26 29 26 25 23 17 20 18 16 19 22 21 21 20 26 26 19 20 29 36 37 31 28 19 5 6 8 11 12 15 13 14 11 21 10 25 15 18 10 8 5 1 9 13 17 25 26 23 19 18
18 19 18 20 24 27 25 24 20 17 15 15 13 12 17 20 20 20 18 14 14 19 22 23 26 33 36 30 25 19 20 23 21 20 20 22 20 25 32 28 26 18 18 10 8 7 4 4 15 23 24 23 21 17
16 17 17 19 21 25 25 23 20 18 13 10 11 8 9 13 17 17 18 20 12 6 9 13 14 21 23 28 22 17 15 15 17 19 22 23 23 17 28 39 31 19 17 14 11 12 8 4 12 23 20 19 22 19
14 15 15 16 19 22 23 22 19 18 12 11 9 7 6 8 11 12 16 17 18 22 18 3 7 9 14 22 19 23 22 25 27 23 24 30 34 22 18 18 31 28 23 21 20 8 3 3 6 17 20 22 22 23
13 13 14 15 18 20 22 22 17 15 13 9 7 7 5 7 7 10 15 16 15 19 20 10 7 8 11 8 13 15 20 23 28 25 23 19 20 25 32 28 27 29 31 28 21 12 8 5 2 8 16 24 25 25
12 12 13 15 17 19 22 20 17 13 11 10 6 4 5 6 11 16 15 13 10 16 16 15 20 17 18 9 3 1 2 7 16 23 26 24 21 15 23 22 20 25 27 30 28 23 18 10 7 8 9 15 21 26
11 11 12 14 16 19 22 20 17 12 11 10 8 6 8 11 10 11 11 14 11 11 16 19 28 19 19 16 7 4 3 2 6 9 22 23 23 16 20 21 19 23 29 27 28 24 19 20 15 9 13 14 16 24
11 12 13 13 14 18 20 20 16 12 10 7 8 7 6 6 7 11 13 14 10 10 14 23 27 27 21 17 8 8 4 4 3 10 4 19 20 19 21 23 21 21 23 26 27 28 29 25 23 21 7 6 9 10
11 11 13 11 13 16 17 18 16 11 11 6 6 7 7 9 8 8 10 9 8 8 14 22 24 20 21 16 10 6 6 6 4 8 4 8 17 19 21 21 23 20 22 25 28 28 28 26 25 23 20 5 5 7
9 10 10 10 12 14 16 17 14 11 10 8 7 10 9 9 7 5 10 9 8 7 18 20 22 17 18 14 8 7 4 5 3 9 4 5 15 16 18 19 20 18 19 21 25 27 28 25 25 26 22 19 5 6
9 8 8 9 12 14 16 16 12 10 7 8 7 8 7 6 10 7 13 15 17 20 16 19 19 16 14 11 4 5 4 3 8 2 3 12 18 16 15 17 17 17 16 19 22 23 26 28 27 22 22 20 18 14
8 8 8 10 12 14 16 17 13 8 7 6 4 5 6 5 11 16 15 17 18 16 13 14 12 13 12 8 5 4 4 5 2 2 4 13 17 18 19 18 16 16 18 19 20 22 24 24 25 26 22 21 18 17
8 8 8 10 13 14 15 17 13 7 5 5 4 3 8 12 16 16 16 17 18 13 11 10 14 14 10 5 5 5 5 3 3 8 16 15 16 17 15 15 15 15 16 19 19 20 22 24 23 21 21 18 17 14
9 10 10 12 14 14 15 15 13 9 6 6 4 8 12 15 17 10 12 16 17 11 10 10 8 6 6 7 4 4 8 4 15 18 17 17 17 14 12 14 14 14 15 18 18 19 20 23 23 21 22 21 18 16
10 10 9 11 14 13 14 14 12 8 4 5 4 7 12 16 16 12 8 13 16 13 10 6 6 8 10 7 8 8 13 18 17 17 19 17 15 16 18 15 12 13 14 17 19 19 20 20 21 23 23 22 21 20
11 13 11 11 13 13 13 11 10 7 7 8 8 11 16 17 18 13 10 11 13 11 8 6 7 12 10 12 14 17 16 11 13 13 11 12 15 18 19 13 13 13 14 15 18 19 19 18 19 21 22 23 21 20
9 11 11 11 10 10 12 12 9 10 12 8 11 13 16 17 17 17 15 15 17 15 17 16 7 10 12 13 11 12 8 10 13 13 12 13 14 15 15 13 13 13 12 13 17 18 17 18 17 18 20 22 19 19
9 7 8 8 7 9 10 7 9 10 12 11 9 11 14 18 18 19 20 21 19 22 23 18 6 4 2 9 14 9 6 8 10 11 13 16 17 12 11 11 11 13 12 12 16 17 17 17 16 16 16 18 14 15
8 7 9 9 9 8 7 5 7 8 11 10 15 17 20 22 22 25 21 19 19 21 21 17 9 9 7 12 7 9 9 12 11 14 17 20 21 15 12 13 11 9 11 11 13 16 16 14 13 15 15 15 15 14
8 8 8 7 6 5 3 6 8 9 13 16 17 18 18 18 20 19 17 20 14 13 18 28 17 10 15 14 5 8 14 15 15 11 15 19 22 19 16 13 10 5 7 10 12 15 15 13 13 14 15 13 13 15
8 7 5 2 2 4 5 8 10 13 15 16 17 16 15 13 12 14 9 15 15 20 22 23 17 18 12 12 15 16 14 14 11 14 17 19 18 17 14 12 9 10 14 16 13 11 12 13 13 12 14 10 9 12
7 3 2 1 2 3 9 11 11 13 12 15 23 14 8 12 12 16 14 14 17 13 13 13 14 13 12 13 13 9 11 11 14 17 18 18 17 14 11 9 10 9 12 15 8 9 12 13 13 12 10 8 8 12
0 1 2 2 3 6 9 11 13 14 9 13 16 16 9 7 11 11 18 16 14 13 9 10 13 15 17 17 15 14 16 17 17 15 16 18 19 14 14 12 11 12 13 12 6 7 6 6 9 12 11 6 8 12
3 2 0 2 4 5 9 11 11 11 8 11 13 11 11 11 9 9 18 18 16 15 14 16 15 19 17 16 20 19 17 19 20 13 14 15 22 17 17 16 13 10 10 8 8 8 8 8 9 10 10 8 8 9
4 4 3 3 6 8 10 12 10 7 5 7 9 9 9 8 7 14 18 16 16 17 17 18 19 21 22 20 14 15 24 26 18 19 19 19 20 16 22 27 11 8 14 11 5 6 7 8 8 9 8 8 8 7
4 3 1 4 7 10 11 11 10 7 7 6 8 6 9 11 9 11 12 13 15 17 19 20 21 21 21 21 26 26 25 21 16 17 19 19 17 14 16 15 12 10 7 6 4 5 4 3 5 6 6 5 4 5
2 2 4 5 7 6 7 10 9 10 7 7 9 6 5 14 14 13 15 15 13 13 15 16 16 19 23 26 27 24 21 18 13 14 15 15 15 16 14 15 15 13 10 9 6 9 7 3 4 5 6 5 3 5
3 0 1 4 6 7 8 9 11 12 14 8 9 3 3 9 15 16 15 15 15 15 15 16 18 19 20 21 21 20 18 17 16 15 15 14 14 13 10 10 8 6 6 6 5 6 8 7 3 4 6 7 7 8
3 2 2 4 6 8 8 10 11 12 12 11 9 7 7 12 16 17 17 16 17 17 18 18 18 18 20 21 21 20 20 19 17 16 14 12 10 9 7 5 4 2 1 2 3 2 4 5 9 7 5 6 6 6
0 1 5 6 7 8 10 10 13 13 13 12 10 9 10 13 17 17 20 19 18 17 17 18 17 18 19 20 20 20 21 20 18 18 17 16 14 12 11 8 5 3 2 2 1 2 3 2 5 7 6 5 6 7
3 3 5 5 6 8 10 12 15 14 14 14 12 12 12 14 15 18 19 18 18 17 17 17 17 17 18 19 18 18 19 19 18 18 18 17 16 15 14 12 11 10 8 7 5 4 3 3 5 6 6 5 6 7

GFSWCAN_700_spd_051.txt.gz
Wind_Speed
21 22 22 22 26 28 26 25 23 21 19 17 16 17 17 16 15 18 24 28 26 31 35 36 34 24 10 8 10 13 11 20 17 14 7 7 6 3 12 9 15 16 15 15 15 10 11 7 16 17 14 18 16 20
19 20 20 20 24 27 27 24 21 19 17 13 17 20 23 20 18 17 17 19 22 26 27 32 37 32 23 16 10 13 14 16 17 18 16 11 11 15 14 9 17 11 18 7 10 9 12 12 16 25 24 20 20 21
17 19 19 18 22 25 26 22 22 17 15 9 11 16 19 23 24 21 17 15 17 15 17 24 30 32 29 23 19 22 18 18 18 24 24 25 14 23 14 15 6 5 3 7 6 7 7 6 16 14 23 22 22 22
15 16 17 17 18 22 23 22 21 17 13 9 4 9 13 16 16 18 19 19 20 14 11 15 19 24 23 18 17 16 17 21 20 17 20 17 16 32 32 26 22 12 12 1 7 9 4 10 10 13 20 22 20 21
13 14 15 15 18 21 22 21 18 16 12 9 6 2 6 11 13 15 16 18 22 21 18 5 10 13 14 19 22 21 18 15 16 23 28 31 22 13 24 34 31 21 17 15 14 7 6 4 6 15 18 18 19 19
12 13 15 16 18 20 23 20 16 12 12 10 8 6 5 8 10 13 20 16 14 18 17 11 14 5 6 9 14 19 21 20 22 19 21 22 25 21 26 14 27 25 18 15 12 8 7 3 2 11 13 15 17 18
11 12 13 15 17 18 21 20 18 11 10 11 9 8 9 10 13 16 16 13 11 15 17 13 16 20 3 6 5 6 9 14 19 26 17 15 16 18 26 24 24 25 27 24 22 11 5 1 1 7 17 15 16 17
10 11 12 14 15 17 20 19 17 12 10 10 10 8 9 11 13 12 10 11 10 12 12 11 21 18 20 10 5 6 4 7 14 18 22 19 19 17 19 18 18 19 22 24 25 19 19 11 3 4 11 22 25 21
10 10 11 13 13 15 18 18 16 13 11 10 10 9 9 8 8 11 11 11 7 8 12 16 22 17 21 14 9 4 2 3 5 10 21 18 22 15 19 19 17 22 27 27 25 20 17 16 17 9 3 7 10 13
10 9 10 12 11 14 15 17 16 13 13 10 10 10 9 13 14 13 8 11 6 7 8 18 21 22 18 16 11 6 2 2 2 10 7 17 18 17 19 20 17 20 24 27 27 25 21 20 19 17 17 7 2 8
8 8 9 9 10 12 15 17 15 13 12 12 11 11 13 14 10 7 7 9 7 6 9 17 20 22 15 13 8 7 5 4 2 5 2 9 15 17 19 19 19 19 22 24 26 28 27 23 20 17 17 17 8 6
7 7 7 7 9 12 14 16 16 13 13 13 14 12 10 8 7 5 9 8 8 7 19 18 20 17 14 9 5 6 4 4 3 7 2 4 13 13 16 17 18 18 19 21 24 24 23 24 22 20 19 17 15 12
6 7 7 8 9 11 13 16 16 14 13 12 9 9 7 5 8 7 10 13 14 20 19 18 19 14 10 9 4 2 2 3 7 1 1 7 11 13 13 14 15 16 16 16 18 21 23 22 21 20 17 17 15 13
6 6 6 8 9 11 13 14 16 15 11 11 7 4 6 5 7 14 13 17 19 19 15 14 13 12 12 6 4 3 3 3 1 1 5 9 9 11 11 11 11 13 14 15 14 16 19 21 21 21 18 15 14 13
6 6 8 11 12 11 12 14 15 15 11 8 5 2 5 10 13 14 12 15 18 19 15 15 14 11 9 4 3 4 2 2 1 7 14 11 12 10 8 10 9 9 11 14 13 14 16 18 19 18 17 16 14 12
5 8 10 13 14 12 11 13 14 14 14 7 4 5 7 12 15 14 15 14 17 17 16 14 7 6 6 5 4 3 4 1 10 14 12 12 6 6 8 9 8 7 9 11 13 14 15 15 17 17 18 16 14 13
7 8 9 13 15 12 11 12 13 12 6 6 9 9 11 16 18 19 18 16 17 17 15 10 5 3 7 5 8 5 7 14 11 11 9 5 6 8 8 7 4 6 8 9 11 13 14 13 13 16 18 16 14 14
9 10 11 14 14 12 10 10 11 9 9 10 10 9 14 16 19 18 20 19 22 22 20 19 15 12 4 7 10 13 12 7 7 7 7 8 8 9 10 7 4 5 7 8 10 12 12 12 11 13 15 17 15 15
7 9 11 10 9 6 9 10 8 9 10 10 10 10 14 16 19 22 23 25 26 25 21 21 10 11 5 7 8 3 5 5 7 8 9 9 10 9 9 8 6 6 5 6 8 11 11 9 10 12 13 15 16 15
7 7 7 7 7 7 7 5 8 8 9 10 9 17 19 22 22 19 23 21 20 24 25 26 19 7 4 12 1 2 1 6 10 8 6 11 14 13 7 8 7 6 5 5 7 7 9 8 8 10 10 12 13 12
6 7 8 8 7 6 4 4 5 9 14 13 17 19 22 19 18 19 17 14 17 19 21 20 22 16 12 13 5 4 5 12 7 7 7 12 13 15 14 10 8 7 7 13 8 4 5 6 6 9 9 8 10 11
5 5 4 4 3 2 3 3 6 10 11 13 18 19 12 13 14 16 13 18 20 18 15 20 18 13 9 11 14 12 13 12 9 8 10 12 12 11 10 10 5 3 4 9 12 8 4 6 6 8 8 6 6 10
6 6 3 1 3 2 3 5 8 9 12 15 19 16 11 12 13 16 17 19 18 14 10 13 14 13 11 13 13 11 7 9 7 8 12 13 9 8 5 5 5 6 7 8 9 7 12 7 8 7 5 4 4 7
5 1 3 3 3 3 5 7 8 11 8 12 13 15 16 15 13 13 19 21 19 16 12 14 14 12 12 13 11 10 8 10 14 16 11 10 12 12 13 5 7 7 8 11 7 5 7 7 5 3 7 7 4 7
1 2 3 3 2 2 5 7 8 8 8 11 12 15 18 18 14 9 16 21 19 18 17 15 10 16 17 15 15 14 9 8 11 12 10 10 16 13 15 6 11 12 7 6 5 2 4 4 1 4 4 2 4 7
4 3 3 2 1 2 6 8 10 11 8 9 11 13 14 16 9 10 18 20 19 18 15 15 16 18 20 19 17 22 17 16 13 12 15 14 15 20 15 15 17 19 1 2 5 3 2 1 3 3 2 3 4 5
5 4 4 2 3 6 8 9 8 6 7 8 10 11 10 8 7 15 20 19 18 18 17 18 20 20 17 19 23 23 20 17 15 13 15 16 19 15 14 20 10 12 6 2 2 3 3 2 0 2 2 3 4 4
5 5 3 2 6 7 5 7 8 8 7 7 10 8 7 12 13 15 17 18 18 19 19 20 20 20 21 23 23 22 18 15 11 9 10 14 15 14 12 13 11 10 2 2 0 2 2 3 1 2 2 2 1 3
5 2 0 1 3 3 5 6 7 9 7 5 9 9 10 12 16 17 19 20 21 21 20 20 20 22 23 23 21 19 19 17 14 11 11 12 13 14 11 8 8 4 6 4 5 9 6 2 1 2 4 3 2 2
4 3 2 1 3 4 4 6 8 8 9 9 7 7 7 8 12 15 19 22 21 21 19 19 21 22 21 20 19 19 19 17 16 14 11 9 7 6 5 3 5 7 6 4 4 6 9 8 5 4 4 5 4 3
4 2 3 3 4 5 7 8 9 10 10 12 11 8 8 9 10 13 16 20 20 19 19 20 22 21 19 18 18 19 18 17 17 16 14 12 11 9 8 7 3 2 2 3 4 3 5 5 7 8 6 6 5 5
3 1 3 5 6 6 8 9 12 14 12 13 13 12 11 11 12 13 15 18 19 18 17 19 20 18 17 16 17 17 16 17 18 18 17 16 15 14 12 10 9 8 7 5 3 3 4 4 5 6 5 6 6 7
3 4 4 5 6 8 9 12 13 14 13 11 12 12 12 12 13 13 15 17 16 15 15 17 17 16 15 15 16 16 16 17 17 16 16 16 15 15 15 14 13 11 9 7 5 5 4 5 5 5 6 6 7 8

GFSWCAN_700_spd_054.txt.gz
Wind_Speed
18 17 17 16 21 24 24 21 19 17 12 13 17 17 15 15 17 18 20 20 21 22 29 27 26 22 15 10 12 12 10 19 19 11 6 6 7 5 6 8 9 20 14 15 20 18 18 22 21 11 12 12 22 29
17 15 16 15 17 21 23 21 18 14 9 7 10 16 19 19 20 20 23 25 20 18 18 22 23 24 21 19 18 19 17 19 19 17 14 8 7 9 5 6 9 10 14 15 12 13 20 23 5 4 6 22 20 25
15 13 14 14 16 20 21 21 17 14 10 3 4 9 12 15 17 19 20 22 25 16 12 19 19 18 14 14 13 16 15 8 18 14 14 12 7 20 9 11 8 12 10 26 19 16 21 18 8 3 7 17 21 26
13 12 12 13 16 19 20 20 15 13 10 7 4 6 8 10 12 16 17 17 19 15 12 9 8 11 16 16 14 11 9 12 13 14 12 10 11 23 26 20 25 9 8 1 8 7 5 5 8 8 9 16 17 22
12 11 12 12 15 17 20 19 15 10 10 8 7 6 7 10 12 13 18 14 14 16 14 8 14 1 4 8 11 12 14 15 13 15 18 18 12 12 14 27 27 19 16 9 7 3 4 6 2 8 9 13 14 18
10 10 11 12 13 16 19 18 16 9 9 9 7 7 7 10 13 17 15 14 11 15 15 10 19 14 9 3 4 9 11 15 18 11 13 17 17 14 14 14 23 23 16 8 7 1 4 2 1 10 10 8 9 17
9 9 10 11 13 14 17 18 16 12 9 9 9 8 8 10 13 13 13 14 10 12 12 12 12 19 16 4 5 1 4 9 13 15 12 13 13 16 19 20 21 25 25 19 16 6 5 4 1 5 11 11 12 13
8 8 9 10 12 12 14 16 15 12 11 10 10 9 9 10 9 10 12 11 8 8 8 9 12 10 20 17 13 8 7 9 6 14 13 12 11 11 11 12 14 18 20 19 18 14 13 11 4 5 5 11 13 15
8 7 8 9 10 10 13 15 14 13 12 10 10 10 8 9 13 13 11 9 6 5 6 11 18 14 20 15 12 9 3 5 6 8 10 12 13 9 12 9 11 17 19 21 21 19 14 14 16 8 4 10 20 21
7 6 6 8 7 9 11 13 14 13 12 11 12 12 10 15 13 9 5 8 4 4 6 15 14 17 16 15 9 8 3 1 3 6 5 10 10 7 9 10 10 13 17 19 19 21 18 19 17 18 13 4 8 15
7 5 5 6 6 8 11 13 14 14 13 13 13 12 11 10 7 5 6 7 6 5 7 17 13 15 16 10 9 5 6 4 2 3 2 4 6 6 8 9 11 9 13 18 21 22 22 23 19 18 16 12 7 0
7 5 5 5 6 9 11 13 14 15 14 13 13 9 7 6 5 5 7 6 6 5 13 16 15 17 14 10 5 5 4 3 3 6 1 3 5 7 7 8 10 12 11 13 16 18 20 19 20 18 17 16 13 10
7 5 5 5 6 8 10 12 12 15 14 12 9 5 5 4 5 4 7 8 10 13 13 15 14 17 10 7 6 5 2 4 5 2 3 4 8 5 6 7 6 9 11 10 13 15 16 17 17 16 17 15 14 13
6 4 5 6 7 9 11 12 13 14 14 10 6 4 3 3 4 10 13 13 14 17 15 16 14 13 13 8 4 3 5 3 3 3 4 7 8 7 7 7 6 6 7 7 8 11 14 16 15 15 15 15 14 11
6 5 7 8 9 10 11 12 13 14 14 8 4 2 3 5 9 12 15 17 15 19 20 19 16 11 9 6 4 5 2 3 2 3 9 9 10 7 5 6 6 7 6 6 6 7 8 12 14 15 15 14 13 12
6 6 7 9 10 11 12 12 13 15 14 5 3 6 8 11 13 16 18 19 15 18 19 18 10 7 7 4 3 2 2 1 3 7 6 10 7 4 6 8 7 5 6 5 6 6 7 8 11 13 15 15 13 11
7 6 7 9 11 12 12 11 12 13 5 6 7 9 9 13 15 18 21 23 26 30 25 14 5 3 4 4 2 2 1 4 5 8 6 4 5 7 8 8 5 3 5 5 5 6 7 7 9 11 14 15 13 13
8 7 7 9 9 10 8 7 9 6 8 8 8 7 11 16 18 22 25 23 23 23 22 24 15 16 8 1 3 11 13 3 3 3 5 6 8 10 12 12 7 6 7 7 4 6 6 5 7 9 12 13 12 11
8 7 7 6 7 6 7 5 5 6 5 6 8 10 16 19 22 22 22 22 19 17 15 12 7 11 6 3 7 3 3 3 1 3 4 6 8 10 13 15 14 9 9 8 6 2 5 4 4 5 7 8 8 8
4 5 5 5 6 6 5 3 5 5 8 9 11 15 18 19 18 18 17 19 18 13 16 14 11 7 8 10 7 5 5 7 10 7 0 5 11 13 14 12 10 10 10 12 9 8 4 2 3 4 6 6 5 6
4 4 5 6 6 4 3 1 4 7 7 10 15 18 13 12 13 13 16 16 14 15 14 13 13 10 8 7 7 8 11 13 13 2 2 6 12 9 9 11 10 4 4 6 7 14 3 2 3 3 4 4 5 5
2 3 3 3 2 1 1 1 4 7 8 10 15 16 11 12 15 14 17 13 14 15 11 12 12 10 8 11 13 13 14 11 11 7 8 9 3 2 3 2 3 2 2 4 6 7 3 5 4 2 3 5 5 6
3 4 3 2 2 3 1 3 5 7 6 9 12 14 17 19 16 16 10 19 18 18 15 13 11 9 10 13 12 13 12 10 11 13 17 17 6 4 5 3 3 2 3 6 7 4 10 13 16 5 3 2 3 4
3 0 4 3 3 2 0 3 5 6 5 10 12 13 16 20 18 12 8 19 20 17 15 13 10 13 14 15 13 13 14 12 10 15 12 9 5 6 15 7 6 7 11 3 1 2 3 4 7 2 5 3 3 2
2 3 3 5 3 1 1 5 7 8 8 10 9 15 14 17 16 7 12 19 21 19 17 16 15 15 13 12 12 15 13 10 7 14 13 16 6 7 5 10 4 8 10 6 3 2 4 2 2 2 5 6 5 3
5 4 4 5 3 1 4 6 8 9 7 7 8 12 14 14 7 7 16 20 21 20 19 17 18 13 17 18 16 15 14 13 10 9 17 12 11 18 12 3 9 6 4 3 5 4 4 5 4 5 4 6 4 1
7 4 6 5 1 3 4 4 5 5 5 5 10 13 10 5 6 17 22 21 20 20 20 19 18 19 18 18 18 16 15 13 10 9 11 11 13 14 12 4 5 3 2 1 0 2 6 4 3 2 3 3 2 2
7 8 7 3 1 2 1 3 6 7 7 7 9 11 7 9 12 19 22 23 24 23 21 20 19 18 17 17 17 16 16 15 12 9 8 8 9 12 8 5 4 0 0 2 5 3 5 6 4 3 2 3 3 1
11 7 4 1 1 0 1 3 5 6 7 9 9 10 13 13 14 17 20 24 26 25 23 22 20 19 19 18 17 15 14 12 6 4 3 8 6 5 8 7 7 8 5 5 4 4 7 7 6 3 1 1 3 3
7 6 4 2 1 1 3 6 8 9 10 10 12 12 12 13 13 16 18 22 24 25 22 19 17 16 16 17 17 16 16 16 15 12 8 6 6 7 6 6 7 6 6 4 4 6 8 7 4 4 4 2 2 2
8 5 4 3 2 2 5 6 7 11 10 8 11 12 14 14 15 16 18 19 20 20 18 16 15 14 14 15 16 16 15 15 15 15 15 15 13 11 9 7 6 4 4 4 4 3 4 4 3 3 4 3 4 2
5 4 3 4 4 2 4 6 8 10 11 9 10 12 13 14 16 16 16 17 18 17 15 13 12 12 11 12 13 13 13 13 13 14 14 14 14 14 13 11 10 8 7 5 4 4 4 4 4 4 5 5 6 6
5 2 3 4 5 6 8 10 12 11 11 9 10 12 13 13 15 14 14 14 15 14 13 11 10 10 10 10 11 11 12 11 11 12 12 12 12 12 12 11 10 9 8 7 6 6 6 6 7 7 7 7 8 8

GFSWCAN_700_spd_057.txt.gz
Wind_Speed
15 13 13 14 14 17 20 20 17 12 5 7 12 13 14 14 17 19 22 19 17 11 17 18 17 18 17 15 13 9 7 12 15 10 7 8 8 9 10 11 7 14 15 22 27 16 22 19 19 18 22 21 22 17
14 12 11 12 13 17 18 20 14 12 5 4 5 8 9 12 16 19 20 20 16 11 4 14 14 11 10 11 13 12 10 13 12 11 10 6 8 9 10 2 5 6 10 11 12 17 17 21 25 20 24 23 16 18
13 11 10 11 13 16 17 18 14 11 8 5 4 6 9 11 13 16 17 16 17 14 12 11 12 12 10 10 10 14 11 12 16 8 10 10 7 15 8 14 4 8 12 16 15 17 25 25 29 29 25 18 15 23
11 11 9 10 12 14 16 17 15 10 8 7 6 8 10 11 13 14 16 13 14 14 8 12 21 12 7 6 9 13 16 11 12 14 7 2 4 11 11 16 14 8 4 11 17 20 25 27 21 14 18 12 16 24
9 10 8 9 10 13 15 17 16 9 8 8 8 8 8 9 12 15 12 10 10 12 10 9 15 16 9 8 5 7 10 11 10 9 14 7 9 9 9 6 17 15 11 11 10 11 10 14 15 9 8 9 13 20
9 9 7 8 10 12 13 15 16 11 8 8 8 8 8 9 11 12 10 11 9 11 13 7 8 17 17 7 9 7 8 7 8 7 7 6 11 7 11 5 15 22 14 11 11 7 9 12 9 7 6 4 19 15
8 8 7 7 9 10 12 14 14 11 10 9 9 10 9 9 10 9 12 13 10 8 12 10 8 15 18 15 13 6 8 4 4 6 9 6 6 8 12 8 14 20 14 14 10 7 6 9 6 3 6 4 10 11
8 8 7 7 8 8 10 12 13 12 11 10 10 10 10 8 9 11 12 10 9 7 7 6 9 13 16 13 10 8 7 9 4 6 4 8 3 3 5 11 13 20 13 15 17 13 9 12 12 6 6 6 5 7
8 7 6 5 6 6 9 11 13 12 11 11 11 10 10 9 13 12 8 6 8 6 5 6 8 12 16 11 9 9 5 4 2 6 4 8 8 4 6 6 7 11 14 11 13 14 13 14 15 11 5 5 6 6
8 7 6 4 4 5 8 10 13 14 12 11 13 13 9 12 11 8 5 7 5 6 9 10 9 11 9 17 10 6 4 4 5 3 6 7 9 5 7 8 6 6 11 13 12 15 16 15 17 15 14 11 6 3
8 6 5 4 4 6 8 11 12 14 14 12 13 11 11 9 7 5 7 6 5 6 8 11 11 11 11 13 11 5 5 3 3 3 4 3 6 4 8 6 7 8 8 13 16 16 18 15 15 16 13 12 10 8
7 6 6 5 6 7 8 10 12 14 15 12 12 10 8 4 4 5 6 7 6 4 8 13 14 14 12 16 8 7 6 6 4 3 4 4 4 7 6 8 8 10 8 9 14 16 17 19 20 18 17 14 11 9
7 6 6 5 6 6 8 10 12 14 14 13 8 5 5 3 4 4 5 8 10 13 17 16 16 16 23 14 10 7 6 6 4 3 3 3 1 8 6 5 5 7 14 16 13 14 15 21 22 21 22 20 13 12
7 6 5 5 6 7 8 10 11 12 14 12 5 7 2 4 3 10 13 14 18 18 16 20 18 15 19 17 7 5 4 3 4 2 2 5 1 7 5 5 5 6 8 10 13 14 15 12 17 18 18 21 18 17
7 6 6 6 7 8 9 10 11 11 13 7 3 3 4 7 12 12 15 16 17 18 25 31 28 14 17 5 2 4 2 0 2 3 3 3 11 8 9 7 6 5 1 6 8 12 16 12 11 13 13 13 15 14
7 6 6 6 7 8 9 10 10 11 13 4 3 5 9 12 13 17 16 21 23 20 18 26 17 9 6 5 3 4 2 3 5 6 7 6 9 6 5 5 7 8 4 4 4 5 8 8 9 10 11 11 12 11
7 6 5 7 7 9 9 8 7 8 3 2 5 8 12 10 14 18 22 18 20 14 16 16 6 4 6 5 5 3 8 12 14 18 7 7 9 7 10 9 8 6 8 7 7 5 9 6 9 10 11 11 14 16
7 5 6 7 7 7 6 5 5 2 4 4 7 9 11 12 14 17 15 16 16 11 10 11 7 7 6 4 5 9 10 6 3 4 5 8 8 9 10 9 9 6 10 5 8 5 12 3 6 8 10 11 7 9
7 5 4 5 5 5 5 2 3 1 3 5 7 12 11 13 14 11 12 21 20 15 15 14 6 5 6 6 9 7 5 4 7 8 6 12 9 12 12 9 10 9 9 13 6 9 5 4 7 3 5 7 8 7
6 5 6 5 4 5 3 2 1 2 2 6 6 10 10 11 10 9 12 14 13 13 11 10 10 5 6 6 5 7 8 9 9 12 16 8 4 9 12 13 9 12 8 11 6 11 8 13 5 1 5 7 4 6
4 5 5 4 5 4 2 1 3 3 4 3 8 10 10 9 9 9 12 10 13 11 11 9 8 7 7 8 12 13 14 13 11 14 8 5 6 10 8 7 7 5 5 6 9 7 8 11 4 1 5 6 5 6
3 2 2 2 2 2 2 1 3 7 5 4 6 8 9 10 10 10 7 12 11 10 10 10 12 12 13 15 17 14 13 12 11 14 15 11 8 13 3 7 7 5 5 3 6 8 7 5 1 2 5 4 3 7
3 3 4 3 3 3 2 1 2 1 1 4 6 7 10 10 11 9 6 11 14 15 12 13 16 14 17 13 14 12 19 18 13 11 7 11 5 3 6 6 5 6 5 4 3 6 3 7 12 10 5 2 4 3
3 1 4 3 3 3 1 0 3 2 4 5 6 8 8 11 12 7 12 15 13 13 15 17 15 13 13 17 16 13 18 14 15 14 14 15 6 8 6 3 11 6 5 6 11 15 6 3 2 3 2 5 5 3
3 4 3 4 4 2 1 2 3 4 4 6 5 7 8 9 8 9 13 12 12 13 14 16 11 13 11 11 9 10 14 8 8 16 13 19 17 11 4 18 5 5 6 6 4 5 2 2 5 3 3 3 2 2
5 5 5 4 3 1 1 4 2 5 4 3 5 8 7 7 6 8 13 13 11 14 15 14 9 7 9 11 12 12 12 10 6 11 13 3 3 8 11 5 1 2 2 1 1 7 12 10 3 2 8 6 7 3
6 3 5 7 5 3 2 3 2 2 2 4 6 7 8 6 5 8 9 21 20 21 19 17 14 12 12 13 13 15 14 11 6 3 9 9 8 6 4 3 2 3 4 3 2 3 2 3 2 3 3 3 3 2
7 6 6 5 3 3 2 2 1 2 3 6 4 4 7 7 7 14 15 19 22 21 18 17 15 12 13 14 14 10 11 14 13 8 8 7 8 5 4 3 3 3 2 3 4 1 2 7 1 5 4 4 2 2
9 8 7 6 4 4 2 1 3 4 7 6 8 8 9 15 16 15 15 19 21 21 19 18 16 12 13 16 15 13 11 5 0 6 9 8 7 6 6 5 9 9 4 3 2 2 8 8 4 3 3 4 2 3
8 8 6 5 5 7 5 2 4 7 10 9 9 11 13 14 15 15 16 18 19 19 18 16 14 12 12 13 14 13 12 10 8 4 4 2 2 4 5 6 9 5 4 4 6 9 5 6 6 7 4 3 4 3
7 8 7 5 6 4 4 5 5 7 9 9 7 7 10 16 16 14 14 15 16 18 17 16 15 12 11 11 12 13 12 11 10 9 8 8 8 5 6 7 6 5 5 3 2 1 4 3 2 3 4 3 4 2
8 7 5 7 12 5 4 5 6 7 6 10 8 11 13 14 16 14 13 14 14 14 13 14 14 11 9 9 9 9 9 9 9 9 9 8 8 7 8 6 6 3 3 2 3 2 3 2 4 2 4 5 4 5
7 7 5 6 6 5 6 7 6 7 7 6 7 13 15 13 9 19 14 13 12 13 13 12 12 10 9 9 8 8 8 8 8 8 8 8 8 8 8 6 5 5 6 3 3 4 5 5 4 4 5 6 6 6

GFSWCAN_700_spd_060.txt.gz
Wind_Speed
17 15 12 11 11 13 16 16 12 10 7 5 6 8 11 14 18 19 15 18 13 8 8 11 14 12 13 13 9 9 6 11 13 7 4 5 6 7 10 12 12 10 8 16 21 21 20 15 16 16 19 26 27 30
16 16 12 10 10 12 14 15 12 9 9 7 6 7 9 12 15 17 17 15 15 8 2 10 11 9 9 10 11 7 9 8 13 8 7 3 4 7 10 10 6 5 6 6 9 10 16 18 22 25 30 33 32 37
14 15 11 10 9 11 13 14 12 8 7 8 7 8 9 10 12 14 15 12 13 9 12 12 14 14 6 6 9 9 7 9 12 11 7 7 6 7 6 7 12 11 17 12 18 15 19 18 25 29 33 36 33 33
11 12 10 9 8 9 11 14 12 6 5 8 8 8 8 8 10 12 13 13 12 13 8 10 12 17 6 7 7 9 9 12 11 15 11 13 9 6 11 10 13 16 12 15 20 27 31 34 33 36 37 38 33 33
10 11 9 7 7 8 9 12 11 7 6 8 8 7 8 8 9 10 9 10 10 11 13 10 8 10 16 7 10 7 7 8 11 11 9 12 10 8 12 9 15 18 17 13 19 18 20 20 24 29 32 31 26 25
9 11 9 7 6 8 8 10 10 9 8 8 9 8 9 9 9 11 10 7 11 12 15 7 8 12 12 13 4 10 12 7 7 8 9 9 9 9 10 11 12 16 17 18 21 12 7 13 20 19 18 17 21 19
9 10 7 7 6 7 7 8 10 9 9 9 9 9 10 10 8 9 12 14 13 11 12 10 6 9 9 13 7 10 7 10 9 5 7 10 12 13 9 14 14 17 16 21 25 21 9 13 15 14 12 16 19 19
9 9 7 6 6 7 6 7 10 10 10 10 11 11 10 10 10 12 13 15 12 12 10 4 9 9 14 12 6 8 9 10 8 8 5 9 7 11 6 12 13 13 10 16 16 25 17 21 16 15 11 9 9 13
10 9 6 5 5 5 5 7 9 11 12 12 13 12 11 8 11 11 10 8 10 10 7 5 10 13 11 13 8 13 7 11 9 9 8 9 10 4 7 4 10 11 11 12 13 14 17 24 23 18 16 8 5 7
11 8 7 5 5 5 5 7 10 12 13 13 15 13 7 12 10 10 6 8 8 8 12 12 5 13 14 18 15 8 8 8 8 8 6 13 10 5 8 10 11 7 10 11 9 18 20 18 17 21 18 14 10 6
10 8 7 6 6 5 6 7 10 12 14 14 13 14 15 12 9 6 6 6 6 9 10 6 7 13 11 18 15 10 11 8 8 9 7 5 4 3 3 12 14 14 13 15 12 14 19 21 20 17 19 14 12 11
9 9 7 7 7 6 5 6 9 11 14 15 15 12 11 6 4 4 6 5 7 6 6 11 11 13 18 14 17 11 14 9 7 9 6 4 5 5 2 2 10 14 14 18 18 16 14 18 23 21 19 17 18 14
11 8 7 7 7 6 5 7 9 11 13 15 9 6 5 3 6 6 6 14 15 32 12 19 26 21 25 24 17 8 4 6 2 3 3 4 8 8 1 5 2 6 10 8 13 17 17 11 11 19 21 17 22 18
10 8 6 7 6 6 7 9 10 10 11 10 8 8 3 5 6 12 15 20 22 14 13 18 18 26 15 10 8 3 4 4 2 1 0 4 3 7 4 5 5 2 5 10 14 8 14 11 10 11 14 14 22 20
9 7 6 6 6 6 7 9 10 10 9 4 5 5 7 10 19 14 18 23 16 18 20 18 15 12 17 9 6 4 4 2 1 3 7 7 8 5 7 6 4 5 7 5 8 16 8 12 8 9 15 10 18 18
8 6 6 5 5 6 8 10 10 9 10 3 5 5 10 20 21 13 23 22 19 19 22 14 10 6 6 8 5 6 7 5 7 5 8 12 14 8 8 7 6 6 13 14 2 9 7 9 11 9 14 10 13 21
8 6 6 5 5 7 8 8 6 6 3 4 4 9 17 20 27 18 24 18 17 12 14 12 7 5 8 6 8 7 8 10 10 10 6 7 10 9 9 6 10 3 9 17 8 5 3 7 7 8 10 15 11 10
6 5 6 4 5 5 5 5 5 2 5 6 7 7 11 5 15 19 10 16 15 13 11 13 6 7 7 9 13 13 12 9 6 5 8 13 17 13 9 10 8 7 5 13 16 11 11 3 2 9 9 10 10 12
5 5 6 4 4 4 4 1 1 3 7 5 7 6 11 17 16 13 9 9 10 16 13 15 7 7 8 9 13 15 12 13 11 11 14 14 20 4 14 11 11 11 11 10 14 22 3 6 2 1 4 4 7 3
5 5 5 5 5 4 1 2 5 3 3 2 14 5 8 9 6 8 9 20 9 10 9 9 14 8 14 13 12 15 16 19 18 14 24 7 11 6 11 9 8 6 10 10 19 7 7 8 3 8 1 4 4 7
5 5 5 5 6 6 6 6 12 7 10 8 12 9 5 17 13 7 12 9 9 9 9 9 14 16 16 16 17 17 18 15 15 16 13 12 16 10 10 11 9 8 15 7 10 10 13 6 7 7 10 8 4 7
4 4 3 4 4 3 5 5 7 14 8 13 2 7 13 8 4 11 12 14 11 12 13 13 15 17 14 21 16 18 22 19 19 16 13 10 7 11 10 9 4 7 13 17 14 4 6 1 11 6 8 1 3 9
4 4 5 5 4 6 5 4 5 4 6 5 4 6 6 8 7 13 11 12 9 13 14 21 21 14 20 14 21 16 19 20 23 25 9 8 16 18 18 2 2 4 8 10 7 1 5 8 1 2 13 6 6 7
5 4 3 3 5 3 4 6 4 5 10 7 3 7 3 7 11 12 9 10 15 10 16 21 8 14 12 11 10 15 20 13 20 23 12 13 4 14 16 18 6 5 8 10 14 15 15 1 3 6 5 4 3 4
5 5 4 7 9 7 7 6 9 5 7 3 1 1 4 4 5 3 7 11 10 11 13 13 10 7 9 9 9 9 14 9 4 16 16 16 17 13 12 10 4 7 7 6 7 4 5 11 11 2 6 3 3 5
7 7 6 6 5 9 7 4 5 4 2 3 5 2 4 3 3 3 6 10 11 17 13 10 8 6 7 11 9 10 11 8 6 10 7 6 6 7 7 2 2 5 7 5 11 9 6 2 10 7 7 7 8 1
9 6 9 14 7 8 9 11 2 1 3 3 6 2 3 1 1 3 6 16 18 21 16 13 13 9 11 11 9 15 14 11 9 15 13 8 7 8 8 6 2 3 3 5 9 11 10 6 4 4 3 5 4 4
12 7 9 8 7 6 7 6 3 4 4 5 6 11 5 4 6 11 13 17 19 18 14 15 15 11 12 13 12 6 7 10 11 13 12 11 8 5 4 4 8 4 5 2 4 2 1 3 10 1 4 5 4 3
12 9 9 8 9 9 8 7 9 7 4 6 11 7 4 14 15 15 14 15 15 4 5 6 11 6 11 16 15 13 7 4 5 8 9 6 7 7 7 10 11 11 8 7 2 0 3 2 3 2 4 4 5 5
8 8 8 8 13 22 15 14 1 5 4 4 4 4 5 13 13 15 14 12 8 4 11 6 9 7 6 9 14 13 11 8 3 3 2 1 4 4 6 6 7 5 4 5 10 10 8 8 9 8 5 2 2 5
5 7 10 11 12 10 11 8 3 5 3 1 3 1 2 11 14 12 11 10 8 13 7 5 10 12 12 11 12 13 12 10 7 6 4 5 3 5 4 5 6 5 5 4 3 3 3 4 5 8 6 7 5 1
9 10 10 13 16 13 7 5 5 8 14 6 3 4 10 13 10 12 19 16 13 5 8 10 11 13 12 10 10 10 10 9 8 7 6 5 4 4 7 5 5 2 3 4 4 3 4 5 7 4 5 8 8 7
9 9 11 11 14 3 6 7 4 5 5 7 3 3 6 6 7 16 20 15 13 5 14 14 13 12 11 11 10 9 9 8 7 6 5 6 6 6 5 3 1 3 6 4 4 7 7 7 6 7 8 7 6 7

GFSWCAN_700_spd_063.txt.gz
Wind_Speed
17 16 15 13 11 10 12 13 13 9 6 5 7 9 11 13 15 16 14 11 11 7 5 7 10 9 8 11 8 6 3 8 15 8 3 3 3 5 6 8 8 7 7 7 8 11 12 19 14 13 20 25 24 30
20 14 13 13 10 9 10 11 12 10 5 6 7 9 11 11 13 15 16 13 13 7 9 5 8 5 0 4 9 6 9 9 12 12 9 6 5 4 6 5 9 3 9 12 6 5 15 12 21 24 27 26 27 31
13 15 12 11 8 8 9 10 12 10 5 5 6 8 10 10 11 12 15 14 12 11 2 5 12 16 5 6 5 4 9 6 8 7 11 7 7 9 6 8 12 13 12 12 18 21 23 25 28 28 34 34 34 36
8 12 10 10 7 7 7 9 11 8 7 7 7 8 9 10 10 10 12 13 13 13 9 11 10 8 10 7 8 8 8 6 7 10 12 11 11 7 8 7 9 13 19 16 16 18 25 27 28 30 33 36 39 42
10 10 10 9 7 7 6 7 9 9 8 8 8 9 10 11 11 11 12 11 11 11 13 12 8 7 8 10 9 7 4 9 9 11 13 11 12 13 10 11 12 14 18 14 16 22 19 19 21 26 31 34 37 39
12 9 9 8 7 7 6 6 9 10 9 9 9 9 10 11 12 12 14 6 13 13 14 12 12 7 9 11 10 12 14 12 10 13 14 11 16 15 10 9 11 13 15 16 19 20 18 16 20 21 24 25 26 25
10 9 9 8 8 7 6 5 7 10 10 10 10 10 11 12 13 13 14 16 15 14 16 11 8 9 8 10 9 6 9 6 11 14 14 14 15 10 12 16 13 13 12 12 18 21 20 22 21 20 24 18 16 19
10 9 9 8 7 6 5 5 7 10 11 11 11 12 12 13 12 11 15 18 16 15 15 8 8 11 12 14 11 7 7 10 15 18 16 16 14 14 7 12 10 11 11 16 20 22 24 24 24 26 23 21 16 17
10 9 8 8 6 5 3 4 7 10 12 13 13 13 11 9 12 12 12 13 12 13 10 11 12 13 15 12 13 12 11 14 16 21 21 15 18 11 11 12 7 10 9 12 16 18 23 23 21 21 22 21 21 15
9 8 9 8 6 5 4 5 7 10 12 14 15 13 6 13 12 13 13 10 10 8 13 17 13 17 19 19 19 12 12 13 13 18 14 21 19 14 11 6 8 11 12 10 11 12 14 18 19 21 24 20 19 20
9 10 9 7 7 6 4 5 8 10 13 15 18 17 17 16 15 9 6 5 4 7 11 18 15 15 19 24 27 25 11 9 8 10 17 5 9 10 6 5 6 5 6 8 14 18 17 18 17 24 22 25 18 15
12 10 9 6 7 5 5 6 8 11 13 16 17 15 14 9 4 5 5 7 8 4 20 17 8 12 21 23 18 11 5 7 4 6 4 2 3 9 2 2 8 10 10 7 6 18 16 14 17 20 21 22 24 17
9 9 7 7 6 5 5 7 10 11 12 15 13 9 10 4 5 5 6 12 14 28 25 16 11 16 19 12 8 6 4 3 8 1 3 1 9 11 11 8 6 9 6 14 9 11 12 14 12 19 23 17 23 20
9 9 8 7 6 6 6 8 11 11 11 12 8 10 5 6 6 10 30 23 21 26 16 15 15 14 16 10 8 5 5 5 3 5 4 15 7 6 6 4 4 10 13 14 15 3 12 13 11 13 21 16 19 15
9 9 8 6 6 7 8 10 12 11 11 8 4 5 3 7 15 24 29 20 14 17 20 13 8 15 12 5 7 7 7 6 7 7 12 16 6 13 6 4 1 2 5 14 19 8 2 4 11 13 12 11 15 14
10 9 8 6 6 7 8 11 12 12 11 9 5 5 8 12 12 18 20 20 17 11 9 10 5 4 5 7 7 7 6 7 14 13 14 12 9 9 7 5 5 6 7 10 15 21 2 4 5 6 7 11 13 10
10 10 7 6 5 6 9 11 10 10 5 3 7 11 14 12 22 15 12 23 16 20 21 15 9 9 7 7 8 10 11 15 12 12 12 13 13 15 14 8 11 8 9 10 9 9 6 4 7 12 4 4 7 7
9 8 7 6 6 6 8 8 8 6 6 7 13 8 4 6 5 10 11 15 14 14 19 19 12 8 6 9 14 15 16 16 13 12 15 19 10 13 15 7 5 3 5 11 17 10 9 9 2 7 3 4 9 11
9 8 7 5 5 5 6 5 4 7 5 5 9 9 13 5 21 14 6 15 17 17 15 12 9 13 11 13 14 13 17 19 21 19 20 22 24 20 11 13 5 11 9 11 19 13 7 5 6 5 2 3 3 4
7 6 6 6 6 6 4 4 6 7 3 8 8 13 7 2 11 10 5 10 10 8 10 14 14 15 17 17 19 20 21 21 16 19 18 20 25 6 16 18 13 13 15 18 18 3 6 13 11 9 10 9 8 2
7 7 6 7 7 8 8 7 10 8 10 10 7 14 10 4 5 11 16 7 14 17 14 19 14 21 20 9 21 12 17 15 15 21 24 16 12 10 9 13 15 7 15 16 11 7 8 7 5 3 8 4 5 2
6 6 5 6 7 8 9 11 13 9 10 12 7 2 2 3 10 14 8 9 16 19 20 23 23 13 12 16 16 18 22 18 19 23 23 12 11 12 17 15 17 10 7 17 14 13 6 11 3 2 5 1 7 8
6 5 6 5 6 6 5 9 10 7 14 2 5 1 2 6 12 7 4 9 13 16 19 23 20 13 16 13 17 17 18 18 23 22 22 14 21 15 16 12 12 4 9 16 19 11 9 11 3 5 3 2 4 6
9 7 4 4 6 4 5 5 7 10 10 6 5 5 3 8 6 3 1 8 13 14 20 22 10 9 8 13 14 17 21 13 12 18 20 21 23 12 13 10 5 9 5 7 12 10 4 15 8 6 4 3 3 5
10 7 6 9 9 7 9 7 11 9 7 6 7 5 4 5 4 3 7 8 17 22 19 14 9 10 11 14 13 15 12 4 9 17 18 12 18 14 9 5 9 3 6 11 13 12 9 10 5 5 5 4 7 8
8 7 6 3 4 4 6 7 9 6 4 7 7 3 2 4 7 5 8 14 19 22 19 12 9 7 13 15 15 14 11 12 17 15 10 7 10 10 4 2 2 1 5 10 9 6 14 12 7 5 6 9 6 1
11 6 6 10 10 6 5 5 6 9 5 9 12 3 9 6 4 8 12 17 17 19 13 9 10 8 10 13 16 17 19 19 23 25 23 18 14 11 8 5 0 4 7 4 11 11 9 7 7 6 7 6 7 6
11 10 7 7 9 7 13 9 6 9 3 8 8 4 3 3 7 12 14 13 15 16 13 13 14 11 11 12 12 7 11 16 19 22 23 22 21 15 9 10 7 5 9 9 9 8 7 6 6 5 8 7 7 5
11 12 10 7 10 13 8 10 11 8 3 2 4 4 2 7 11 13 13 13 15 12 13 13 14 13 16 16 13 11 4 2 7 14 10 12 19 11 12 12 13 13 12 12 8 4 3 4 3 4 3 3 6 7
9 11 8 6 9 17 19 20 14 8 2 0 6 11 6 7 12 12 12 14 12 10 11 9 7 4 6 13 15 13 9 6 2 5 9 13 10 10 7 5 5 3 6 11 11 12 10 10 9 9 10 9 6 7
9 5 7 10 18 14 14 5 13 16 14 17 5 6 11 7 9 9 18 14 12 14 9 10 13 10 10 11 15 16 12 9 7 7 7 7 8 7 5 6 10 9 6 5 4 10 4 3 8 9 9 8 6 4
8 8 8 14 13 15 16 10 12 21 10 11 11 17 8 11 11 9 11 12 10 11 9 9 14 11 11 11 10 12 11 8 7 7 8 8 8 6 6 9 5 5 6 7 9 9 7 8 9 8 10 10 10 10
10 9 10 11 9 11 8 9 10 3 6 8 8 3 4 9 12 11 10 12 12 9 13 12 9 10 11 10 9 10 9 7 6 5 5 6 6 6 7 6 3 2 6 4 6 9 11 10 10 11 11 11 11 12

GFSWCAN_700_spd_066.txt.gz
Wind_Speed
22 27 16 17 14 10 10 10 11 11 8 7 8 9 11 12 12 13 13 11 8 5 5 3 1 1 1 4 8 5 5 5 9 8 6 3 1 1 1 4 2 4 4 5 6 8 12 16 17 21 23 28 27 25
25 20 10 11 11 10 9 10 11 11 8 6 8 9 11 11 13 12 12 11 10 6 3 3 8 4 5 3 4 6 6 5 7 8 7 3 0 2 1 4 2 4 6 11 10 9 10 17 17 21 27 31 29 33
21 14 12 10 9 9 9 9 10 10 6 6 8 10 11 11 11 12 13 12 11 8 2 7 5 9 2 7 4 4 5 2 3 5 6 5 2 4 2 3 3 7 7 10 14 12 17 21 25 28 32 35 34 33
19 9 14 11 10 9 8 8 9 8 7 7 8 10 11 11 11 12 13 14 13 13 4 11 6 2 4 4 5 8 9 4 4 3 7 5 4 5 5 6 9 8 9 12 9 8 13 10 17 24 29 35 40 42
15 14 11 10 9 9 7 7 7 8 8 7 8 10 12 12 11 12 13 13 12 13 15 11 11 4 5 7 9 12 10 7 9 8 6 6 8 8 7 12 8 7 7 9 8 10 13 14 14 15 17 20 26 33
18 16 10 10 9 9 7 7 7 8 9 9 10 11 12 13 12 13 13 8 11 15 16 15 11 6 4 6 8 14 9 11 14 15 16 18 10 13 10 15 10 9 8 9 11 12 12 14 14 16 20 20 22 24
10 13 10 9 9 8 7 7 7 8 9 10 11 12 13 14 13 12 13 14 16 16 17 12 6 6 10 9 10 15 15 13 13 18 22 21 16 16 21 20 11 12 8 7 10 12 15 14 14 15 17 22 22 18
15 13 10 10 9 8 7 6 6 8 9 11 13 14 15 13 10 10 14 17 17 16 13 6 7 10 12 15 15 18 19 22 24 24 25 25 19 22 19 11 13 11 9 8 8 10 14 16 16 17 19 21 21 21
17 16 12 11 8 7 6 5 6 8 10 12 14 15 12 8 12 12 13 13 13 13 10 9 15 12 10 13 19 21 27 30 26 28 26 27 28 19 10 12 15 10 5 4 7 10 13 14 19 19 19 22 18 17
14 12 12 9 7 7 6 5 6 8 10 13 15 17 9 12 13 11 8 6 10 9 6 22 19 19 13 13 19 25 18 17 16 16 18 31 30 22 19 13 11 1 6 7 11 13 10 11 11 18 17 23 22 16
12 11 9 8 7 7 6 6 7 8 11 14 17 17 13 13 8 5 4 4 3 7 12 20 20 17 14 16 16 9 10 9 4 7 11 4 12 18 16 9 4 2 4 4 4 9 11 9 14 16 16 18 24 15
11 11 10 8 7 6 6 5 6 9 11 14 17 15 11 9 7 7 7 11 9 7 23 25 16 23 17 13 12 8 9 5 4 12 4 2 2 8 16 13 6 4 6 6 10 7 10 13 10 13 16 16 16 15
12 11 9 6 7 6 6 5 6 10 11 13 12 8 5 5 5 5 13 16 16 17 19 20 20 19 8 9 9 6 4 4 13 5 5 17 15 13 14 10 12 7 13 6 7 9 5 8 11 16 10 12 8 13
10 9 8 7 6 6 6 5 7 9 10 10 6 5 3 2 9 16 16 16 14 16 18 19 14 10 12 8 4 4 5 7 3 6 9 17 13 11 6 3 1 3 9 15 13 12 13 1 5 8 7 10 13 13
9 9 8 7 7 8 7 6 8 9 11 6 2 2 4 10 12 14 16 15 19 21 16 15 9 11 8 4 6 5 6 5 6 11 14 12 10 7 5 1 3 5 9 13 12 15 20 7 5 2 6 9 9 13
9 8 8 7 7 7 7 8 9 10 10 5 3 2 6 16 20 10 11 15 20 14 15 8 5 5 5 4 4 6 6 5 13 15 14 12 12 8 7 7 8 10 12 13 12 12 12 2 2 3 6 9 9 8
8 9 8 7 7 7 7 8 9 8 4 2 2 3 9 12 9 10 11 13 15 17 15 7 5 7 3 3 4 7 8 13 17 17 16 15 18 16 14 9 9 11 14 16 14 10 13 7 13 7 12 7 7 4
8 9 8 7 7 7 8 8 7 5 3 2 7 10 12 12 5 4 15 12 17 15 12 13 6 7 4 7 12 14 12 14 17 20 19 19 22 26 21 12 11 15 13 11 13 8 8 9 10 9 8 5 3 8
10 9 7 7 7 7 7 6 4 4 4 8 14 12 15 3 5 4 7 10 12 13 12 13 5 12 12 16 15 16 14 16 17 13 16 18 17 18 9 11 9 8 6 9 11 11 10 11 13 6 11 5 6 10
9 9 8 8 7 6 4 2 5 5 5 9 16 5 12 4 5 6 12 9 14 13 12 16 17 16 18 13 9 13 13 15 10 14 18 18 13 10 7 10 11 11 12 12 14 15 16 13 11 16 9 7 10 7
8 7 7 7 7 7 6 5 6 7 8 11 11 15 9 7 8 11 10 9 15 20 18 17 19 15 7 8 11 12 16 14 15 19 19 21 17 19 18 14 11 16 18 5 8 8 6 6 5 3 6 9 6 6
7 6 6 6 7 8 7 8 9 12 13 14 10 9 6 4 7 10 10 11 15 19 16 17 21 9 10 10 12 19 22 21 26 22 18 19 17 24 10 12 10 7 2 1 11 7 2 8 2 7 6 7 3 5
8 6 5 6 5 4 1 5 6 9 11 5 7 6 5 7 6 8 9 10 12 21 19 19 20 14 14 13 18 23 23 24 19 16 19 21 19 15 7 5 6 7 10 12 12 3 4 6 10 12 5 2 3 3
8 7 5 3 3 2 3 6 6 10 12 8 8 12 6 7 8 8 12 13 15 17 23 22 20 18 16 19 22 21 19 16 16 17 19 19 18 11 3 4 7 8 9 13 11 6 7 10 9 5 3 5 3 5
7 6 6 6 7 6 8 8 7 8 11 7 7 7 6 8 10 12 13 17 20 18 21 22 16 15 13 15 15 14 13 15 19 19 17 17 14 5 7 7 7 10 11 12 6 8 8 5 3 6 1 4 7 5
7 6 5 2 3 3 4 6 7 8 7 7 6 8 8 9 10 7 13 15 17 17 20 17 11 10 11 11 13 13 11 14 17 19 22 20 14 12 11 8 7 9 12 17 9 8 7 7 3 3 4 6 4 2
10 5 4 9 7 4 8 17 7 10 12 9 7 7 5 5 5 9 14 14 14 16 17 10 7 5 7 11 12 13 14 16 17 20 21 23 22 14 11 10 8 10 8 8 5 4 4 3 4 1 7 7 7 5
11 7 13 9 5 7 11 15 13 9 9 14 7 8 4 5 6 8 11 11 12 14 10 6 8 7 9 10 13 14 13 14 16 19 21 21 22 15 11 11 11 14 12 9 9 7 6 3 5 7 10 10 9 6
9 8 14 12 8 7 12 13 9 2 2 1 6 9 8 9 7 11 13 13 14 10 8 8 9 10 10 10 13 15 13 13 14 15 17 17 18 13 11 11 11 11 12 12 8 3 4 4 6 8 8 9 9 9
7 11 14 13 12 9 11 9 14 16 18 15 9 6 5 7 8 13 13 15 12 13 13 13 12 11 14 13 11 9 8 10 11 12 14 14 12 10 9 10 10 11 11 10 10 9 6 7 9 12 12 9 8 6
9 10 11 10 9 10 15 11 12 12 12 11 7 7 10 4 8 9 12 12 12 11 10 11 9 10 13 14 12 8 6 7 7 7 7 6 7 9 7 7 11 11 9 10 12 12 11 12 11 8 7 9 9 10
16 12 8 8 13 11 12 14 11 11 14 15 7 11 12 9 5 6 10 12 14 15 12 8 7 10 12 12 11 7 5 5 5 5 5 6 7 7 8 8 9 7 6 9 9 10 10 9 11 12 12 12 13 13
10 5 10 10 11 13 8 11 11 14 13 8 2 7 9 9 4 5 9 12 13 14 11 7 7 8 11 10 9 8 6 5 4 3 3 3 3 4 6 7 7 6 6 7 7 8 10 11 11 11 11 11 11 11

GFSWCAN_700_spd_069.txt.gz
Wind_Speed
27 22 20 24 16 10 11 9 9 11 11 8 8 9 9 9 10 11 12 11 8 4 2 3 6 8 5 2 4 4 1 5 5 2 2 2 3 5 6 6 6 5 5 8 10 8 13 16 16 22 30 31 30 27
29 22 23 19 10 9 9 8 9 11 10 6 7 9 9 9 9 10 9 9 9 7 4 4 6 8 5 4 2 3 3 2 2 3 2 2 3 4 7 4 10 5 7 5 8 8 13 16 19 20 25 32 33 33
27 21 20 13 6 9 8 7 8 9 8 7 7 9 10 10 10 11 10 9 9 7 3 6 7 6 4 6 5 6 4 2 3 1 2 2 1 3 4 8 11 10 10 10 12 10 17 21 24 26 29 31 33 36
22 19 16 11 8 9 7 7 7 8 8 8 8 9 10 10 11 12 11 10 9 8 3 8 7 8 6 3 3 6 8 7 6 6 6 3 4 4 6 9 11 12 11 11 14 12 12 13 15 14 16 20 27 33
21 16 13 8 9 8 7 7 6 7 9 9 9 10 11 12 13 13 12 10 10 8 12 10 10 8 8 7 6 5 6 9 11 11 10 10 10 10 11 14 9 11 11 11 12 10 10 11 12 15 16 17 19 22
17 16 17 9 9 8 7 7 6 7 8 9 10 11 11 12 14 15 13 9 12 14 14 13 5 6 6 6 7 7 7 10 13 15 15 16 15 13 11 14 7 10 12 12 12 10 11 12 12 13 14 15 15 20
13 19 14 10 9 7 7 6 6 6 7 9 10 11 12 13 14 12 12 14 14 12 12 6 1 3 5 7 10 10 13 20 18 18 23 20 18 20 28 26 12 11 12 14 13 12 10 12 11 13 13 13 13 15
12 14 11 9 8 7 7 5 5 5 7 9 10 12 13 12 9 12 13 15 13 11 7 4 4 8 9 10 14 16 20 23 27 32 34 31 28 29 28 26 16 13 13 12 13 11 8 7 10 11 12 15 15 14
19 21 17 8 7 8 7 5 4 5 6 8 10 12 12 12 12 16 13 11 9 8 4 5 11 12 10 11 12 16 19 26 29 33 32 35 27 29 30 22 10 12 11 9 8 6 5 6 9 12 12 15 19 17
17 18 16 9 9 9 7 5 5 6 7 9 11 14 12 14 11 6 4 8 12 11 9 14 21 20 15 16 16 13 12 8 14 10 9 15 27 29 25 25 15 6 5 4 3 3 3 5 5 9 12 14 18 16
19 12 10 9 8 7 6 6 5 5 8 10 12 13 11 8 5 5 9 10 5 6 8 18 20 19 20 18 15 5 6 6 6 6 13 7 8 13 12 14 13 6 7 6 8 8 8 9 7 9 12 12 13 12
15 9 9 8 7 6 6 5 4 5 8 10 11 8 6 6 6 4 9 8 5 6 17 22 24 22 17 11 5 4 4 5 3 12 6 7 20 13 14 14 18 12 10 8 10 11 10 10 10 7 11 9 7 12
15 11 9 7 6 5 5 5 3 6 8 9 7 5 3 4 6 5 7 8 11 17 19 22 20 16 9 9 6 3 3 3 9 3 6 14 19 13 13 8 6 9 10 12 6 11 15 14 11 8 2 6 9 10
10 9 7 7 5 5 5 3 4 6 8 7 3 1 2 2 5 7 9 9 14 17 21 17 15 11 12 5 4 3 5 5 3 4 7 15 11 9 8 1 3 7 9 13 11 12 13 11 12 8 4 6 4 7
7 7 7 6 5 5 5 3 5 7 8 6 3 2 1 4 12 13 7 12 16 17 17 19 11 8 6 2 3 4 5 4 4 9 12 11 10 10 8 7 9 11 12 13 16 14 12 14 9 13 9 4 5 4
5 6 7 6 5 5 4 4 6 7 7 4 3 2 5 9 12 13 10 13 15 17 17 11 5 5 3 3 3 3 7 4 12 14 14 14 15 14 13 16 17 19 19 15 14 15 14 10 12 13 10 9 6 4
5 7 7 6 5 4 4 5 6 6 2 2 3 4 9 13 10 7 10 12 14 16 12 5 4 4 5 4 6 7 11 13 15 17 20 22 20 20 19 20 29 22 23 19 20 15 14 14 15 14 7 11 7 4
6 8 7 5 5 4 4 5 5 3 3 4 4 9 12 8 4 7 8 9 14 17 15 12 6 8 6 8 12 14 16 15 16 19 16 18 18 18 17 20 16 13 18 14 21 21 22 13 13 13 12 8 10 4
8 8 7 5 4 5 4 4 4 3 4 4 4 9 6 2 6 5 5 4 12 12 13 10 6 10 11 13 12 11 14 15 18 15 19 21 18 14 16 18 14 8 10 14 15 14 9 5 12 13 13 12 7 4
9 8 6 5 5 5 4 4 5 4 3 5 6 4 10 5 6 6 8 8 8 11 13 11 14 16 11 9 10 11 13 18 16 17 20 17 17 16 18 19 15 12 14 10 13 17 10 8 9 15 16 11 4 8
8 8 6 7 7 7 6 7 5 5 5 7 6 9 11 5 6 6 8 7 7 11 19 17 16 20 10 13 15 17 22 23 22 23 19 19 20 25 18 9 7 9 12 13 2 2 1 1 2 18 13 6 3 6
7 6 5 6 6 8 7 9 8 12 12 14 14 9 7 5 3 7 11 12 12 13 18 23 20 17 12 13 15 19 22 22 23 18 19 21 21 18 14 12 12 11 13 10 6 4 7 9 5 8 9 6 3 6
7 5 5 5 5 3 2 5 6 7 9 8 10 10 10 8 8 9 12 15 16 15 16 21 24 16 13 14 17 18 18 15 15 17 16 13 15 14 12 11 10 8 6 8 7 3 3 1 6 1 3 3 1 3
7 7 6 4 4 2 4 6 7 6 9 9 9 9 7 10 11 12 16 17 17 18 18 20 24 19 15 14 16 15 12 12 14 14 15 15 16 12 11 8 8 7 7 7 4 4 4 6 11 7 5 1 6 9
7 6 6 7 7 6 8 8 6 7 9 9 11 11 10 9 10 14 17 15 16 16 16 19 24 18 12 12 13 13 11 12 14 14 16 15 13 11 8 10 10 9 8 9 9 7 3 6 9 7 5 5 6 7
8 8 6 5 5 5 3 2 6 10 6 5 4 7 10 10 11 9 12 14 14 14 16 18 18 14 11 11 12 12 11 11 14 15 20 19 14 11 10 8 6 7 10 8 6 6 4 4 3 3 5 7 5 4
12 6 8 11 8 7 6 6 9 9 9 5 5 5 5 4 4 7 11 12 14 14 14 13 10 9 8 9 11 12 12 12 12 13 16 19 18 14 11 10 8 7 7 6 3 1 2 3 2 4 6 5 4 4
12 9 9 11 13 9 9 11 13 8 5 10 11 10 6 4 4 8 11 13 13 13 11 7 4 4 5 8 10 10 10 11 11 12 15 18 20 14 10 10 9 8 8 8 7 4 2 1 3 7 8 8 7 7
11 9 14 14 13 9 8 9 11 12 12 9 7 6 8 7 5 9 11 12 10 10 10 9 9 7 6 7 9 11 12 10 10 11 14 16 16 13 7 9 10 10 11 12 11 11 10 9 9 9 8 10 9 8
8 11 15 16 16 13 8 11 14 15 18 12 12 14 9 9 5 6 9 9 10 11 9 8 10 10 9 10 11 13 14 11 9 9 11 12 12 9 5 7 8 8 10 12 11 9 9 8 9 11 13 11 8 8
7 11 11 12 13 12 11 14 17 15 15 10 8 10 13 9 6 5 8 10 11 13 12 10 7 8 11 13 14 13 13 13 12 8 6 6 7 6 4 5 7 8 10 12 12 12 12 12 12 11 10 10 10 10
10 9 10 9 8 11 14 14 16 15 10 8 9 12 13 13 12 10 8 10 12 13 15 12 8 7 10 15 16 15 13 10 6 5 3 3 3 3 4 4 6 7 6 7 8 9 9 9 10 10 10 10 10 9
7 8 5 9 10 12 13 13 14 14 14 13 13 8 9 10 13 10 8 10 12 12 13 11 9 10 12 15 18 16 13 10 7 5 4 2 2 2 2 2 3 5 5 5 5 7 7 8 9 10 10 11 10 9

GFSWCAN_700_spd_072.txt.gz
Wind_Speed
27 25 27 20 21 16 5 8 8 8 10 6 4 6 7 9 10 8 8 8 8 7 4 5 7 8 3 2 3 3 1 2 3 2 2 3 3 6 6 6 6 7 6 7 10 9 9 10 15 22 23 26 29 29
27 26 26 17 17 6 6 7 6 7 8 4 4 5 7 9 9 8 7 7 7 6 5 5 7 7 6 4 2 2 2 1 1 1 2 2 2 2 5 4 8 5 9 4 7 4 7 9 12 15 19 23 25 27
25 24 25 15 16 4 5 6 5 6 7 5 5 6 7 9 10 8 7 8 8 6 8 4 7 6 6 5 7 5 5 5 3 3 2 1 3 4 3 3 7 8 10 11 9 7 11 13 14 13 15 20 26 31
22 22 22 14 9 4 6 5 4 5 6 5 5 6 7 9 10 9 8 9 8 8 6 5 9 9 8 6 5 5 7 8 7 6 8 9 7 6 6 8 10 11 11 10 10 9 11 11 14 16 18 19 18 18
20 20 15 9 8 5 6 4 4 5 5 5 6 8 9 11 12 11 10 10 8 7 10 10 11 10 7 10 9 8 8 6 7 9 11 11 12 12 13 16 12 9 11 14 12 11 9 10 11 13 14 16 18 21
17 16 16 14 9 4 6 4 4 5 5 6 8 9 11 12 14 12 9 9 10 11 9 4 3 4 5 8 11 9 7 11 13 13 13 14 13 15 13 16 8 8 11 10 12 13 12 12 14 14 13 15 16 18
16 16 14 15 5 5 6 5 4 4 4 6 9 10 12 14 12 8 10 11 11 10 9 2 3 4 6 8 11 13 13 16 17 23 25 22 23 28 30 29 19 15 15 13 14 14 13 15 14 12 13 14 14 15
17 13 16 12 5 6 5 4 4 3 4 6 9 11 14 13 10 10 13 11 8 6 5 4 4 13 8 11 14 15 21 25 23 29 28 29 29 38 36 36 26 17 15 17 16 13 14 15 13 12 12 13 15 16
19 15 20 15 7 6 5 4 5 3 4 8 10 12 13 10 10 8 6 8 9 8 5 7 15 12 17 16 16 21 21 24 23 12 17 19 22 19 27 28 29 29 11 16 14 12 12 11 10 10 11 13 16 15
16 19 19 20 5 5 5 5 5 3 5 8 10 12 10 10 3 5 7 10 6 7 7 15 15 17 17 15 14 12 5 3 7 13 9 10 14 15 19 22 22 24 18 9 8 9 8 7 6 8 12 14 13 10
17 18 14 13 8 7 6 6 4 3 5 8 10 10 8 2 4 5 8 7 7 6 10 16 18 21 17 13 9 4 6 6 4 5 7 4 10 21 20 16 12 18 11 10 10 10 10 10 9 9 12 13 8 7
17 15 15 10 7 5 6 4 3 3 6 9 10 7 2 3 4 4 7 7 6 6 16 19 22 18 13 10 6 5 3 3 3 12 5 4 19 22 20 8 10 16 15 15 17 11 11 12 14 14 12 12 6 8
21 19 7 6 5 5 5 4 3 4 7 9 8 3 2 3 6 6 6 7 9 14 16 19 20 15 10 9 5 4 3 4 11 3 6 11 18 17 19 10 11 15 15 15 14 17 15 15 14 13 14 13 8 9
5 5 5 5 4 4 5 4 3 5 7 8 3 1 2 3 5 11 9 7 11 14 16 17 15 8 10 6 4 4 5 7 3 3 7 15 14 13 13 11 7 10 13 15 17 18 16 14 14 15 16 14 11 11
5 5 5 5 4 5 5 4 4 6 7 6 2 2 3 2 5 10 11 8 12 14 17 18 12 8 7 4 3 4 4 3 3 8 18 17 17 17 17 17 16 16 16 17 19 20 19 14 15 17 18 17 13 10
3 4 4 4 4 5 5 5 5 7 8 4 3 3 2 5 10 11 8 8 12 16 18 12 6 5 4 4 3 3 5 4 9 20 21 23 20 21 22 20 20 23 24 26 34 25 23 18 17 17 18 18 15 12
4 4 5 5 4 5 5 5 5 6 3 2 1 2 6 9 9 6 5 9 12 13 16 9 4 3 7 4 5 5 12 19 19 18 21 19 21 21 20 21 24 24 24 27 19 26 27 22 24 21 19 17 18 18
4 5 5 5 5 4 5 5 5 4 3 3 0 5 7 2 2 4 6 8 11 12 15 16 11 8 8 10 13 16 13 17 18 18 17 20 24 21 18 16 15 18 20 19 18 10 13 15 22 24 26 24 12 9
5 5 6 5 5 5 5 5 5 4 4 7 5 4 2 4 1 2 2 2 8 13 16 18 7 12 12 13 13 12 12 15 16 16 19 21 20 20 18 19 22 18 16 13 11 15 12 10 5 2 6 9 8 6
7 7 6 6 6 6 5 5 6 5 4 4 3 4 5 4 6 5 5 3 5 9 13 14 17 15 15 12 13 12 13 18 20 22 21 20 19 20 18 13 12 11 14 15 15 15 14 14 11 12 12 16 14 6
7 8 8 7 6 7 7 6 6 5 5 6 5 6 11 6 6 7 8 8 10 10 12 13 22 21 16 14 13 14 17 20 21 23 22 20 19 16 13 11 9 7 11 11 8 8 4 4 4 7 16 14 11 4
8 8 7 7 7 9 8 9 8 9 10 10 10 9 8 8 9 7 8 10 10 12 15 15 16 22 15 12 14 16 18 19 19 19 18 17 13 10 7 6 7 9 10 13 15 17 7 8 7 12 12 7 5 5
9 7 6 6 6 5 4 5 6 6 7 7 8 11 9 9 8 9 10 7 10 13 15 15 15 19 13 12 14 15 15 14 15 15 13 11 10 10 9 9 11 12 12 11 10 9 9 9 10 8 6 4 4 5
9 8 6 5 5 4 6 6 5 6 7 8 8 8 8 11 10 10 14 11 13 14 13 12 14 16 11 11 14 15 13 13 13 14 11 9 8 8 8 8 9 10 9 11 12 14 17 11 9 6 4 2 5 5
8 6 6 7 7 7 8 7 4 5 10 11 12 10 9 8 10 11 7 7 10 10 10 12 15 14 10 10 12 12 12 11 12 14 13 11 10 10 8 7 9 9 8 8 8 10 10 8 7 5 4 7 8 5
8 7 6 5 6 5 4 1 3 9 6 8 7 7 9 11 8 3 7 10 12 12 11 12 14 12 9 9 10 10 10 10 11 13 13 11 10 9 7 6 4 6 4 5 6 7 8 9 10 8 10 12 9 7
11 7 7 8 7 6 6 4 7 9 12 13 10 8 9 4 3 2 7 11 13 10 9 11 9 8 8 8 10 9 9 9 11 12 11 11 11 9 8 8 6 5 4 2 4 6 7 6 6 9 9 5 4 4
12 8 8 9 13 11 10 9 11 13 6 6 10 9 5 3 4 7 11 12 10 9 10 9 6 6 7 8 10 11 10 8 8 9 10 10 11 10 9 8 7 6 5 4 3 3 3 4 5 5 6 6 5 5
11 10 11 11 13 15 13 9 8 9 9 10 13 10 8 8 8 10 12 9 10 10 9 8 5 5 7 9 10 10 10 9 8 8 8 9 10 9 8 6 6 7 7 6 6 5 5 7 9 9 9 8 7 7
9 9 12 14 16 14 11 10 10 14 16 16 14 8 9 11 14 9 8 7 8 9 9 7 6 5 6 8 9 10 10 9 8 7 7 7 8 7 6 4 4 7 7 7 8 9 9 9 9 11 11 10 10 10
7 10 12 12 14 12 11 12 13 14 13 15 12 10 8 7 8 8 8 9 9 8 9 9 5 4 6 8 10 11 12 12 10 8 6 5 5 5 4 3 2 4 4 6 7 8 10 11 11 11 11 11 12 11
9 9 8 6 5 6 8 13 16 15 13 13 13 12 12 13 12 12 11 9 7 6 7 7 7 4 6 9 11 13 14 14 12 10 7 5 4 4 3 2 1 1 3 4 5 6 7 8 8 10 11 12 12 11
7 8 8 5 7 8 11 15 15 16 15 16 15 14 14 13 12 10 9 6 7 6 6 6 8 8 9 10 11 12 14 14 13 11 8 6 3 3 3 2 3 3 1 2 3 5 6 7 9 11 12 12 11 10

GFSWCAN_700_spd_075.txt.gz
Wind_Speed
23 26 25 23 23 17 12 3 3 4 7 5 3 4 3 5 5 6 7 5 5 4 1 2 2 6 2 1 2 2 1 2 3 1 4 3 4 8 8 9 9 12 10 10 12 7 9 14 16 14 14 14 15 17
26 27 23 22 19 12 5 3 2 4 6 3 3 3 5 5 7 7 7 6 5 4 3 2 2 1 3 1 2 1 1 0 0 1 2 2 3 5 7 5 12 9 11 7 9 9 8 10 13 14 16 18 21 23
27 24 19 21 15 9 2 3 2 3 4 3 4 4 5 6 7 7 8 7 5 5 5 4 2 2 3 2 4 5 4 4 4 3 2 2 2 4 4 6 9 12 12 11 12 14 16 16 15 16 17 17 16 16
25 20 17 16 12 7 1 2 3 3 4 5 5 6 7 8 8 8 9 9 6 4 3 3 6 6 6 6 5 5 5 5 6 7 6 6 7 6 6 5 8 10 9 9 13 13 13 13 15 17 16 18 18 18
20 16 16 12 7 9 2 4 3 2 3 5 5 6 7 8 9 9 10 7 4 4 5 7 8 9 7 6 8 7 6 7 5 5 6 8 7 9 12 15 15 14 12 13 12 14 15 15 12 11 11 13 14 15
15 14 15 11 11 10 3 5 3 2 3 4 6 7 8 9 10 9 6 5 5 4 3 1 2 3 2 4 7 11 11 11 12 13 13 15 11 9 9 15 17 6 8 9 11 14 16 16 14 13 13 12 13 15
13 15 16 13 17 12 4 5 3 2 3 5 6 8 9 10 8 6 6 8 5 3 4 5 5 8 7 6 9 11 14 19 20 20 23 20 23 21 23 30 23 25 20 20 15 14 15 16 15 14 13 13 14 15
15 15 14 14 15 15 5 6 4 3 3 4 7 9 11 10 8 6 4 5 5 6 8 6 3 5 8 8 8 10 17 20 26 30 28 18 18 21 27 28 23 17 17 23 19 16 15 18 17 14 13 14 13 14
15 14 11 13 18 13 6 6 5 4 4 6 8 10 11 9 8 2 4 5 8 9 6 6 8 6 12 11 11 12 9 13 2 2 4 3 13 9 16 20 20 20 24 24 22 18 17 18 15 14 12 12 11 12
15 12 9 17 20 10 6 7 5 4 4 6 9 10 8 8 4 4 4 6 7 8 9 9 11 12 12 10 5 7 5 5 3 3 7 7 5 13 21 22 22 18 15 18 26 12 11 12 12 11 11 11 12 12
15 13 12 22 22 18 8 7 5 3 4 7 8 9 5 2 2 4 5 5 5 3 8 13 16 15 12 8 5 3 3 3 2 3 5 3 4 21 20 20 16 10 8 16 16 17 14 11 10 12 13 14 13 12
10 12 18 23 20 9 6 7 4 3 4 7 9 5 2 2 4 3 4 4 4 5 13 15 17 16 10 9 3 3 1 2 3 6 3 2 15 19 19 21 10 6 8 10 12 11 11 15 12 12 13 15 15 12
20 24 17 11 7 5 6 5 4 2 4 7 5 1 3 2 4 4 4 3 6 11 13 15 17 13 6 6 3 2 1 3 7 2 2 8 17 18 17 17 15 10 9 10 14 16 18 18 19 17 16 16 16 14
22 12 6 6 5 5 5 5 3 3 6 6 2 1 3 4 2 3 7 5 7 10 13 16 13 5 6 4 3 3 4 5 2 2 2 17 18 18 18 18 17 15 12 11 15 16 18 21 14 18 20 18 17 16
6 4 5 4 4 5 5 4 3 4 6 5 2 2 4 4 1 6 8 6 9 12 16 11 7 4 4 2 2 4 3 3 3 4 18 20 20 22 19 19 21 17 17 19 21 20 22 23 23 23 24 25 19 18
3 3 4 4 3 3 4 4 4 5 7 5 2 3 4 0 5 7 6 5 10 14 14 10 5 3 3 3 3 3 4 3 10 20 19 20 21 19 21 20 19 17 20 23 25 26 25 30 34 26 23 21 18 21
2 3 5 4 3 3 4 4 5 5 3 1 3 3 1 5 7 3 3 6 9 11 14 9 4 2 6 3 4 4 8 16 16 17 19 18 19 22 20 18 17 16 16 22 22 23 20 20 18 15 21 22 23 24
3 4 5 4 3 4 4 5 5 4 3 2 3 2 3 2 1 3 2 3 7 12 15 15 9 8 7 8 11 12 13 11 13 17 17 19 20 20 20 20 20 23 19 19 19 18 16 11 13 11 14 19 21 26
5 4 5 5 4 4 4 4 5 4 3 6 6 5 3 5 6 4 2 2 7 9 11 12 8 15 13 11 10 11 11 11 15 16 19 22 18 18 19 19 16 15 13 15 15 16 14 11 14 13 4 3 8 24
4 5 5 5 5 5 4 4 5 5 4 7 7 6 6 5 8 9 7 9 12 13 13 11 12 18 21 13 9 10 11 14 17 17 18 19 19 19 17 15 12 11 13 15 14 13 12 7 4 5 5 6 5 15
6 7 6 6 6 6 5 5 6 5 5 8 8 8 8 9 8 9 10 10 13 12 10 10 10 16 21 16 12 12 14 16 17 17 17 17 17 16 16 13 11 11 12 15 16 10 8 10 7 0 1 3 12 11
8 7 6 7 8 8 7 8 8 8 7 8 6 8 8 7 9 9 10 9 7 7 9 9 11 14 19 16 12 14 15 15 15 14 14 13 13 13 11 11 12 12 11 11 14 13 12 11 16 15 15 13 9 9
8 7 7 7 6 4 4 6 6 5 4 3 5 7 7 6 8 7 9 8 10 10 9 7 8 13 17 13 11 13 13 12 12 12 12 11 11 11 10 11 13 12 11 12 10 6 8 10 10 10 9 9 6 4
8 7 6 4 5 4 6 6 5 4 5 5 9 10 9 9 8 8 7 3 5 8 9 9 9 12 12 10 9 12 11 9 9 10 10 9 9 10 8 10 11 9 9 10 12 11 10 7 8 6 3 5 7 7
8 6 5 6 6 5 8 7 5 5 7 9 10 9 8 7 8 9 1 5 9 10 10 10 9 10 9 7 8 9 8 7 9 10 10 9 9 8 7 8 8 8 7 6 8 9 8 7 6 4 6 9 8 5
8 7 6 5 6 7 6 3 3 3 7 8 8 9 9 9 8 3 3 7 10 12 12 9 8 6 5 6 7 6 5 6 9 10 11 10 9 7 6 7 6 5 4 5 5 5 6 7 8 9 12 9 7 6
11 6 7 10 6 7 9 7 6 8 10 11 7 9 8 4 4 5 6 8 12 13 9 8 7 5 4 5 5 5 4 6 8 9 10 9 7 6 6 6 5 4 3 2 4 5 6 7 9 10 9 8 7 7
12 8 9 8 11 11 10 9 8 7 5 4 7 8 7 4 6 8 8 10 11 10 9 9 7 6 4 3 4 5 6 6 7 9 9 9 7 5 5 5 5 4 3 4 4 5 6 7 7 8 8 7 7 6
12 10 10 9 11 14 14 12 6 5 10 11 14 13 11 9 7 7 9 8 8 7 8 9 7 4 3 4 5 6 7 7 7 8 9 8 7 4 3 4 4 4 4 4 5 6 6 7 8 9 9 8 8 8
9 10 11 12 13 13 11 11 9 9 11 15 15 14 11 12 12 13 9 7 7 7 6 7 6 4 4 6 8 8 8 7 7 6 7 7 7 5 3 3 3 3 4 4 5 6 7 7 7 9 11 11 11 11
8 10 11 10 9 7 10 10 10 11 14 17 18 17 14 13 12 10 9 10 9 8 7 6 5 4 5 6 7 8 8 7 7 7 6 6 6 5 3 2 1 2 2 3 3 4 6 8 10 11 12 12 11 10
8 8 7 6 5 6 6 7 10 14 15 16 17 17 16 16 16 17 14 14 15 9 8 7 4 4 6 6 7 8 8 8 6 6 6 5 5 5 3 2 1 1 1 1 3 5 7 8 10 10 11 11 11 10
4 5 4 4 4 4 7 12 16 19 18 21 21 17 14 12 14 14 11 10 10 12 12 12 8 6 8 8 8 9 10 9 8 6 5 5 5 5 5 4 3 2 2 3 5 5 6 8 9 10 10 11 11 10

GFSWCAN_700_spd_078.txt.gz
Wind_Speed
24 26 26 24 19 19 11 3 3 2 4 5 2 2 2 3 4 4 3 2 1 1 2 1 2 3 4 4 3 0 3 3 3 3 4 3 3 10 8 7 8 8 8 10 11 10 11 12 13 13 15 11 12 11
26 26 25 20 18 15 7 4 3 2 3 3 2 1 2 3 4 5 4 3 3 3 3 3 2 2 1 4 3 2 2 3 3 2 3 3 4 6 6 4 14 8 9 8 9 6 13 9 18 22 18 16 16 16
27 25 21 16 18 9 5 5 3 3 3 2 1 1 2 4 5 6 6 4 4 4 4 5 6 3 3 3 4 2 4 4 4 4 3 2 2 4 5 8 7 12 13 12 10 10 14 12 11 14 15 17 17 16
25 21 16 14 13 8 9 7 6 4 3 2 1 2 3 5 6 7 7 5 4 3 2 6 7 6 5 4 5 5 5 4 5 5 4 3 4 6 6 6 6 8 9 12 16 15 12 16 16 16 14 13 13 15
20 13 11 12 11 8 14 11 6 5 4 1 2 2 4 5 7 8 6 2 1 1 3 4 7 6 6 6 6 6 6 5 6 3 2 5 7 7 9 10 10 6 11 15 10 9 13 14 13 13 13 13 13 14
15 10 10 11 8 11 15 11 7 5 3 1 2 4 5 7 8 6 2 2 3 2 2 2 2 4 3 2 4 7 10 10 10 11 11 13 12 10 7 9 7 8 9 10 11 14 15 17 17 14 14 16 16 14
14 11 12 11 9 15 21 11 6 5 3 1 3 5 7 9 7 4 4 5 2 2 9 6 1 5 3 3 4 7 10 15 18 22 21 21 20 19 20 21 16 21 20 21 23 20 18 17 18 19 19 17 15 13
14 13 11 12 10 16 20 8 6 6 3 2 4 7 9 7 5 2 5 5 4 9 7 4 2 3 6 4 6 7 10 11 15 23 19 18 19 12 6 10 11 15 16 19 19 22 23 19 21 19 18 15 13 11
14 13 11 12 11 18 19 8 7 6 3 3 5 7 7 6 3 7 5 5 7 5 5 3 2 6 9 7 7 6 7 4 2 4 3 3 2 1 9 15 15 15 16 17 21 21 25 26 23 19 16 14 11 9
13 12 10 9 18 23 15 10 8 6 3 2 5 6 5 3 6 6 6 6 5 6 7 4 8 4 8 7 6 6 4 3 3 3 6 4 4 4 17 17 17 16 18 17 18 22 21 28 23 16 14 13 11 9
12 11 12 13 18 25 18 10 8 5 1 2 4 5 2 4 3 4 3 2 1 1 5 9 10 9 10 6 6 4 3 3 1 2 1 3 2 10 15 16 17 13 9 3 8 11 13 20 20 15 15 14 13 12
5 7 12 23 25 20 7 8 6 3 0 3 4 1 5 3 3 3 3 2 1 1 8 11 13 13 9 6 3 2 2 2 2 5 2 2 7 15 16 15 15 14 9 5 5 7 8 9 13 16 17 17 17 15
7 15 20 21 18 7 7 6 5 3 1 4 2 4 4 2 3 2 2 2 2 8 11 13 12 13 5 4 2 2 2 4 6 3 3 3 12 13 17 18 15 12 9 6 7 8 11 17 19 21 23 20 18 18
13 15 13 10 7 6 6 6 4 1 2 2 2 3 3 3 2 1 5 5 6 10 12 14 9 4 5 3 3 2 3 3 1 3 3 9 17 17 18 17 16 15 14 10 10 13 14 15 19 22 22 18 18 21
5 5 7 6 5 6 5 4 3 2 3 1 2 3 4 6 1 5 7 8 6 11 12 10 5 1 3 2 2 3 2 2 3 5 11 15 20 20 20 18 19 19 17 18 19 20 21 22 26 27 25 23 26 24
3 3 4 4 4 4 4 4 3 3 4 2 3 5 6 4 3 4 5 3 7 8 10 7 2 1 2 2 2 3 3 3 7 11 14 15 20 19 20 20 16 16 15 16 20 25 26 28 27 30 28 34 33 31
2 4 6 4 4 4 4 3 3 4 1 2 4 7 5 4 6 4 2 2 4 10 6 3 3 2 5 3 4 4 4 8 11 10 12 18 19 20 19 17 17 18 18 21 22 25 27 31 27 22 23 22 24 32
1 1 4 4 4 4 4 4 3 3 3 4 7 5 1 3 4 1 3 3 2 7 8 5 5 5 4 5 6 8 10 9 10 11 16 17 19 19 19 19 16 14 13 11 12 15 15 14 17 19 11 13 12 18
6 4 4 5 4 3 3 4 5 4 4 6 9 6 4 3 5 5 6 8 6 6 10 10 4 5 6 8 10 8 8 6 6 12 15 17 18 18 16 13 12 11 11 12 12 12 12 11 12 9 9 8 8 14
6 5 4 5 5 4 3 4 5 5 4 7 10 9 7 6 6 8 12 12 11 12 14 13 8 9 9 12 18 10 8 9 8 6 14 17 17 15 13 10 9 10 10 12 13 11 10 9 5 4 5 9 3 7
7 7 6 6 6 6 5 5 5 5 5 8 9 9 9 9 11 11 12 13 15 15 10 9 9 12 13 16 20 14 12 11 11 10 11 14 12 11 9 9 10 10 10 11 10 10 16 13 6 7 9 6 7 11
9 7 6 7 6 7 7 8 8 7 7 8 8 9 9 7 7 10 12 14 15 8 9 11 12 14 13 16 18 13 12 11 10 10 9 9 10 9 6 7 7 8 8 7 7 9 11 14 15 14 13 10 7 4
8 7 7 7 6 5 6 7 6 5 4 3 3 4 4 2 4 7 7 7 8 9 11 12 12 13 12 16 14 11 11 9 9 9 7 6 7 7 7 6 5 5 7 8 5 4 5 6 7 7 6 6 5 3
8 8 7 5 7 6 6 7 6 6 5 5 5 5 5 5 5 6 6 5 6 7 10 12 12 11 12 14 11 10 10 8 7 7 5 5 6 6 6 6 5 4 5 8 5 4 4 4 6 4 5 4 2 2
9 7 6 8 7 7 8 7 5 5 5 5 5 3 3 4 5 8 6 5 6 9 11 11 11 10 11 10 9 9 8 6 6 5 2 3 3 4 5 5 5 5 5 4 4 3 3 5 3 2 3 2 1 1
9 8 7 6 8 8 6 4 4 5 4 6 5 4 5 5 6 4 5 6 8 11 11 10 10 9 7 7 8 7 6 5 4 3 1 2 3 2 2 3 3 4 4 4 3 2 3 3 3 4 6 9 6 4
10 7 10 11 7 6 8 9 7 6 7 7 4 5 4 3 3 4 6 7 9 10 10 10 9 7 5 5 6 6 4 3 3 2 2 1 2 2 2 2 1 3 3 4 4 3 3 3 4 4 5 4 4 3
12 9 11 10 9 10 10 9 9 6 5 6 6 7 6 3 4 9 11 11 10 9 9 9 7 5 4 4 5 5 4 2 1 2 3 3 1 1 1 1 1 2 2 2 3 4 4 4 4 5 5 4 5 6
10 11 11 9 9 12 13 13 11 7 7 10 10 11 9 12 13 15 14 12 12 10 9 7 6 5 4 3 4 4 3 2 1 1 2 3 2 1 0 1 2 2 3 3 3 3 4 5 6 6 7 7 7 8
11 11 12 12 14 14 10 10 9 12 9 10 12 16 18 17 16 17 17 14 12 13 12 9 8 4 2 2 3 2 3 3 2 2 2 2 3 2 2 1 0 1 2 3 4 4 5 7 8 9 10 8 8 7
10 11 12 11 9 6 7 8 9 10 9 12 16 17 17 18 18 16 17 16 15 18 15 14 10 6 2 2 5 4 5 6 5 4 3 4 4 3 2 2 1 1 0 1 3 4 5 6 7 8 9 8 7 6
9 9 7 5 2 4 6 6 6 9 13 16 17 19 20 19 18 22 18 19 21 20 18 18 13 13 12 9 7 4 8 9 9 9 8 6 6 5 3 3 3 3 2 2 2 3 4 5 5 6 7 8 8 7
4 5 3 3 3 1 3 8 12 16 17 16 16 13 12 12 12 17 18 21 20 23 25 23 24 23 17 13 11 8 9 10 11 12 12 10 8 7 6 5 5 4 4 3 3 4 5 5 6 7 8 7 8 8

GFSWCAN_700_spd_081.txt.gz
Wind_Speed
25 24 25 25 21 17 14 4 4 5 2 4 2 3 2 1 1 1 1 2 3 5 5 3 3 3 3 4 1 8 4 3 1 2 3 3 3 8 5 3 5 9 8 10 13 13 13 9 8 9 12 11 15 17
25 24 24 21 16 14 7 4 4 5 3 4 1 2 3 1 1 2 2 1 4 9 8 5 4 4 3 6 3 2 4 4 4 3 2 2 3 4 4 4 7 6 6 7 7 5 8 9 6 18 11 12 13 11
24 21 20 16 13 12 6 7 6 4 4 2 1 3 4 2 2 2 2 2 1 3 3 2 4 4 3 4 4 4 5 9 5 7 4 2 4 4 4 7 5 9 10 9 4 9 6 7 14 16 20 12 16 17
23 18 15 12 10 10 8 9 6 4 5 2 2 3 3 3 3 3 3 3 2 7 5 8 8 7 6 6 6 7 8 6 5 2 4 5 6 7 5 7 7 4 6 6 11 11 10 10 13 14 14 16 17 18
20 16 12 9 9 8 5 11 10 6 5 3 1 2 2 4 4 5 3 1 3 7 6 3 2 5 6 7 6 6 5 2 1 4 4 7 7 9 8 9 10 10 8 9 8 5 11 8 13 14 13 15 16 15
18 14 11 9 9 9 8 17 13 7 5 4 3 2 3 4 4 3 2 2 2 4 8 1 10 0 2 3 5 5 4 4 5 6 7 9 12 11 9 12 5 7 9 8 11 17 9 11 14 15 15 14 15 14
17 14 12 11 10 9 10 22 12 7 5 4 2 2 4 4 3 1 7 3 2 5 8 1 2 8 5 4 2 5 7 9 8 14 17 19 19 19 19 20 12 15 18 16 14 19 16 12 12 16 17 19 16 16
16 14 13 12 10 10 12 20 9 7 5 3 2 3 4 3 1 3 4 3 5 8 8 1 4 5 5 4 8 7 7 10 11 13 11 9 7 12 13 13 13 15 16 19 21 22 19 15 13 15 16 16 17 16
14 14 13 12 10 9 16 18 10 7 4 1 2 3 2 2 7 6 4 7 7 3 5 2 3 5 4 9 9 8 6 6 9 7 4 6 4 3 1 8 10 15 17 16 17 24 25 28 29 18 19 16 15 13
13 12 11 10 9 10 17 20 9 7 4 1 2 2 4 5 6 6 8 6 4 4 5 3 6 5 5 11 8 5 3 6 3 4 4 5 4 1 7 10 12 13 15 16 20 22 26 28 23 28 21 19 16 14
10 9 9 9 10 18 22 13 9 7 4 1 1 0 3 6 4 3 2 2 3 1 1 4 4 3 12 6 6 4 4 3 2 3 2 3 4 1 8 9 12 14 13 10 7 5 9 15 20 27 25 24 22 17
3 4 6 10 19 18 18 9 8 7 4 1 1 2 6 4 2 1 1 1 1 1 4 4 6 7 10 6 2 3 3 3 3 1 3 4 5 5 12 9 11 13 14 12 8 6 6 5 3 11 22 22 21 19
3 3 7 14 18 12 8 9 8 6 2 0 3 6 4 1 2 1 0 1 0 3 8 6 10 9 5 2 4 2 2 3 3 3 4 4 4 9 14 11 12 16 14 11 8 9 10 11 12 13 14 18 20 24
9 11 12 19 8 7 8 8 7 4 1 2 2 2 3 2 1 2 1 0 2 2 4 5 7 4 4 3 3 2 2 4 2 3 5 3 7 10 17 13 11 11 13 17 17 14 14 16 19 21 23 24 27 26
8 8 8 7 7 8 8 7 6 3 1 2 3 3 3 1 2 2 1 2 3 1 3 6 4 1 3 3 3 4 3 3 5 6 9 15 18 23 14 11 12 11 11 12 14 21 22 22 23 22 22 23 24 25
3 4 4 4 4 6 6 6 5 4 3 4 6 3 4 5 4 1 2 2 2 1 6 4 2 1 2 3 3 4 5 5 7 10 11 12 19 19 15 14 12 12 12 12 13 15 18 21 25 28 29 31 28 30
5 5 6 4 4 5 6 6 6 5 3 4 2 7 6 5 2 2 4 4 5 4 3 2 3 2 4 3 5 5 6 10 12 11 11 21 20 17 19 17 13 13 12 13 14 14 14 15 19 21 24 27 27 28
0 4 2 5 5 5 6 6 6 5 5 5 4 3 7 6 5 5 6 7 2 1 3 3 4 3 4 5 7 8 10 10 11 11 13 16 15 17 15 15 13 9 8 9 11 12 14 16 15 15 16 18 18 16
8 5 4 6 6 6 6 7 8 4 5 6 8 9 8 7 7 11 9 10 7 7 6 5 4 6 4 7 9 11 10 9 8 10 19 21 18 13 12 11 9 9 9 10 9 12 14 14 12 11 10 6 8 9
8 8 6 7 7 6 5 6 7 7 3 7 8 10 11 7 4 6 8 11 10 9 7 9 11 6 7 9 10 8 7 9 6 10 16 17 12 12 10 2 3 7 8 9 8 13 18 11 9 11 7 2 1 2
6 8 7 7 8 8 8 5 7 6 8 9 6 13 10 8 11 10 10 12 12 12 11 11 17 6 12 20 18 17 13 11 6 9 7 10 13 4 4 5 5 4 4 3 8 10 13 12 10 9 10 11 11 7
8 8 8 8 8 10 11 11 9 11 11 8 9 10 10 10 11 12 12 12 13 12 12 13 11 17 21 18 16 15 15 14 11 10 9 8 4 2 2 2 1 3 7 8 4 7 8 9 9 10 13 11 11 3
10 9 8 8 8 8 8 10 10 7 7 3 6 8 8 9 10 13 9 7 7 10 13 17 16 17 19 16 15 14 12 12 10 7 7 4 5 4 1 2 1 1 3 3 5 5 5 5 7 6 4 7 3 3
10 9 7 6 8 8 8 8 8 9 8 8 7 6 7 8 9 8 6 6 9 11 10 10 12 13 14 14 15 10 10 9 8 8 7 5 3 2 2 1 2 3 1 3 8 5 4 2 4 6 4 5 5 3
11 7 7 9 9 8 11 7 9 8 7 8 8 6 7 7 8 8 9 9 9 8 11 10 11 11 9 8 7 9 8 8 6 6 5 4 6 5 2 3 4 3 3 0 1 1 2 2 1 3 4 3 5 3
10 9 8 5 6 7 5 5 4 6 8 5 5 6 5 9 6 5 6 8 8 7 11 11 9 7 8 9 12 9 7 6 8 7 6 6 6 4 5 5 4 4 4 3 0 2 2 2 2 3 6 3 2 6
12 7 10 13 10 8 7 7 6 7 6 5 7 11 5 4 3 5 5 9 7 11 11 11 9 6 9 11 11 8 7 7 7 8 7 6 8 7 7 6 5 10 5 4 3 3 2 2 5 3 7 4 5 3
9 8 11 6 9 10 10 8 7 8 6 6 7 6 2 2 7 6 7 14 13 13 13 13 11 7 9 11 10 8 7 7 7 9 7 6 7 7 7 8 8 6 5 4 4 2 2 3 3 3 4 6 9 9
10 9 10 11 10 10 10 10 11 8 7 8 9 6 6 7 9 12 17 15 17 20 19 16 14 13 11 11 9 7 7 6 6 7 7 6 5 5 6 6 4 3 3 1 1 2 2 2 3 2 3 3 4 5
12 10 11 10 11 12 10 9 9 8 10 11 11 11 12 12 18 16 21 21 17 18 16 16 17 13 11 10 6 2 3 3 6 6 6 4 7 7 5 6 5 3 3 3 2 2 3 4 6 9 9 5 5 6
9 10 12 13 13 11 12 12 12 12 13 12 12 14 14 12 19 20 20 18 17 19 18 21 25 12 10 10 12 12 6 4 2 3 6 5 7 9 7 7 6 6 5 5 6 2 6 6 4 6 6 7 9 6
10 10 9 8 7 6 8 9 8 9 9 12 12 13 13 15 16 20 19 17 19 21 28 33 31 22 11 15 16 13 12 7 7 4 4 5 6 10 8 8 8 7 6 5 6 6 6 3 4 8 5 8 10 9
6 7 6 6 6 3 4 6 7 9 10 10 14 6 6 12 17 19 20 21 23 24 21 23 24 20 20 27 10 9 7 12 11 6 7 8 8 11 11 10 9 8 7 6 6 6 7 7 7 8 11 7 7 8

GFSWCAN_700_spd_084.txt.gz
Wind_Speed
28 26 24 22 21 18 16 10 4 3 0 3 1 2 2 1 1 0 3 6 9 9 7 1 2 3 5 3 3 5 4 4 1 1 1 2 2 5 6 3 2 6 8 10 12 12 6 11 9 7 13 18 17 17
26 25 23 20 18 13 12 8 6 3 1 3 1 2 2 1 0 0 1 4 9 12 3 3 3 4 5 8 3 1 2 4 2 2 1 1 3 1 3 3 5 2 2 4 4 5 8 6 10 14 15 20 24 28
23 22 21 18 14 11 10 8 5 2 1 3 2 2 2 2 2 2 2 2 6 2 5 5 3 4 2 1 3 3 4 7 8 7 2 1 4 3 3 7 4 7 8 7 1 5 3 5 7 11 13 12 19 14
22 20 18 15 10 10 11 8 5 3 0 1 3 3 3 4 2 2 3 2 5 6 1 7 12 10 5 6 5 6 7 7 6 3 3 6 7 6 5 5 4 2 3 4 9 9 9 14 10 12 16 18 16 19
21 19 16 14 10 10 10 9 7 3 1 2 4 3 2 3 2 2 2 3 8 14 7 2 1 5 3 5 2 2 2 5 3 4 4 5 5 4 7 9 7 6 10 8 7 7 8 7 9 10 14 16 18 21
20 18 15 13 11 11 9 7 10 8 3 4 5 3 3 4 2 2 3 2 4 13 6 6 4 7 7 7 1 2 2 6 6 7 8 14 19 14 10 11 10 17 10 14 9 9 11 9 11 15 15 15 14 15
18 17 15 12 12 11 10 9 15 9 5 5 3 3 4 4 3 4 5 2 3 11 8 4 3 5 9 4 4 6 6 5 7 8 14 16 18 20 22 21 16 18 21 18 16 20 14 13 13 14 17 17 18 15
17 15 13 12 11 11 9 11 13 8 6 4 2 3 5 4 3 3 4 2 5 9 9 3 3 2 2 3 5 6 7 10 12 10 10 10 9 8 5 5 11 21 25 24 23 23 22 17 19 18 17 17 21 20
14 12 11 11 11 10 10 11 19 8 7 4 2 3 3 2 4 6 4 6 7 3 7 3 3 6 3 5 6 4 8 10 12 8 7 6 8 4 3 5 5 5 11 18 19 18 19 25 19 24 21 20 19 18
12 10 10 11 9 9 5 9 18 8 7 3 0 1 4 4 6 7 8 5 4 4 2 3 4 4 1 4 8 6 4 8 5 6 7 6 5 3 3 7 10 14 14 12 13 13 16 23 24 24 33 27 26 18
10 8 8 8 8 6 8 17 11 9 7 4 5 7 3 5 5 2 2 3 3 5 5 5 8 3 6 3 6 4 5 4 3 4 3 3 4 6 2 8 12 10 16 12 8 9 9 13 16 21 27 32 29 24
5 7 6 6 6 9 14 13 10 8 5 3 4 4 5 5 2 2 3 3 3 1 3 6 7 8 6 3 1 4 5 4 2 3 3 4 5 5 8 12 11 12 12 15 15 12 7 5 5 9 20 26 34 29
4 3 2 5 10 15 14 10 10 8 4 2 4 5 3 2 2 2 3 3 2 1 2 5 7 3 7 3 2 3 2 3 3 3 4 4 12 5 7 12 13 13 20 13 21 18 13 11 10 10 7 8 17 23
9 8 11 14 17 11 11 10 9 6 3 4 1 1 3 3 2 1 3 2 0 1 3 4 3 2 3 3 1 2 2 4 4 5 7 8 5 9 17 12 10 8 10 13 19 14 17 22 16 17 18 18 23 22
10 13 9 8 8 9 9 8 7 5 3 4 3 4 4 3 4 1 3 2 2 1 1 2 1 0 1 3 1 4 3 3 5 6 8 4 11 20 20 23 16 14 16 16 16 16 20 16 19 22 26 31 33 30
3 4 5 5 5 6 7 7 7 5 5 4 6 5 4 8 8 4 0 1 3 2 1 3 2 2 4 3 4 4 5 6 6 9 7 11 16 22 29 23 18 17 16 13 15 15 17 20 21 22 24 26 34 34
4 4 5 5 5 6 6 7 7 6 4 4 1 6 6 8 3 7 5 5 6 1 4 3 3 2 4 3 5 5 5 8 10 10 16 21 24 22 20 20 16 14 8 9 11 12 14 15 15 17 18 18 21 23
5 8 4 7 7 6 7 7 7 6 8 6 5 4 9 10 7 13 10 9 8 4 4 4 6 7 5 5 6 6 9 10 11 12 17 27 25 23 20 17 13 8 7 9 9 6 14 15 14 14 15 16 17 18
8 7 6 6 7 7 6 7 9 8 7 5 7 8 11 12 13 10 6 7 13 10 8 7 7 8 7 9 6 7 9 8 7 13 21 22 20 12 12 9 11 10 11 10 10 10 13 14 12 16 12 12 9 12
8 9 8 7 7 8 7 6 8 10 5 5 9 10 13 13 9 12 14 15 15 11 13 13 16 16 14 11 7 10 19 14 10 7 13 18 24 20 13 5 1 9 5 14 9 10 13 11 12 12 14 8 5 9
10 9 10 8 8 10 11 7 7 8 8 10 11 8 12 13 15 18 8 16 19 17 18 14 22 24 7 7 12 20 24 19 8 10 10 9 13 6 13 9 7 1 6 11 4 10 11 8 9 9 11 13 12 14
9 8 9 8 8 11 13 13 11 10 11 12 11 9 13 13 15 14 12 20 16 17 13 13 18 20 20 17 18 17 20 18 14 12 10 10 15 9 2 3 3 5 10 11 14 8 4 3 6 6 7 10 12 14
10 9 8 9 9 8 8 10 12 12 10 6 7 11 13 15 15 19 19 14 14 13 8 13 15 16 20 28 23 19 17 16 14 6 6 3 8 9 7 4 1 1 7 15 17 13 8 9 11 8 6 6 8 8
13 12 8 5 7 9 8 7 5 5 11 10 13 16 16 19 21 15 16 15 20 16 15 10 12 15 16 17 17 15 9 10 4 8 5 5 4 6 5 4 3 6 5 9 8 14 9 6 10 7 8 12 7 4
13 10 9 10 9 8 9 9 10 12 11 10 15 16 13 15 11 15 16 16 19 15 14 6 9 12 11 11 6 11 8 7 6 8 7 4 6 9 6 3 5 4 2 5 4 2 4 6 5 5 6 7 6 9
12 10 9 6 6 7 4 5 5 7 11 12 14 15 12 16 19 6 9 10 2 7 11 11 11 10 5 8 12 18 13 8 8 8 11 5 10 8 5 6 5 8 4 6 3 4 4 5 5 6 8 14 9 3
14 6 8 11 13 6 8 10 8 7 9 11 10 10 8 7 6 9 15 12 2 9 11 13 11 7 8 14 16 19 14 9 8 6 13 9 7 11 11 9 7 9 18 9 8 4 4 4 5 6 6 6 9 11
11 6 9 9 9 10 11 9 10 9 12 16 13 12 6 2 4 17 14 10 3 10 9 10 12 7 10 15 20 18 10 8 5 8 11 9 10 9 9 12 10 15 17 9 5 6 4 5 6 5 5 6 9 10
12 8 8 11 11 11 12 13 12 12 9 17 21 12 9 10 11 14 10 15 9 8 10 11 8 11 12 13 16 14 10 5 6 8 7 7 8 8 7 10 8 8 9 9 7 6 5 6 5 8 5 5 5 7
11 8 10 12 13 14 14 12 11 10 12 14 17 15 15 16 19 21 19 18 16 6 11 12 13 13 15 16 21 15 13 10 6 6 5 4 5 7 7 7 7 6 8 7 5 2 1 3 2 8 9 7 11 11
9 9 12 13 14 13 12 11 12 14 14 13 12 14 16 21 25 27 23 22 19 17 15 17 22 23 24 25 31 23 20 15 10 9 8 5 3 13 14 8 6 6 6 7 8 5 5 7 8 4 5 10 8 11
11 14 11 10 9 9 9 10 11 10 10 13 18 19 19 20 24 24 23 23 21 16 16 20 23 29 34 34 33 17 8 14 9 11 8 5 9 13 10 8 6 6 8 8 8 7 7 7 5 8 5 10 14 12
8 9 10 10 9 5 5 8 10 8 12 14 19 19 18 12 12 15 18 12 9 7 6 3 1 3 3 5 13 10 6 15 17 15 14 9 7 7 7 8 5 7 8 8 8 8 7 8 7 6 10 10 9 13

GFSWCAN_700_spd_087.txt.gz
Wind_Speed
22 23 24 22 19 17 13 11 5 3 1 2 1 2 2 3 3 4 8 15 9 8 1 1 1 6 11 2 4 4 5 5 3 2 2 1 1 4 4 5 2 4 3 6 7 6 7 10 12 10 9 17 19 22
21 22 22 20 17 13 9 8 4 2 2 0 1 2 2 2 2 2 3 10 14 10 2 7 6 2 8 6 3 2 3 4 1 3 0 3 4 2 3 4 3 1 3 2 2 3 6 8 11 16 20 19 19 21
21 21 20 18 15 10 8 8 5 1 3 1 0 2 3 2 1 0 1 4 11 12 1 8 4 7 8 3 4 6 7 9 7 5 4 2 3 4 2 5 5 2 5 5 2 1 5 9 11 15 16 18 22 27
22 20 19 16 14 9 9 8 3 2 3 2 0 2 2 1 1 2 2 5 11 9 4 7 8 12 4 9 6 10 12 6 4 6 5 4 4 3 1 1 6 2 3 3 4 6 8 8 9 14 18 22 21 23
20 20 18 15 13 9 8 8 4 4 4 3 1 1 1 1 2 4 4 6 9 11 13 4 3 8 8 10 6 1 2 8 6 5 7 4 4 9 9 7 6 8 10 6 6 8 8 5 10 13 14 16 23 22
20 18 16 14 12 9 8 5 3 6 3 4 2 1 0 3 4 4 4 3 14 14 10 8 6 9 6 7 5 1 4 3 10 10 12 14 10 9 8 9 12 13 12 15 19 16 17 12 8 8 14 14 14 20
18 17 16 14 12 9 8 5 5 8 7 4 3 2 3 4 4 4 2 7 9 15 9 2 7 5 8 5 3 11 10 8 5 4 7 12 11 15 19 20 18 18 20 23 24 23 18 18 19 21 22 26 19 18
17 15 13 11 10 9 8 6 2 9 8 5 5 4 4 4 4 2 5 5 8 13 10 3 4 6 5 3 7 10 9 9 10 11 9 7 6 6 4 4 3 11 18 23 26 29 27 24 23 24 22 23 24 21
15 12 10 9 9 8 7 3 1 14 9 6 5 3 2 2 3 6 6 8 11 6 7 3 6 5 4 9 10 8 6 10 11 10 7 5 3 2 4 5 5 6 7 12 15 20 22 23 26 26 26 26 26 26
13 10 7 8 7 7 5 4 14 11 9 6 2 1 7 7 8 9 11 6 4 5 5 3 4 4 4 7 9 6 6 5 6 7 8 5 2 3 4 2 13 12 14 12 12 14 13 16 19 24 31 27 28 28
7 7 7 6 5 4 6 5 17 12 10 8 4 3 3 7 8 4 4 2 1 3 5 4 6 6 7 4 6 5 4 4 3 5 4 4 5 8 6 4 12 12 15 20 15 10 11 12 12 16 25 33 32 35
3 5 4 5 4 6 4 19 13 11 8 5 5 3 7 7 4 4 5 3 4 3 5 5 7 5 9 4 2 4 6 3 3 5 3 4 5 6 8 10 15 16 14 16 17 12 14 10 11 11 10 20 27 31
4 5 7 3 5 8 19 13 11 9 6 4 4 6 6 4 3 4 5 5 4 3 4 8 3 7 6 2 2 2 2 3 3 4 4 6 10 10 6 3 12 13 9 13 12 17 15 17 13 15 17 13 11 21
7 8 8 9 16 15 11 11 10 8 5 6 5 1 3 3 4 1 2 4 4 1 5 3 3 8 3 2 3 3 3 4 4 6 6 9 11 8 11 12 20 22 19 21 22 23 25 25 20 20 17 15 16 17
10 10 11 11 8 9 10 9 9 7 5 7 4 5 4 5 4 4 4 3 6 7 3 2 5 3 2 4 4 4 3 3 5 9 13 13 10 14 18 23 24 23 21 18 19 22 21 20 19 21 17 18 19 22
4 4 3 5 6 8 9 10 9 7 6 6 8 9 4 4 8 9 7 7 8 4 0 8 4 3 5 4 5 6 5 6 10 17 16 13 17 19 22 26 24 23 21 18 17 17 14 14 16 20 25 24 23 24
5 6 5 5 6 7 8 8 8 8 6 6 5 7 4 8 10 16 14 4 12 8 9 4 5 5 4 5 7 8 9 8 13 16 18 19 22 25 26 24 19 18 17 15 13 9 10 11 14 17 18 17 18 20
5 6 6 8 8 7 8 9 10 10 12 10 10 8 5 10 12 10 8 10 14 7 10 10 7 9 8 6 8 5 7 9 13 17 22 23 20 23 21 16 15 12 10 7 7 11 13 14 15 14 16 15 13 16
9 6 6 6 7 8 9 10 12 12 14 8 7 5 7 14 14 18 19 18 18 13 14 14 9 11 14 18 11 5 12 13 17 21 23 22 18 17 17 13 11 10 12 8 12 13 13 13 11 12 14 11 10 13
8 7 10 9 8 9 9 7 11 14 11 9 11 11 14 19 19 18 13 12 16 18 16 17 16 16 20 15 22 19 13 17 19 21 16 16 20 22 18 15 8 8 9 14 16 17 13 10 9 9 11 11 13 13
10 12 10 11 11 11 12 11 12 8 8 15 13 9 16 15 16 15 13 18 23 27 25 24 19 20 23 14 11 16 17 19 21 16 18 16 17 22 18 14 3 3 8 16 16 19 19 15 6 5 7 12 14 12
9 11 9 10 11 13 16 15 14 15 19 17 15 15 17 18 16 19 20 21 24 21 21 14 14 16 20 18 17 13 14 16 18 16 13 16 19 20 17 5 2 4 13 18 16 19 14 9 8 8 7 7 9 13
11 11 9 10 11 9 8 9 14 17 20 18 8 8 14 17 16 16 22 24 27 21 22 21 16 19 19 21 21 20 21 20 19 16 11 10 15 15 10 11 7 8 14 15 15 10 10 13 10 6 9 13 12 10
14 13 10 7 9 8 9 10 11 7 7 9 9 9 13 20 17 20 27 24 25 28 22 22 17 17 18 22 23 23 21 18 15 13 7 9 11 10 13 10 7 11 14 13 10 13 13 15 5 3 9 8 8 14
16 11 11 13 12 10 12 11 9 9 11 7 9 16 18 22 27 25 12 18 24 18 18 14 12 17 15 15 17 7 5 8 11 11 8 7 9 9 7 9 11 10 4 8 10 9 10 11 8 9 12 13 13 12
10 10 10 8 7 10 7 1 5 7 7 9 11 12 14 21 21 12 17 18 19 16 12 11 13 16 16 11 13 15 14 12 11 13 13 8 10 11 11 5 7 8 5 9 6 5 11 10 7 8 12 13 14 14
18 11 9 11 13 11 10 7 6 10 9 10 9 9 10 7 4 7 16 9 3 6 6 15 8 15 9 12 18 19 22 19 14 14 14 12 10 11 10 9 10 8 10 12 10 11 8 9 8 9 13 11 14 13
19 13 10 6 10 10 14 12 10 8 6 7 11 12 15 8 9 11 15 5 6 7 11 13 16 18 12 17 18 23 27 27 18 16 16 11 14 15 16 18 19 18 17 16 13 11 10 11 10 9 12 12 13 8
20 13 14 8 7 9 12 12 12 10 7 11 19 18 20 20 18 13 10 7 9 12 22 27 5 8 15 20 22 28 29 33 23 20 7 5 8 7 7 9 10 11 14 14 13 13 10 8 8 8 10 7 8 11
14 14 10 9 10 11 12 13 11 9 9 7 15 18 19 18 17 13 9 16 20 22 26 17 17 21 18 23 27 29 35 35 33 8 5 6 5 9 9 7 7 6 10 9 8 8 6 5 4 1 1 3 3 5
7 7 8 10 11 11 10 9 8 8 8 12 16 19 20 15 12 15 18 28 29 30 21 12 11 19 26 25 26 28 31 33 11 12 10 4 5 8 12 14 13 10 7 7 6 5 5 2 4 2 6 6 10 12
4 10 14 12 10 9 6 6 5 5 12 16 19 20 22 25 29 29 21 21 18 14 8 10 13 15 19 22 21 19 17 18 20 18 12 7 14 12 13 12 11 9 7 8 10 9 5 7 7 8 8 9 11 9
6 6 3 5 5 6 6 8 7 15 17 16 15 22 18 14 7 9 11 11 13 13 12 10 7 7 11 11 12 9 12 19 16 13 11 9 9 10 10 10 7 6 8 10 8 7 9 11 9 10 11 13 13 10

GFSWCAN_700_spd_090.txt.gz
Wind_Speed
27 21 19 20 19 16 11 8 6 1 1 1 5 6 5 5 6 9 12 15 9 8 2 4 3 7 6 4 2 3 3 1 1 2 2 2 0 3 5 5 4 3 3 2 2 4 3 3 15 7 7 15 23 23
25 21 18 18 16 13 9 6 5 3 4 1 3 5 5 5 5 5 9 15 12 8 2 7 5 2 8 10 4 3 0 2 2 1 2 1 3 2 6 5 3 2 4 4 3 3 4 5 3 12 11 4 17 21
24 22 18 16 15 12 8 7 4 4 6 4 3 5 5 4 4 5 5 10 17 11 6 2 3 11 13 8 7 10 7 5 5 4 2 3 4 5 2 6 9 5 2 4 3 6 5 3 3 8 13 15 10 14
23 18 17 15 14 11 9 6 3 5 8 6 5 6 6 5 4 4 5 5 8 10 6 2 7 7 9 7 8 7 10 10 8 7 4 2 3 1 4 3 4 5 2 4 4 7 7 5 7 5 7 12 16 17
23 20 17 14 13 11 9 6 3 7 8 7 5 5 5 5 5 4 3 3 9 12 10 6 2 9 12 14 8 5 4 5 7 11 9 5 5 6 5 7 7 6 9 7 11 13 13 11 10 11 13 15 18 20
21 17 15 14 13 11 8 5 3 8 8 7 5 4 5 4 3 2 3 5 13 11 12 9 3 6 7 10 9 10 6 2 8 8 10 11 9 7 7 10 10 9 10 15 14 14 13 12 15 17 17 16 15 12
19 17 15 13 12 10 8 6 5 7 11 8 6 5 4 3 2 3 3 8 16 16 13 5 5 5 6 9 9 13 11 8 5 2 3 5 6 10 13 14 15 17 17 17 18 17 17 16 17 19 21 22 23 20
18 15 13 10 10 9 8 6 7 7 12 9 7 4 3 2 4 4 6 8 11 17 10 3 4 7 4 5 7 11 10 8 6 8 6 3 3 4 4 2 4 8 13 17 21 22 23 25 23 22 21 23 27 26
15 13 11 8 8 8 8 6 9 10 13 9 5 2 3 3 6 7 7 8 10 11 8 6 2 2 2 3 7 9 12 9 7 7 5 2 1 2 1 1 3 5 6 7 11 15 15 20 27 33 33 31 27 28
13 11 9 8 9 8 8 8 9 16 11 8 7 6 7 8 10 11 11 10 8 7 5 2 5 1 2 3 4 7 6 5 5 4 6 2 0 1 0 3 5 12 11 9 11 12 13 12 13 16 21 24 28 30
7 6 8 9 8 9 9 11 17 15 11 8 7 8 10 11 13 8 6 5 4 5 6 4 3 5 9 7 4 4 5 4 2 3 5 3 3 3 4 2 8 15 14 10 10 10 9 10 12 11 13 17 28 33
1 4 5 7 8 9 11 14 17 13 11 8 4 6 11 10 6 5 7 4 5 3 7 6 5 4 6 8 3 1 3 2 1 4 3 3 7 5 4 4 13 13 15 16 13 11 12 12 12 11 13 12 15 21
4 8 8 7 9 9 15 20 15 13 9 6 6 8 8 7 6 5 7 6 4 4 4 5 3 5 2 5 5 4 3 2 5 3 4 4 7 5 4 7 14 15 16 15 15 18 20 18 21 20 18 17 16 16
4 6 7 8 10 16 16 14 13 11 9 7 6 6 5 5 5 5 8 7 5 2 4 3 3 4 1 2 3 3 3 4 4 7 13 9 11 7 8 10 16 16 15 15 18 21 24 26 26 26 22 24 21 17
8 7 8 13 14 11 10 11 11 10 8 8 6 5 5 8 9 8 8 7 4 6 7 3 4 6 4 3 4 4 4 5 6 11 13 13 12 8 9 12 17 19 16 15 16 17 18 19 20 21 20 17 18 19
4 5 6 8 7 9 10 11 11 9 8 7 7 9 10 7 6 11 11 12 10 4 2 6 8 6 8 5 7 8 8 12 14 11 13 19 18 16 14 16 23 19 15 15 15 14 14 9 8 10 12 15 17 18
5 5 5 6 7 8 9 10 10 10 6 6 7 14 12 8 3 6 14 16 16 13 10 6 7 9 6 8 9 10 15 17 13 14 17 17 17 14 16 19 15 14 13 12 11 7 6 8 11 13 14 15 16 16
6 8 8 8 9 9 10 10 11 10 13 11 8 13 9 5 7 7 9 14 15 11 10 15 15 16 15 13 12 12 12 13 15 15 17 19 19 17 16 16 14 12 10 10 8 9 10 12 14 12 11 11 10 10
12 10 9 11 9 9 10 10 13 14 15 10 11 16 13 8 7 11 11 12 11 18 12 20 16 17 18 22 20 21 24 23 20 19 20 22 20 16 16 16 15 12 7 5 7 9 9 9 10 10 8 9 11 12
13 11 11 11 9 8 7 7 11 13 9 7 13 20 14 10 8 10 14 18 16 18 25 30 31 23 19 19 18 18 25 22 20 15 20 24 21 18 17 17 18 10 6 6 9 11 15 12 9 6 5 7 9 12
13 12 14 12 12 11 9 9 12 7 5 10 12 16 17 15 13 13 14 13 20 22 24 26 23 19 23 22 22 19 21 19 16 15 18 22 19 22 22 20 15 8 7 7 12 17 19 11 6 3 3 4 4 7
7 11 12 10 9 12 13 14 13 13 16 13 11 17 19 21 20 20 17 21 24 23 22 19 18 17 21 21 20 21 18 19 20 20 23 22 22 22 20 17 14 10 8 8 13 18 10 7 5 4 4 8 6 8
11 10 10 8 7 7 4 6 9 10 14 16 11 10 9 7 10 15 22 21 21 22 20 22 24 24 25 21 19 19 17 17 19 23 23 23 20 18 18 14 11 11 10 8 12 13 9 6 5 4 8 11 10 13
14 10 9 6 7 5 5 6 7 7 8 4 1 2 8 13 14 19 19 22 27 29 26 29 27 28 25 20 14 15 18 20 20 21 20 18 14 13 12 12 15 16 11 11 13 11 5 9 9 8 8 9 13 16
11 8 8 10 9 8 7 5 3 4 8 7 8 9 15 19 19 19 21 17 17 14 19 26 23 20 14 12 13 15 14 12 11 11 12 8 8 10 12 11 11 14 15 14 10 7 7 9 10 10 11 12 12 14
10 9 8 6 6 8 8 3 1 5 7 4 7 8 11 13 10 5 8 15 11 12 10 9 15 15 17 14 12 11 9 14 14 9 8 10 11 9 8 9 14 16 12 8 8 11 8 11 12 10 10 11 13 13
15 9 10 12 8 8 6 7 5 5 6 6 8 6 7 7 4 8 16 17 12 8 6 14 17 21 27 21 16 17 17 18 16 22 16 18 16 17 9 11 9 5 6 10 12 11 10 13 13 11 11 12 13 12
20 17 15 10 12 8 7 5 6 9 6 6 4 9 9 8 12 14 12 9 9 10 14 16 16 22 29 28 24 22 23 27 31 28 25 15 17 13 15 19 17 13 15 16 15 13 13 12 14 15 14 12 12 5
15 13 13 14 8 8 11 11 7 7 5 7 10 13 14 12 13 15 13 12 12 17 20 24 28 29 22 16 12 20 19 21 22 22 30 7 11 8 10 14 19 18 19 20 19 18 16 14 13 13 13 8 2 5
9 16 15 14 12 9 3 3 4 3 3 8 11 13 13 13 15 14 15 16 17 26 30 26 25 21 17 13 14 19 17 15 19 24 22 13 15 12 7 2 4 6 7 10 13 13 12 10 11 10 7 4 5 6
10 10 12 12 9 5 3 2 3 2 9 13 13 15 19 16 13 17 26 25 18 19 14 6 9 11 9 10 14 18 14 12 19 16 15 12 10 6 4 2 5 11 10 6 8 8 7 5 6 6 5 7 5 7
14 13 11 9 6 0 4 9 7 12 13 13 14 14 12 16 21 18 14 12 11 11 9 5 2 3 7 12 16 18 17 16 14 10 13 9 8 5 2 3 7 11 9 7 6 7 9 10 5 3 4 4 8 12
5 4 1 4 6 3 2 5 9 11 12 12 9 9 17 12 6 8 8 9 11 11 11 10 8 4 7 12 15 13 12 12 10 10 11 11 8 5 6 8 7 7 8 8 7 8 9 8 7 6 8 13 10 11

GFSWCAN_700_spd_093.txt.gz
Wind_Speed
29 27 22 19 17 16 13 8 6 3 4 3 2 5 7 8 9 11 12 14 11 9 5 4 3 5 6 7 6 8 6 3 3 1 0 2 2 3 4 4 2 1 2 6 11 5 5 10 3 10 6 6 17 19
28 25 22 19 17 15 12 8 6 5 7 5 5 6 6 6 7 10 12 15 12 9 3 6 5 6 5 8 11 9 4 3 1 1 0 3 3 4 9 4 5 1 4 2 1 6 6 5 10 17 19 8 8 12
27 24 19 17 16 14 12 9 6 6 8 9 7 7 7 7 7 8 10 15 15 12 6 2 3 8 8 4 4 9 8 6 5 2 3 4 2 1 3 5 9 7 4 4 3 7 6 6 4 7 11 9 9 11
26 23 20 18 16 14 12 9 6 7 9 10 8 8 9 8 7 7 7 10 16 14 9 5 1 7 6 12 7 4 5 8 8 7 7 6 4 1 4 5 6 5 5 6 6 10 9 6 3 3 2 3 6 10
24 21 18 15 14 14 12 9 7 7 10 10 9 9 9 9 7 6 6 8 11 13 9 8 2 4 8 12 10 5 2 3 4 9 11 7 6 5 5 6 5 5 4 5 10 14 10 7 7 6 6 5 5 6
22 19 16 15 14 13 11 9 8 7 10 10 8 8 8 7 7 6 6 8 13 13 11 8 3 3 5 8 7 10 4 1 7 9 9 10 9 7 6 9 8 8 6 4 7 9 10 10 12 13 12 10 10 7
20 18 16 14 13 12 11 10 9 9 12 10 9 8 7 7 6 6 7 7 15 15 12 6 3 5 5 5 7 11 13 5 2 1 6 10 10 10 14 13 11 11 13 12 10 9 12 12 15 16 17 16 15 14
18 16 15 12 11 10 11 10 10 11 11 12 9 8 7 7 7 7 6 10 17 16 13 5 4 6 5 5 6 10 12 6 3 1 1 1 4 5 4 5 5 5 6 9 14 16 17 19 19 21 21 23 23 22
17 15 13 11 10 10 11 11 10 14 10 11 10 8 7 9 8 7 9 10 15 17 9 7 4 5 1 2 6 10 9 6 3 3 2 0 0 2 3 3 4 2 2 5 7 10 13 15 17 25 30 28 27 26
14 11 9 9 10 11 11 11 12 13 14 13 10 8 8 8 10 10 9 10 11 12 11 7 3 3 3 2 4 7 5 4 4 3 2 1 2 2 3 7 5 9 6 6 7 9 9 11 12 13 15 21 29 32
10 7 7 9 10 11 12 11 12 14 16 13 10 9 8 12 14 11 7 7 7 5 7 9 4 3 6 4 6 5 5 5 3 2 5 1 2 1 3 8 4 8 7 4 6 8 8 9 11 11 11 13 16 19
5 4 7 9 10 12 12 14 16 16 14 11 8 8 11 13 7 5 7 5 5 5 5 6 1 4 6 7 7 2 2 3 2 6 4 2 6 1 3 2 6 10 10 8 9 9 9 9 10 11 12 14 15 15
2 4 5 6 7 10 13 16 16 15 12 10 8 9 10 8 8 6 9 7 6 7 5 4 5 4 4 4 4 2 2 2 6 3 4 3 7 5 5 6 7 10 10 10 12 12 13 18 20 19 19 17 18 18
1 7 8 7 10 9 14 18 14 14 11 8 8 9 8 6 6 4 7 8 7 6 3 3 3 2 1 2 3 2 3 3 3 4 3 6 8 9 9 10 11 12 13 13 15 15 15 17 20 22 23 22 19 19
4 4 7 8 10 14 13 13 13 12 11 8 6 7 7 7 13 14 12 10 6 3 1 3 3 3 3 3 3 4 4 5 6 6 10 9 13 15 14 12 10 15 16 15 14 14 15 14 14 15 13 14 14 15
4 4 7 9 10 9 10 12 12 11 11 9 8 7 13 13 10 11 11 9 7 5 3 6 6 5 6 5 6 6 5 8 14 14 11 9 13 16 15 12 14 15 14 15 14 13 11 9 9 11 13 16 17 17
7 6 6 7 7 8 10 10 11 11 7 7 7 13 15 14 10 12 10 9 10 13 12 8 5 6 5 8 9 12 16 17 16 16 16 15 18 20 14 12 12 14 14 13 12 10 9 10 10 12 14 14 14 15
7 7 8 7 7 8 10 11 12 12 14 13 7 12 17 14 12 14 10 9 12 17 21 17 18 19 17 15 19 21 19 19 18 21 26 23 20 17 16 11 13 14 14 11 7 8 9 10 10 11 13 13 13 12
10 9 9 9 9 10 10 11 13 15 16 12 10 14 19 16 11 11 10 8 7 8 15 20 14 19 24 23 18 18 18 18 18 22 19 19 15 16 18 14 14 14 12 7 3 6 9 9 8 9 10 10 11 12
14 13 11 10 9 10 9 9 12 13 9 8 13 14 21 19 15 15 9 11 13 16 20 27 29 28 28 26 25 23 19 19 20 19 15 12 11 17 16 15 14 13 9 6 3 8 14 12 8 9 9 9 10 11
12 13 13 10 11 13 12 10 10 8 8 11 11 15 20 21 19 17 14 14 18 22 23 22 22 13 17 23 23 20 21 23 21 17 15 15 16 18 20 18 15 14 8 5 3 9 13 11 9 6 6 5 9 10
11 12 12 11 12 12 13 14 13 13 15 13 10 14 18 22 25 23 21 22 25 25 23 23 22 21 22 22 21 22 23 20 17 18 17 16 17 20 19 16 14 13 7 4 3 7 11 12 8 4 2 4 5 5
13 10 10 10 9 7 6 7 9 9 12 10 7 9 12 16 16 15 16 19 21 24 28 28 26 25 26 24 20 21 21 18 19 18 17 18 20 21 18 19 9 8 4 2 4 8 11 8 3 3 4 8 8 9
13 11 8 7 9 7 8 6 7 7 7 5 6 5 4 9 10 15 18 19 20 21 25 30 32 30 27 27 28 26 16 18 21 19 15 18 20 21 19 10 12 7 5 4 7 9 12 7 5 3 3 6 9 14
13 10 8 11 11 10 8 6 3 1 4 4 10 8 6 10 14 17 15 8 10 17 19 20 18 22 27 25 23 16 15 16 15 12 14 16 14 11 7 11 12 7 10 11 10 10 9 6 4 5 7 8 11 13
13 11 8 8 12 12 8 5 6 3 5 2 4 6 7 10 10 6 9 13 13 8 9 9 11 12 10 8 15 16 18 18 14 16 20 20 13 12 12 11 13 8 10 12 10 8 5 6 8 8 8 9 11 13
12 9 13 13 10 8 10 11 8 3 5 4 5 6 5 4 3 9 13 14 9 8 8 8 12 6 10 20 17 22 30 22 25 26 21 19 15 12 11 7 7 3 7 10 10 5 5 7 8 9 10 10 11 13
17 15 12 14 17 13 12 9 11 8 7 6 5 5 4 5 10 12 11 12 14 15 16 15 11 14 21 23 20 13 16 24 24 26 24 11 14 9 8 10 10 9 10 9 7 8 8 9 10 10 11 9 11 5
15 15 19 17 18 16 13 12 14 11 7 6 6 9 10 12 11 15 16 15 17 19 28 26 25 26 15 9 5 8 12 15 12 11 11 14 11 10 12 13 13 14 14 13 15 15 14 12 12 13 11 9 8 8
10 17 24 21 19 16 11 7 4 5 9 10 12 12 12 12 15 16 15 18 25 28 21 14 12 4 2 7 7 11 10 9 13 8 12 10 6 14 15 13 8 4 2 3 9 13 14 15 14 13 10 6 6 4
16 19 17 19 16 10 7 6 8 10 7 6 7 10 13 14 12 17 24 18 14 13 13 11 6 4 4 7 9 8 12 17 19 16 9 4 10 13 13 10 7 4 4 8 9 10 10 10 9 10 9 8 8 6
13 12 16 16 11 5 3 6 8 8 10 9 12 13 11 9 11 18 14 11 11 10 9 8 6 3 3 1 4 11 15 19 17 12 3 6 9 11 9 7 5 1 5 6 7 9 10 9 7 8 8 6 5 6
10 10 9 9 10 9 8 6 8 11 13 14 13 11 13 17 4 5 6 7 8 9 9 9 9 9 6 6 9 13 15 12 5 6 8 9 9 10 11 10 4 1 3 3 1 6 8 10 12 12 10 9 8 8

GFSWCAN_700_spd_096.txt.gz
Wind_Speed
29 27 26 24 22 17 14 12 9 8 6 5 3 5 6 6 9 12 15 12 12 10 6 8 7 4 3 5 5 7 6 7 7 4 3 4 4 5 4 6 2 3 4 6 5 2 4 10 10 4 1 10 2 7
28 27 25 23 20 17 14 11 9 8 8 7 5 6 6 6 8 11 14 14 13 9 4 4 2 3 5 7 8 9 6 6 4 3 2 3 4 4 7 5 5 2 4 4 5 4 1 7 9 10 11 11 8 5
29 28 23 21 21 18 15 12 10 8 10 9 8 7 8 7 6 8 12 14 13 11 7 5 3 4 5 4 6 7 7 6 6 5 5 4 3 2 6 5 7 8 5 9 5 6 4 3 1 3 4 16 9 4
29 27 22 21 20 16 14 12 10 9 10 10 10 8 9 8 7 7 9 12 16 13 9 6 3 3 3 9 7 5 5 7 8 7 6 6 4 2 3 6 9 6 4 5 2 8 6 3 1 2 5 6 8 9
28 24 22 20 18 15 13 13 10 10 10 10 10 8 9 9 8 8 9 9 15 14 6 9 5 1 4 8 9 8 2 4 6 6 8 8 6 3 4 5 8 7 5 5 3 4 7 6 5 3 2 3 3 4
25 23 20 18 17 15 14 13 10 10 10 10 9 8 8 8 9 8 9 10 11 15 9 10 6 3 2 5 6 8 6 2 6 7 8 10 9 7 5 9 8 6 6 6 5 6 7 7 7 8 7 4 3 2
23 21 19 18 16 14 13 12 11 10 10 11 10 8 7 8 9 9 8 7 11 14 11 7 5 3 3 4 8 6 10 6 1 5 10 11 12 12 14 12 9 10 10 9 8 9 11 10 12 12 11 11 10 8
22 19 18 16 14 13 12 11 11 11 12 12 10 8 8 8 9 10 8 9 14 16 13 4 4 3 4 4 6 8 11 7 2 1 3 4 6 8 6 7 12 13 13 12 13 14 15 16 17 17 18 18 18 16
19 17 15 13 13 12 11 12 12 12 13 12 11 9 8 9 9 9 8 9 17 16 8 6 6 4 2 4 6 9 8 4 2 1 1 2 2 3 3 4 4 4 3 5 8 11 14 18 21 24 25 26 24 22
16 14 11 10 12 12 12 12 13 12 14 12 11 9 9 9 8 9 10 11 14 18 18 12 6 4 4 3 5 7 4 3 2 2 4 3 3 3 5 6 9 2 3 5 7 9 10 10 12 15 17 19 24 30
12 9 7 9 11 12 12 12 12 13 12 14 11 9 7 9 11 11 8 9 8 6 10 11 8 3 1 2 4 5 5 3 2 2 5 1 3 2 1 5 9 7 8 7 6 6 6 6 7 10 12 14 14 16
7 5 6 8 10 11 11 12 12 12 15 13 11 9 9 12 7 6 7 7 6 8 6 10 7 3 4 5 5 4 2 2 2 5 3 1 5 1 5 1 4 6 6 6 6 6 7 7 9 9 10 12 14 14
3 3 4 6 8 10 11 13 14 14 15 13 11 10 9 9 9 7 10 8 7 8 9 11 8 4 4 3 3 2 2 2 6 3 3 2 3 4 5 6 7 7 7 7 8 8 10 12 15 15 16 16 16 16
2 1 2 6 4 7 10 13 14 15 14 11 9 11 9 7 8 7 7 9 10 12 8 8 9 5 2 2 2 2 3 3 3 4 2 5 8 10 10 8 7 7 9 9 10 12 13 14 15 16 17 16 16 15
3 7 5 4 10 10 12 18 15 13 13 9 8 8 9 8 11 13 14 15 13 10 8 9 8 6 4 4 4 4 4 4 6 4 6 6 8 8 11 13 9 8 8 9 12 14 14 15 15 14 12 11 12 13
4 5 4 7 11 11 8 10 12 13 14 11 8 6 11 14 15 16 14 14 11 9 10 11 8 5 7 5 6 7 5 6 8 10 10 12 12 12 13 15 9 7 7 9 11 12 14 14 11 9 10 11 12 12
8 7 7 6 7 8 10 11 12 13 9 8 7 9 14 17 14 15 13 14 11 12 12 11 7 6 6 7 8 10 12 13 14 12 12 14 16 15 17 13 10 8 8 11 12 12 12 10 10 11 11 11 11 11
12 11 10 8 8 9 10 11 12 12 14 14 9 6 17 19 15 15 17 17 16 16 18 19 18 17 13 11 15 12 14 16 15 14 14 15 13 16 13 13 10 8 9 12 11 10 10 10 9 8 9 8 8 9
13 10 10 9 10 10 10 11 14 13 14 13 12 12 13 22 20 17 15 15 14 14 15 20 17 20 25 25 19 16 16 19 17 16 15 15 13 13 11 12 11 9 10 11 9 8 10 9 8 8 6 6 7 8
16 9 8 11 10 10 10 9 11 11 9 9 13 15 16 19 21 18 16 15 18 17 18 23 24 22 22 21 23 23 24 25 24 21 18 17 13 12 12 12 12 10 11 9 8 8 7 7 6 7 7 6 6 6
13 14 8 10 10 11 12 9 8 7 8 10 12 14 17 19 24 22 21 20 20 22 26 26 26 21 18 18 17 20 23 25 23 22 23 18 16 15 13 13 15 9 11 8 10 7 4 6 7 7 6 4 7 7
9 9 8 12 12 13 15 15 14 14 14 13 11 13 16 18 21 25 25 25 27 27 27 27 28 28 28 25 26 27 27 24 23 22 15 18 19 18 15 13 17 10 9 8 11 7 1 6 6 5 3 4 6 8
8 12 9 9 11 8 7 10 11 11 12 10 7 9 14 14 16 19 23 26 27 26 23 24 25 28 31 33 31 29 28 22 18 18 17 16 17 18 18 20 14 11 8 12 12 6 1 5 6 6 7 5 3 6
15 9 9 7 9 7 10 9 7 7 6 7 7 7 6 8 11 15 18 19 18 23 28 28 28 29 30 28 29 32 30 28 25 23 17 16 18 15 18 21 6 7 11 12 9 6 2 4 5 3 3 3 4 6
12 10 8 9 9 11 10 8 6 4 2 2 8 8 6 6 9 14 17 16 9 15 18 16 13 12 9 7 12 14 20 27 19 19 17 16 15 18 19 10 14 14 12 10 9 7 4 5 6 3 2 1 4 8
14 10 7 7 12 11 8 5 5 6 3 3 3 6 7 9 8 4 7 7 9 11 6 5 8 7 3 3 8 12 12 17 18 18 16 15 19 17 16 11 10 11 11 11 11 10 7 5 5 2 1 1 4 8
14 9 13 15 8 12 14 13 10 10 6 3 6 8 5 4 3 3 10 12 12 12 11 12 14 15 12 13 19 22 22 18 21 25 26 29 32 11 9 13 9 11 13 11 11 11 9 6 2 1 2 2 5 6
14 12 12 12 16 14 13 15 12 7 5 5 4 5 1 2 9 12 13 15 17 18 20 19 23 27 24 24 26 22 18 15 16 18 13 11 13 11 11 17 19 16 13 10 9 10 7 4 5 5 5 4 5 6
16 15 14 17 18 20 17 13 12 8 6 6 7 9 13 13 14 15 17 20 21 25 28 26 22 16 11 11 7 6 3 0 2 4 3 3 6 9 19 20 20 17 15 12 10 9 7 9 9 9 9 8 7 7
14 15 18 22 21 21 19 12 7 11 11 8 11 10 9 11 15 17 18 20 21 17 17 15 10 5 4 6 6 2 2 4 11 12 10 3 6 12 16 15 14 14 15 15 15 15 16 17 15 14 13 12 10 8
10 17 19 22 15 10 10 10 8 6 5 6 8 10 12 14 14 15 15 23 18 15 12 9 7 4 3 2 2 4 8 12 18 17 10 2 8 9 9 11 9 8 9 9 9 9 12 14 14 14 13 11 11 9
9 12 15 15 11 9 7 5 4 3 4 7 10 12 15 14 12 19 19 12 10 10 10 10 9 8 7 7 6 8 10 12 14 13 4 4 8 9 10 9 8 7 6 5 5 6 7 8 9 10 10 10 8 8
6 7 9 10 9 15 8 7 9 10 10 12 17 19 15 14 12 6 7 8 7 8 9 10 9 8 7 7 6 6 5 8 9 5 6 8 9 10 10 9 7 6 4 3 2 3 5 6 7 8 9 8 9 8

GFSWCAN_700_spd_102.txt.gz
Wind_Speed
28 29 28 25 23 21 17 14 13 10 9 8 8 4 6 7 9 11 13 13 12 8 6 6 7 4 2 2 3 10 3 2 3 5 6 7 6 7 7 9 7 9 6 8 8 9 7 5 3 5 6 6 7 9
29 29 28 25 24 20 17 14 13 11 10 10 9 7 7 9 10 12 14 14 13 11 8 7 9 4 5 5 3 6 8 7 5 3 4 4 6 5 7 8 9 6 7 4 4 2 3 4 3 7 12 6 6 8
30 27 27 26 25 21 17 15 13 11 10 11 11 10 9 10 10 12 15 14 13 10 8 6 6 7 5 6 7 0 6 8 9 8 4 6 5 5 6 8 7 9 11 7 6 4 2 1 3 5 4 10 8 8
30 28 27 25 25 22 17 15 14 11 11 11 12 11 11 11 11 11 14 16 15 11 6 10 8 7 7 8 7 5 4 6 7 8 5 5 5 6 5 7 7 8 9 8 6 5 4 3 1 2 3 2 9 9
28 23 22 24 24 21 17 15 15 12 11 12 13 12 13 12 12 11 11 15 15 14 5 8 9 10 8 7 6 6 6 3 4 4 4 7 8 5 6 5 6 9 8 6 5 6 7 5 3 3 2 1 1 7
22 25 24 24 22 20 18 15 15 13 12 13 13 13 13 12 13 13 12 14 15 16 11 3 11 10 9 9 9 9 8 6 4 4 6 9 8 6 4 6 10 9 10 10 9 8 8 7 6 4 3 3 3 3
26 25 25 23 20 19 16 16 14 13 14 14 13 13 13 13 14 16 15 12 14 14 13 7 7 12 11 9 8 9 9 7 4 6 8 9 9 9 10 10 9 10 11 10 10 8 9 9 9 7 6 4 3 2
25 22 24 22 18 19 16 15 13 14 15 14 14 14 13 13 13 14 14 11 12 16 16 5 7 7 7 6 6 7 6 7 3 4 4 5 6 9 7 7 11 13 12 12 12 12 13 12 12 11 10 10 8 8
28 27 24 21 17 14 13 14 14 15 16 15 15 14 13 12 12 12 13 11 12 18 10 9 7 6 7 8 8 8 6 3 4 4 5 4 6 6 5 5 6 9 12 11 10 10 11 12 12 13 13 13 13 14
24 24 18 19 19 11 12 14 16 17 17 16 15 13 13 11 10 11 11 11 14 21 21 9 11 7 5 5 5 4 3 3 3 7 5 6 8 7 6 6 7 9 10 9 7 8 11 13 13 12 11 12 14 17
17 19 18 15 15 10 13 15 17 18 18 17 14 13 11 11 11 11 9 10 10 9 13 15 13 9 10 4 6 4 4 3 2 5 3 4 5 7 7 4 6 9 11 11 10 10 10 11 11 11 12 13 13 14
13 11 12 11 11 11 14 17 18 19 17 15 12 12 11 11 8 7 8 8 9 10 9 12 15 13 11 7 3 4 3 3 3 6 3 4 5 5 6 7 7 9 10 10 10 9 10 10 10 10 12 13 14 15
9 9 9 11 12 14 16 17 18 19 17 15 14 13 9 10 10 9 11 9 9 10 13 13 16 15 10 7 5 3 3 4 5 4 4 5 6 3 2 2 4 7 9 10 9 9 10 11 11 12 13 14 15 16
6 8 7 10 12 15 16 17 17 17 19 18 14 14 10 8 9 11 11 9 11 11 12 16 15 10 9 5 5 3 6 4 4 5 5 4 5 4 2 2 4 5 7 10 11 11 12 12 13 14 15 16 16 16
9 6 9 11 13 17 19 18 18 21 21 15 10 9 12 9 10 14 15 13 13 13 17 17 13 7 7 5 4 6 4 5 6 5 5 7 6 5 6 8 8 10 10 12 12 13 14 14 15 16 16 16 16 16
12 10 12 19 16 18 19 23 21 19 21 15 11 7 8 13 10 12 15 14 17 18 16 13 11 7 8 5 6 7 4 6 3 5 5 9 10 10 10 12 14 13 12 13 16 17 17 17 18 17 16 15 14 14
13 9 8 11 18 16 15 18 26 21 18 12 12 14 9 11 11 11 17 15 22 20 16 12 9 9 6 6 7 9 7 3 3 4 6 10 13 14 14 12 15 16 14 15 16 17 18 18 18 17 15 15 15 15
15 14 10 5 10 12 11 7 8 15 14 13 14 8 11 12 15 16 18 21 23 18 17 14 12 12 8 8 8 8 7 11 14 17 17 16 13 15 16 16 15 17 16 16 18 17 17 17 16 15 15 14 14 14
21 16 18 14 12 11 12 13 15 8 12 15 14 15 12 11 18 17 18 22 24 22 21 21 13 15 17 17 16 14 15 14 14 15 18 17 20 19 24 21 21 21 18 17 15 17 17 15 14 14 13 14 13 13
13 13 19 19 16 15 13 9 10 14 10 12 15 15 16 16 17 23 21 21 23 25 27 26 21 16 15 14 14 17 18 21 23 22 21 24 26 29 30 27 25 33 22 22 17 16 16 15 14 13 12 13 13 12
14 16 18 21 21 19 13 9 10 8 11 12 11 12 12 17 19 22 27 25 24 28 25 20 18 18 18 21 24 25 27 30 28 30 30 26 28 28 31 34 32 41 32 26 21 18 15 14 11 13 13 12 13 10
13 15 17 21 17 20 17 13 12 13 11 10 9 8 9 11 13 17 20 29 34 29 22 21 19 20 23 27 29 32 32 31 30 30 31 32 33 35 34 29 35 34 35 29 30 17 15 14 13 15 12 11 11 8
12 12 14 13 10 9 9 11 12 12 10 7 9 10 11 12 13 17 20 23 22 21 26 28 27 28 30 29 28 30 33 32 31 29 29 30 33 32 28 32 28 31 28 29 34 25 21 13 14 12 11 11 8 5
11 12 10 10 9 7 7 7 7 9 8 8 7 7 7 9 8 11 12 12 13 16 17 18 19 19 19 18 16 13 9 8 11 12 14 16 18 21 25 28 28 20 16 26 32 22 14 14 13 11 10 8 7 7
7 8 6 8 7 8 10 7 9 7 6 6 6 6 7 8 8 8 6 8 9 10 12 15 14 13 12 12 12 14 16 17 17 15 15 16 17 15 19 24 22 23 19 19 26 14 16 16 13 11 9 8 10 8
9 7 7 5 7 6 8 6 7 9 9 7 5 4 7 9 6 3 6 4 2 1 3 5 7 11 15 18 19 18 21 23 23 23 23 22 18 19 22 20 22 7 11 22 19 16 18 16 13 11 10 10 9 10
10 7 10 13 9 8 11 8 7 7 7 5 2 4 4 4 3 5 4 3 3 6 8 13 15 18 21 24 26 27 25 23 21 21 21 17 14 9 9 10 3 12 14 12 18 18 16 16 15 14 13 12 11 8
10 10 11 7 9 9 10 8 8 7 4 5 7 1 2 2 3 4 6 7 9 12 12 20 17 16 14 13 12 10 9 8 8 10 8 8 9 8 10 9 12 15 17 19 19 17 16 16 15 16 15 13 12 11
11 10 10 10 10 11 13 13 8 8 7 6 4 2 2 5 6 7 8 11 14 13 20 17 14 13 11 11 11 10 9 9 9 9 8 8 10 10 9 12 18 19 20 22 21 19 18 16 16 16 15 13 12 11
13 13 12 13 12 11 10 11 11 10 11 10 5 4 7 6 7 9 12 13 14 20 15 12 11 10 11 13 14 14 13 12 10 7 6 5 4 6 9 14 16 16 18 20 19 17 18 19 20 19 18 15 14 13
12 11 15 14 13 13 12 13 8 5 9 10 8 8 7 6 7 9 13 14 16 8 8 8 8 8 9 10 11 11 10 9 8 6 3 2 3 8 12 14 14 15 15 13 13 13 14 18 19 18 17 16 16 16
10 11 8 8 7 10 13 13 9 6 6 6 5 6 8 7 8 11 18 10 4 5 7 7 7 7 7 7 8 8 7 8 10 8 5 2 4 7 9 11 11 13 13 14 15 16 18 20 20 20 19 20 19 20
15 15 17 15 14 12 13 11 7 5 4 4 5 8 6 4 1 1 2 3 3 4 6 7 7 7 6 7 7 8 8 9 10 11 7 4 5 8 11 12 13 12 10 7 7 9 11 13 17 19 19 18 17 18

GFSWCAN_700_spd_105.txt.gz
Wind_Speed
27 27 28 26 26 25 22 21 18 16 13 11 10 8 9 10 11 13 15 16 16 6 8 4 3 2 2 2 4 7 6 6 5 6 7 8 9 9 10 8 6 14 16 11 12 7 13 3 2 3 5 3 5 12
29 27 27 28 27 25 23 20 19 16 15 13 13 11 10 11 12 14 14 17 16 10 6 6 8 9 7 5 4 5 7 6 5 4 6 7 8 9 10 12 9 10 6 4 4 6 3 2 4 5 7 6 6 12
28 27 30 28 27 25 24 21 19 17 15 15 14 13 12 12 13 16 16 17 16 8 6 6 6 2 2 2 2 1 5 9 7 10 4 7 7 7 8 10 9 8 13 8 7 1 0 4 3 5 7 2 5 10
28 28 27 25 24 24 22 21 19 18 16 16 16 14 14 14 14 15 19 19 16 9 9 12 15 10 3 4 3 3 6 7 7 5 6 8 8 8 6 8 7 4 3 6 4 6 2 3 4 4 5 5 8 8
28 25 22 23 23 24 22 20 18 17 16 16 17 15 14 15 15 15 16 19 19 15 5 10 6 7 3 4 3 3 4 2 2 4 5 8 9 8 8 8 9 10 7 10 9 11 9 7 6 4 3 5 5 6
25 21 21 19 23 23 22 19 18 16 16 16 17 16 15 16 16 15 13 16 19 22 8 6 10 12 8 6 4 7 5 2 3 5 7 10 15 7 7 9 9 9 15 11 7 8 10 12 9 8 7 6 3 3
22 17 20 22 21 21 20 19 16 16 15 16 18 17 16 17 18 21 17 17 17 17 12 6 9 9 10 6 3 3 10 4 3 7 6 7 9 9 9 12 7 10 10 13 14 10 8 7 6 9 9 8 5 5
21 25 23 20 21 20 18 17 15 16 15 16 18 16 16 16 16 17 18 13 15 16 10 9 8 7 9 5 8 8 3 8 6 5 6 5 10 8 12 10 10 11 11 13 13 10 7 11 10 10 10 9 7 5
22 23 25 24 22 16 14 14 14 16 15 18 18 16 16 15 14 18 16 15 14 19 11 10 11 7 8 7 8 6 5 4 13 5 7 6 11 8 6 7 10 12 12 10 11 11 10 8 8 10 9 8 6 10
24 24 24 21 17 15 15 11 14 16 18 20 17 15 13 16 12 12 13 12 14 17 18 10 10 8 6 6 6 4 6 5 5 6 10 8 12 9 9 9 9 10 11 10 10 9 9 8 8 9 10 10 11 11
19 19 17 15 15 13 12 13 16 18 20 19 17 14 14 13 12 12 7 10 9 10 14 15 13 12 10 7 8 6 4 5 4 5 4 7 7 11 8 8 7 9 12 12 10 9 8 8 7 7 8 10 12 14
15 14 11 10 9 9 9 14 18 20 23 22 16 12 12 13 7 7 10 9 9 14 9 15 16 12 10 10 7 6 4 4 4 5 4 5 5 13 9 10 10 9 11 12 13 13 13 12 9 7 7 4 5 9
13 11 7 7 8 9 12 16 18 19 19 19 15 14 9 9 12 10 14 12 11 9 12 14 17 16 12 8 7 6 4 6 5 4 5 4 9 9 5 5 5 7 10 12 13 12 11 11 12 11 10 10 10 10
12 10 9 9 12 14 16 19 20 22 22 20 14 14 10 7 8 11 13 10 11 10 12 14 14 11 9 9 6 4 6 6 5 7 8 5 10 5 4 4 4 3 4 8 10 11 12 12 13 15 15 15 14 13
12 13 10 9 14 17 19 20 22 24 23 19 10 9 12 10 8 10 12 13 12 11 13 16 12 10 9 7 6 6 5 5 6 5 3 8 12 9 7 8 7 8 8 8 10 11 11 11 12 13 15 15 17 18
14 13 10 15 18 18 22 26 22 25 26 17 12 9 8 11 11 10 11 11 12 14 15 15 12 12 10 7 8 9 6 5 4 6 6 10 12 11 11 10 10 11 12 11 12 13 14 15 15 14 17 17 18 18
17 18 13 11 22 20 21 23 23 23 22 11 12 13 11 7 11 10 12 14 14 18 20 17 11 11 7 10 12 9 11 5 5 4 4 10 15 13 11 12 13 14 14 15 16 16 18 17 17 19 19 18 18 17
20 13 10 5 18 21 20 23 24 15 16 16 13 12 11 10 11 11 12 22 24 20 19 18 12 15 13 9 9 9 8 9 9 11 13 17 22 19 18 16 16 17 18 19 20 19 18 19 19 19 19 18 15 16
16 5 14 8 9 11 8 8 10 6 14 14 12 13 12 11 11 14 11 19 17 21 21 21 16 13 15 14 13 14 12 14 13 14 21 12 20 21 21 23 23 23 22 26 25 24 20 18 18 17 14 14 12 14
14 5 4 13 13 12 10 6 11 12 6 6 12 13 12 13 10 12 16 14 19 22 20 18 17 16 14 15 11 12 15 17 21 17 17 20 21 27 27 23 30 32 32 33 34 35 33 22 19 17 14 13 11 12
10 7 7 15 16 17 14 7 9 5 7 10 6 11 11 11 15 15 15 17 19 22 22 20 18 18 23 24 18 18 20 19 22 24 23 23 21 23 31 31 30 32 34 37 37 35 33 28 25 17 16 13 14 14
14 18 16 11 24 23 21 15 12 10 8 7 8 10 11 13 13 15 15 19 21 22 19 19 19 20 22 18 20 27 29 31 33 33 29 26 26 22 30 32 33 33 38 40 37 33 37 29 22 20 16 16 14 12
12 10 12 18 18 17 17 18 15 11 8 6 9 11 11 12 13 13 18 19 20 19 21 18 21 29 30 29 32 31 29 30 29 25 20 23 22 21 20 25 30 31 36 36 36 36 32 26 22 13 14 13 13 12
16 12 10 13 8 8 8 11 12 11 10 9 9 10 9 10 12 13 15 16 14 13 16 24 28 28 22 20 17 16 16 10 9 12 12 13 14 16 18 20 22 24 25 26 17 14 22 25 15 16 15 13 11 10
12 13 7 9 10 8 7 7 8 8 5 7 9 7 8 11 13 9 7 6 11 11 13 13 11 12 14 17 18 12 17 17 15 14 16 22 24 26 22 23 21 23 20 22 13 13 20 20 18 19 15 14 12 11
7 5 7 6 7 7 6 7 8 9 9 8 5 5 7 6 6 6 10 6 6 5 5 5 5 8 9 14 18 18 27 24 24 28 24 28 24 26 23 21 17 15 14 19 9 12 17 17 18 15 16 16 19 15
6 4 7 9 9 7 6 7 5 5 4 6 9 5 5 5 7 10 13 8 3 4 4 5 10 14 15 17 21 26 25 26 25 22 21 18 17 19 16 15 11 4 7 6 10 15 12 17 16 14 13 13 13 14
8 9 8 4 8 7 8 10 5 4 4 3 4 1 2 3 5 4 10 6 1 3 7 9 14 11 10 10 9 9 8 9 9 10 11 11 8 11 12 12 13 6 5 6 13 17 14 15 16 14 14 13 13 13
9 6 8 10 9 9 8 9 5 5 4 6 7 4 4 3 3 2 3 4 6 9 11 15 12 10 8 6 5 4 4 4 5 6 6 8 8 8 12 10 5 8 5 8 20 22 18 17 15 13 15 14 13 13
10 10 9 7 9 11 6 9 10 10 10 6 2 1 5 7 5 5 7 8 8 13 13 6 5 3 4 6 7 8 6 4 2 8 12 8 5 7 5 4 3 6 4 10 13 19 21 23 20 18 16 15 15 15
16 13 12 11 10 11 10 7 5 6 7 6 6 8 6 6 9 8 9 11 12 14 8 5 3 1 0 3 4 5 7 8 6 7 5 3 7 8 5 10 11 10 11 14 14 15 16 18 17 17 18 18 18 18
11 11 9 7 7 9 11 11 9 8 7 7 7 9 10 9 4 7 10 4 4 3 4 3 0 4 4 5 7 7 5 6 9 9 10 6 4 7 7 6 10 12 13 14 15 14 15 14 17 18 18 19 18 18
13 14 14 11 7 7 9 10 6 5 6 10 10 6 5 4 3 3 1 1 2 1 4 6 6 6 5 5 4 6 7 7 11 11 10 8 8 7 10 11 11 12 13 13 14 15 15 16 17 18 19 19 20 19

GFSWCAN_700_spd_108.txt.gz
Wind_Speed
27 29 28 27 27 27 25 24 21 20 19 15 13 12 11 13 13 16 20 19 17 10 7 6 7 5 5 3 7 8 8 6 6 10 10 8 6 8 5 7 7 6 12 14 4 6 15 10 8 10 7 12 18 11
28 28 27 26 27 28 27 24 22 21 19 16 14 14 14 15 16 17 17 20 19 15 1 3 7 6 7 8 7 7 7 10 7 5 7 9 12 9 6 8 8 7 8 5 9 4 8 10 6 4 5 1 11 19
29 29 26 26 28 28 26 23 22 21 20 17 15 15 15 16 18 19 20 18 21 22 8 12 9 4 3 4 5 4 2 10 6 9 8 8 8 9 9 8 9 16 5 6 5 8 10 8 4 2 7 5 13 16
31 31 29 27 27 27 24 22 21 21 20 18 15 16 16 17 19 20 21 21 24 14 12 9 12 10 7 9 5 5 6 9 11 8 6 9 12 9 7 6 6 7 10 4 4 4 2 5 3 3 3 4 7 9
29 29 27 26 25 24 21 20 20 20 19 18 16 17 17 17 19 19 22 21 23 17 9 8 10 9 3 9 2 3 4 5 4 5 5 8 8 5 9 9 6 4 4 7 9 7 7 8 3 3 4 5 6 7
25 26 27 24 23 24 23 20 19 19 17 16 16 17 17 17 18 18 18 19 23 25 11 5 10 12 8 10 5 5 4 3 3 5 8 6 12 12 5 7 5 5 3 1 4 9 4 7 7 3 1 6 7 6
23 23 23 21 19 19 18 19 17 16 15 14 15 17 16 17 19 22 20 19 24 24 17 3 8 9 10 8 5 4 8 5 5 6 9 8 12 8 11 12 7 7 6 7 9 10 7 5 4 3 4 6 9 8
20 21 19 21 22 22 22 20 16 14 14 13 15 16 17 16 18 20 21 17 15 23 16 8 7 6 10 5 7 9 6 8 11 4 7 9 9 8 11 10 12 9 9 7 9 7 2 7 9 6 4 3 4 9
21 22 22 23 22 21 20 16 13 13 13 14 16 17 15 14 17 21 21 20 16 23 13 15 14 12 7 6 9 7 5 7 11 11 9 11 14 13 8 7 7 11 10 8 8 9 9 8 7 7 7 6 5 11
22 23 24 25 23 21 16 12 10 13 14 17 16 14 10 16 19 15 13 17 18 24 23 13 11 16 9 6 8 7 3 6 7 7 9 12 19 7 10 9 9 12 12 11 11 11 11 10 10 10 9 10 8 7
23 22 22 21 18 14 11 11 9 13 15 16 15 12 14 13 13 13 7 11 11 11 17 23 15 9 13 10 9 6 5 4 7 8 7 7 9 11 10 6 8 9 9 12 12 12 11 9 10 8 9 12 18 20
17 18 16 11 11 10 11 13 17 19 20 21 19 15 15 13 9 8 11 11 10 16 9 16 18 12 11 9 7 4 6 6 6 5 6 6 8 15 11 10 9 9 8 11 13 13 13 10 10 9 9 8 6 11
12 13 11 8 6 8 12 15 17 17 19 21 21 14 11 10 11 12 16 16 17 9 12 13 20 16 11 6 7 6 6 8 6 7 8 7 12 10 8 5 5 5 7 10 12 13 12 13 12 12 11 11 11 11
12 10 10 12 8 11 12 17 19 22 23 20 15 16 12 8 10 17 18 16 13 12 12 14 19 16 9 9 7 5 9 7 6 9 10 9 12 7 4 2 3 4 4 8 11 12 12 13 13 14 15 15 13 12
14 13 11 13 12 17 18 19 22 25 26 17 11 10 15 13 6 9 11 15 13 15 17 16 16 13 14 8 9 6 5 6 6 6 5 12 11 11 10 8 7 6 6 6 9 11 11 12 12 11 12 16 14 13
15 12 12 9 11 14 17 23 29 27 28 19 14 9 6 11 12 9 14 15 20 17 15 17 16 16 12 13 11 12 8 8 5 6 9 9 11 13 9 9 8 8 10 10 10 10 11 12 11 15 18 20 13 16
15 15 14 13 10 16 22 22 29 33 29 25 21 21 10 9 17 16 12 16 14 16 21 22 16 16 8 14 16 13 14 9 3 5 10 10 11 13 15 14 12 11 12 13 15 15 15 14 15 21 23 19 17 19
14 15 13 16 14 13 15 20 24 16 22 26 26 13 15 15 17 14 14 20 22 22 21 24 16 16 17 13 11 13 11 10 11 9 7 10 15 18 24 18 15 16 17 17 18 19 21 21 25 25 24 20 20 20
11 10 13 13 9 9 11 18 20 14 21 21 22 26 18 14 14 16 19 27 27 22 27 22 16 19 17 13 12 10 12 13 19 19 16 21 22 19 21 19 18 21 22 24 25 25 30 30 26 29 34 23 17 14
8 9 4 11 13 18 9 2 15 12 7 7 11 16 17 15 13 14 13 18 5 36 36 15 32 19 20 7 16 21 17 10 13 13 18 20 22 15 17 21 23 23 23 22 26 27 28 32 34 37 36 22 18 13
9 13 5 10 13 11 8 8 7 5 4 9 7 12 13 12 15 15 13 12 16 15 24 23 22 17 24 15 23 26 29 30 17 10 14 16 18 20 21 21 26 27 24 30 35 33 33 38 39 39 32 27 17 12
17 15 15 8 16 15 15 15 10 9 10 9 12 16 15 19 20 15 15 17 18 18 16 16 17 15 17 24 28 28 26 24 19 28 31 30 22 20 23 24 27 29 24 29 28 29 34 39 41 38 20 22 15 20
13 16 17 18 10 12 12 16 14 12 10 7 10 12 10 10 12 18 22 18 17 17 17 19 17 20 24 29 31 31 29 27 31 30 20 13 11 15 17 19 21 22 21 21 25 31 40 46 34 25 23 13 16 18
13 19 17 12 12 8 14 15 17 15 14 11 8 15 14 12 10 15 17 15 15 15 18 21 25 24 25 31 32 28 23 26 20 15 13 15 16 19 9 16 17 22 23 23 20 21 17 25 14 14 12 16 18 18
20 16 7 9 11 12 8 7 6 8 8 10 13 12 11 11 12 15 10 12 14 15 16 17 18 19 20 18 13 21 23 37 25 15 15 20 25 27 30 27 23 22 22 22 23 15 18 11 10 16 19 20 16 12
8 5 7 10 8 6 4 4 7 8 11 11 6 4 3 6 8 9 15 18 20 17 20 17 11 11 11 18 21 14 20 18 22 22 19 25 27 28 30 25 18 17 19 18 13 13 17 10 9 17 21 15 15 16
6 4 7 6 8 9 9 5 7 6 4 5 6 7 7 6 8 14 12 15 18 2 6 3 8 9 10 9 13 21 23 22 21 21 24 24 20 21 22 19 14 13 12 9 17 14 11 11 15 20 15 15 14 16
5 4 4 7 8 4 6 7 9 4 6 4 5 6 5 6 9 5 8 8 9 3 5 8 10 13 15 13 14 14 15 14 13 13 14 14 15 13 12 13 15 14 9 8 10 14 13 17 23 19 16 14 16 15
7 4 6 7 8 9 6 8 11 3 4 3 3 8 12 7 11 13 9 5 0 4 4 5 11 12 9 8 10 10 10 9 9 10 10 10 10 10 12 12 12 5 3 7 15 24 25 24 22 17 12 14 15 16
7 7 8 7 9 7 5 8 8 4 11 3 5 8 12 16 8 8 2 5 6 6 10 8 5 2 4 6 9 14 8 9 12 11 10 12 11 10 9 5 2 4 1 10 22 21 19 20 19 15 24 30 20 15
7 9 9 10 8 7 7 3 7 11 5 8 8 4 11 8 3 3 5 9 9 9 4 3 4 2 2 4 5 6 5 8 16 10 5 2 10 16 13 5 3 7 8 8 9 11 9 11 14 13 14 13 13 17
14 13 10 10 10 9 9 10 8 7 4 4 7 12 14 15 2 5 5 12 6 1 7 4 2 5 10 8 6 10 13 12 9 7 6 2 7 14 13 5 4 4 6 4 6 7 19 20 14 19 19 20 19 20
12 13 14 11 8 7 8 10 7 6 8 14 9 4 9 7 4 1 2 6 6 3 3 2 2 4 5 4 8 10 10 8 13 12 11 9 9 15 12 6 12 13 10 12 15 16 16 19 18 12 19 17 18 21

GFSWCAN_700_spd_111.txt.gz
Wind_Speed
30 27 26 27 28 26 23 23 25 22 19 18 16 15 14 13 14 18 19 21 23 21 3 1 6 9 7 8 9 7 2 2 8 9 11 7 4 2 4 7 7 13 4 3 3 3 7 9 7 4 3 3 10 12
29 29 28 29 28 26 24 24 24 23 20 18 17 16 16 15 16 17 20 24 26 24 12 12 8 16 13 19 15 14 5 5 10 9 6 4 6 1 5 4 7 2 4 3 5 3 8 11 4 4 7 13 9 11
30 31 32 32 31 29 26 26 25 23 20 18 18 16 17 17 18 19 19 22 24 24 19 6 8 15 5 9 11 7 8 9 8 13 16 12 6 7 6 4 6 6 5 8 3 3 3 5 14 5 7 10 9 12
31 31 31 31 30 27 25 25 25 22 20 19 18 16 17 18 18 20 21 20 18 24 23 2 8 20 13 14 15 12 13 18 18 18 16 5 8 7 5 5 5 9 4 6 7 4 8 4 6 9 10 8 3 4
31 30 29 27 27 25 26 25 23 20 20 19 18 16 17 18 18 19 21 21 16 23 17 21 13 12 11 9 9 10 11 8 7 4 6 8 11 7 7 7 9 10 7 13 7 6 5 5 5 6 11 6 2 1
28 28 26 25 23 24 23 22 23 22 20 18 16 16 17 17 18 18 18 22 24 23 20 10 13 18 17 13 12 8 2 6 3 8 6 7 13 8 7 10 13 7 12 11 11 10 11 4 8 7 10 7 3 3
22 21 20 21 21 23 22 20 20 18 19 16 14 15 17 18 19 19 20 21 24 25 26 7 9 13 13 15 13 2 6 7 8 4 6 9 10 9 12 16 6 2 4 4 6 6 11 7 3 9 9 8 4 4
22 21 20 20 21 20 21 21 20 19 17 14 14 16 18 18 20 20 20 19 19 26 27 16 5 9 12 10 3 4 7 8 13 14 9 12 16 17 14 9 17 7 11 12 11 9 1 3 7 8 8 6 4 4
19 19 21 22 21 22 21 21 20 16 15 14 15 17 17 18 17 16 21 20 18 22 24 26 16 7 12 5 8 12 9 8 9 14 16 12 17 14 16 10 9 16 16 16 14 14 8 9 15 7 5 4 5 9
23 23 24 23 22 23 20 19 17 14 13 14 15 14 13 13 15 13 17 21 22 21 27 30 27 16 12 9 11 12 5 4 7 8 8 15 20 8 6 8 8 14 16 14 13 15 21 14 9 8 13 14 9 12
23 22 23 23 22 22 18 15 11 11 14 16 15 12 10 9 11 11 9 12 15 16 26 30 23 12 19 9 14 11 5 4 8 13 12 8 11 9 9 6 5 10 12 10 14 14 14 15 22 17 16 14 20 20
19 19 18 16 16 13 12 12 13 17 19 20 19 13 14 14 8 8 10 10 9 19 10 17 28 18 10 10 10 10 7 5 6 7 7 7 11 9 7 8 6 8 8 13 15 17 19 12 15 14 14 12 14 23
15 13 11 11 11 8 9 11 16 19 18 18 18 15 10 11 10 10 14 12 19 10 14 12 13 22 17 13 13 7 7 8 7 10 13 15 12 6 6 5 3 6 7 9 15 18 17 15 15 16 16 12 10 13
16 13 11 11 13 11 11 13 17 20 21 22 14 14 10 8 10 21 19 18 11 13 13 16 18 22 17 16 9 7 10 9 7 12 17 12 11 5 4 4 3 2 4 8 11 13 12 13 14 14 16 16 15 16
15 14 13 12 15 10 14 14 20 23 25 20 11 11 16 12 6 4 7 15 22 20 12 19 22 22 20 11 11 8 7 7 7 13 11 12 9 9 7 8 8 5 4 5 7 8 9 8 10 12 11 13 13 14
18 14 12 10 11 11 17 19 23 24 26 20 13 8 6 9 13 5 7 9 14 20 19 22 25 28 19 11 12 15 11 10 10 12 11 8 8 9 7 6 6 7 5 4 6 7 7 8 8 10 10 13 14 11
13 10 14 10 8 3 8 14 28 30 25 23 24 20 17 10 12 14 15 17 22 17 26 31 19 19 9 17 17 18 18 15 9 12 12 14 13 10 8 8 14 12 11 10 9 10 11 11 12 13 15 21 20 16
12 13 12 12 11 9 10 10 22 26 33 35 34 21 24 12 14 12 18 14 17 12 25 25 14 21 20 14 11 19 14 18 19 15 13 11 11 10 10 12 10 12 11 10 13 16 17 18 19 20 22 20 23 25
8 9 9 10 11 9 8 12 19 15 32 33 29 24 24 28 29 17 14 16 19 21 19 17 25 22 21 20 19 11 20 15 10 13 14 13 15 16 17 20 19 14 14 15 15 19 21 21 22 26 29 27 26 31
11 9 10 7 8 9 5 5 9 21 15 14 21 22 21 25 24 21 13 15 17 31 30 17 16 24 21 9 15 14 17 16 18 16 16 14 11 17 14 17 18 17 23 23 20 20 26 29 32 31 31 35 36 38
9 6 6 8 9 16 9 7 8 3 12 17 9 6 11 13 21 22 16 17 18 24 43 35 27 20 23 17 15 16 17 14 15 18 27 28 15 11 19 23 25 20 23 23 25 30 29 28 30 36 39 45 44 43
10 11 15 8 14 10 14 14 8 11 12 11 16 14 19 21 19 17 13 20 22 19 14 17 25 19 32 24 15 22 23 22 21 22 25 26 26 22 22 22 22 27 29 32 31 28 29 26 33 30 38 48 44 23
11 11 13 11 15 13 10 13 15 14 12 7 9 11 6 13 16 11 25 23 22 20 18 18 16 13 12 16 21 21 22 22 26 29 32 22 23 25 25 25 24 12 18 19 19 21 22 21 22 26 31 35 17 17
13 11 12 10 13 9 9 11 9 13 16 12 12 9 10 13 11 18 16 8 12 16 15 18 18 19 21 21 26 27 25 25 25 22 21 20 23 25 23 22 26 24 18 22 24 23 23 23 21 19 27 24 18 20
10 11 8 12 11 12 9 7 8 10 12 9 11 13 6 13 12 12 10 8 14 13 15 20 17 17 19 23 22 23 26 26 25 25 21 31 28 19 23 27 25 25 27 24 21 22 21 22 21 19 16 16 20 19
13 12 8 12 13 11 8 2 4 7 8 10 9 19 15 14 12 3 7 15 18 17 15 15 17 17 18 19 18 23 27 25 27 20 19 13 23 24 31 32 26 19 17 15 16 18 20 18 20 15 16 19 18 19
9 6 10 14 10 5 2 4 6 6 10 8 2 2 0 4 3 5 8 9 11 18 24 25 24 18 9 10 16 20 14 12 13 15 16 16 18 20 21 20 18 15 12 12 14 14 15 17 16 13 17 18 23 22
7 10 6 4 6 6 7 7 6 6 4 5 2 4 2 2 4 7 2 7 14 8 6 2 3 8 13 16 18 16 14 12 11 10 10 12 13 15 16 16 14 15 15 15 12 11 16 16 14 11 19 18 15 13
10 5 4 5 9 7 5 3 4 6 4 4 5 6 7 8 4 6 11 9 9 4 2 3 11 14 7 10 11 19 9 7 7 10 10 11 8 8 9 10 11 11 11 10 9 13 17 15 24 29 26 22 16 15
8 9 8 5 6 3 1 4 6 2 4 1 1 7 7 11 12 11 7 6 6 5 6 4 7 5 5 12 11 15 15 9 8 15 19 20 16 13 13 11 7 4 3 4 9 13 15 26 32 29 26 26 27 27
8 6 5 7 8 5 3 1 2 3 5 5 1 7 11 11 4 6 4 2 7 7 0 1 5 3 2 8 10 6 6 10 17 20 17 10 14 14 14 13 6 4 3 7 9 13 14 16 17 17 16 18 8 16
12 13 10 10 9 9 7 8 6 3 4 5 4 7 7 8 5 10 13 12 8 3 6 7 1 11 12 5 9 10 12 15 21 25 22 16 15 17 16 13 3 3 6 7 7 9 13 14 15 15 11 9 6 10
18 16 20 15 14 11 11 9 6 6 8 7 4 7 10 6 7 5 6 9 10 8 10 12 11 8 9 13 15 15 16 16 16 15 14 13 13 11 13 15 13 7 7 7 8 8 10 13 14 15 7 16 18 21

GFSWCAN_700_spd_114.txt.gz
Wind_Speed
31 29 28 28 25 23 23 23 21 19 18 18 17 16 16 15 15 16 20 24 26 27 17 10 6 4 10 13 15 15 10 5 6 7 6 2 2 1 4 2 1 4 2 4 8 10 10 8 4 8 9 8 7 6
28 28 27 27 26 26 26 26 23 21 20 19 17 17 17 16 16 17 22 22 25 23 21 14 12 12 9 11 13 13 8 9 7 7 5 3 2 4 2 5 2 3 4 2 6 7 3 3 5 8 5 8 5 9
31 30 27 25 26 27 29 27 24 22 21 19 18 18 18 17 18 18 20 22 23 24 24 20 15 12 2 5 9 16 17 14 11 12 11 8 9 6 7 7 7 6 5 6 7 4 3 6 13 10 2 4 10 8
30 30 31 31 29 28 27 26 23 21 20 19 18 18 18 18 18 19 21 23 21 21 23 17 15 14 13 10 15 15 14 17 18 17 15 15 10 7 7 7 7 7 5 7 10 9 7 6 6 7 9 2 5 7
29 28 27 28 28 26 24 23 22 22 21 20 20 19 18 18 18 19 20 23 21 19 12 20 11 14 16 14 11 9 8 12 8 9 11 5 6 9 10 13 9 7 9 9 12 8 3 4 6 5 5 5 5 6
25 25 24 25 25 24 23 21 19 18 18 18 18 18 17 17 18 19 20 24 24 20 19 12 20 20 17 14 15 12 3 1 4 13 13 6 5 9 12 4 12 14 14 12 9 9 7 6 5 9 6 6 6 7
21 20 19 19 19 19 18 19 19 19 18 18 18 17 17 16 18 19 19 22 24 22 17 17 10 9 16 13 17 13 4 2 3 6 14 8 6 10 13 13 12 15 16 19 8 8 13 13 8 9 9 4 5 5
17 17 17 18 19 19 18 18 16 17 18 19 17 16 16 16 17 17 18 15 19 24 20 13 7 9 15 16 12 6 3 5 11 10 9 12 14 15 18 15 10 12 8 9 4 8 7 9 9 6 5 5 7 4
16 16 18 20 20 19 19 19 17 17 18 16 14 14 14 14 14 15 19 17 17 23 21 22 20 12 16 14 9 9 9 13 12 16 10 11 15 14 11 10 11 13 15 10 10 15 13 10 7 9 9 9 1 5
17 17 18 20 20 20 21 19 17 16 16 14 12 13 11 10 13 16 20 20 20 20 25 27 29 14 8 6 12 12 13 10 8 9 10 15 20 11 9 10 10 14 17 15 14 18 21 15 13 14 14 12 10 10
17 18 21 20 20 20 20 18 16 13 12 14 15 14 12 12 12 13 12 16 14 15 22 27 30 30 15 16 13 10 9 6 8 10 12 12 16 6 7 10 5 11 15 14 12 15 22 19 20 18 17 15 16 19
17 18 18 17 15 14 14 11 11 11 13 15 16 15 13 13 9 9 9 9 9 17 14 16 23 29 24 20 16 16 11 6 6 5 5 6 2 4 9 9 9 10 13 14 17 18 17 17 21 23 26 22 17 17
15 15 14 14 11 11 10 7 8 13 16 17 19 15 11 12 10 10 13 15 16 7 6 20 15 30 19 14 18 11 7 8 9 7 8 15 9 2 2 2 6 9 13 15 19 18 18 19 16 16 18 18 15 15
16 15 13 13 12 11 11 7 8 17 22 21 16 12 8 7 11 19 21 19 14 11 2 14 9 17 30 20 10 8 12 10 9 12 19 9 3 3 1 2 1 2 5 10 14 15 16 15 14 14 14 15 14 13
14 14 13 11 13 12 11 11 12 19 24 24 13 10 15 7 7 5 4 11 17 17 12 12 14 19 24 18 15 9 6 8 7 16 14 3 8 8 4 5 4 3 4 7 10 12 12 12 13 12 12 12 12 11
14 13 15 12 12 10 7 15 16 22 25 17 12 10 10 17 12 8 8 6 13 17 15 16 18 26 21 20 11 17 14 10 12 2 7 5 6 5 4 2 3 8 5 4 5 5 6 7 7 6 8 9 9 8
14 12 11 11 9 7 9 17 14 24 23 21 23 20 16 17 17 5 6 2 7 17 12 14 16 13 12 24 26 17 29 16 15 9 4 5 5 3 4 4 6 11 7 5 5 7 7 8 9 11 9 10 13 9
13 13 13 13 14 11 6 8 12 26 29 31 29 23 25 17 14 13 5 2 5 10 15 17 20 21 10 24 15 13 25 19 16 15 9 10 10 8 7 6 7 8 7 6 7 7 9 13 16 14 14 18 19 17
11 13 11 11 11 10 7 9 13 13 24 25 26 24 25 24 24 19 14 10 7 6 11 18 12 20 19 8 15 15 13 19 19 12 15 14 13 10 10 13 12 7 11 13 13 15 15 16 19 22 23 26 28 28
11 12 10 5 7 8 7 6 9 12 14 9 11 17 23 22 26 26 24 20 16 11 14 17 23 28 25 13 10 13 9 10 14 17 19 16 14 15 16 16 15 14 14 15 19 21 23 24 26 28 29 30 34 34
10 11 9 10 8 14 10 6 7 6 0 8 7 8 14 17 15 21 29 26 19 19 16 18 20 20 27 24 21 24 19 15 8 15 14 7 10 16 20 24 35 27 24 25 27 28 28 29 30 30 34 33 36 42
13 12 6 4 7 10 15 14 10 9 9 8 10 17 14 14 16 14 21 27 25 20 16 8 11 11 26 36 27 25 28 19 12 11 13 21 18 21 24 26 26 27 26 24 30 30 29 28 25 29 24 20 25 42
13 11 11 10 10 8 6 9 12 14 8 2 2 7 13 11 9 17 24 24 22 15 12 13 12 10 6 7 14 20 24 28 28 23 18 26 27 24 24 24 23 17 19 21 22 21 17 16 18 20 20 17 26 28
12 9 5 7 8 7 7 7 7 8 11 11 10 9 6 5 3 11 17 18 21 16 18 23 20 13 10 14 16 22 21 7 13 14 17 21 22 24 20 21 20 25 19 20 24 22 23 23 22 19 15 15 17 26
9 8 7 10 9 8 12 8 6 8 8 6 9 10 9 7 12 12 9 9 9 11 12 22 15 15 14 15 15 12 13 21 22 17 20 24 24 25 27 30 27 18 20 24 24 21 19 18 18 17 13 16 21 20
9 8 7 6 10 8 6 4 2 5 4 7 6 6 9 8 7 7 12 11 10 11 11 9 14 17 14 18 21 21 17 19 23 21 23 28 30 31 21 17 24 27 22 20 21 19 18 17 16 16 16 23 20 19
10 6 11 10 8 10 7 4 3 5 6 6 5 14 7 3 5 5 4 4 6 6 8 9 12 18 15 26 16 17 15 16 14 14 16 17 19 17 16 17 18 19 19 16 14 14 15 18 13 13 19 17 17 20
9 7 10 13 10 3 2 3 4 6 4 6 7 3 2 2 2 2 3 5 14 10 8 7 5 10 11 7 6 8 10 11 11 11 11 13 14 14 13 13 13 14 15 16 16 17 18 13 15 17 16 18 20 26
13 11 8 6 5 3 3 1 2 5 3 8 8 6 6 6 1 9 11 11 11 9 7 5 3 3 5 5 9 12 13 7 1 2 2 5 9 10 11 11 11 9 9 10 11 13 11 12 15 19 21 24 27 24
12 11 10 8 6 3 4 2 3 1 5 4 4 8 14 4 11 14 8 6 5 3 5 7 5 5 3 6 8 7 9 14 16 17 20 23 24 17 14 11 9 8 8 8 9 11 12 16 20 25 30 32 29 24
11 14 12 10 9 4 2 1 5 2 2 5 7 4 7 6 3 6 5 6 6 4 6 5 4 1 7 10 8 4 5 12 10 12 20 22 17 19 17 13 12 8 6 6 7 9 9 12 15 24 33 30 26 23
15 12 9 7 5 8 3 5 10 7 7 8 7 2 4 7 5 12 11 12 9 8 3 6 2 5 9 8 9 10 12 15 18 22 21 18 15 12 13 13 11 10 4 1 4 7 9 12 13 17 17 15 17 21
19 19 19 18 16 13 12 11 4 8 6 5 7 6 5 3 6 13 8 5 5 7 6 8 11 13 10 13 14 15 15 12 12 12 9 10 11 13 14 15 12 10 9 8 5 5 8 11 14 16 19 18 17 13

GFSWCAN_700_spd_117.txt.gz
Wind_Speed
29 29 29 26 23 23 22 21 20 20 19 18 17 17 17 15 14 16 19 19 21 25 24 11 10 10 6 8 9 11 10 9 9 10 10 8 7 7 4 4 2 2 3 7 8 5 6 7 8 13 13 14 15 11
27 24 25 25 24 23 22 21 23 24 22 19 19 17 17 16 15 16 21 21 21 20 18 23 15 12 10 12 12 11 12 10 9 8 8 9 6 7 9 4 3 5 6 3 4 2 5 8 12 14 10 9 11 9
31 28 28 26 25 25 25 24 23 23 22 20 19 18 17 17 16 15 20 22 20 20 20 21 21 15 14 9 2 7 10 15 16 16 14 14 10 11 12 9 8 9 8 8 6 7 9 12 12 13 11 12 12 11
27 28 28 28 28 26 26 24 23 23 22 20 19 18 18 16 15 15 19 22 20 19 19 17 26 17 16 14 6 6 9 11 13 15 16 16 17 15 12 13 11 10 7 8 9 9 8 6 11 13 10 9 7 6
28 28 27 27 26 26 24 23 21 21 21 20 20 19 19 17 15 15 19 22 22 20 10 15 19 20 20 19 11 8 10 10 10 11 13 14 10 10 11 13 14 17 16 15 11 6 7 5 7 9 7 5 5 6
24 23 22 21 20 21 20 19 19 19 18 17 16 16 15 15 14 14 18 22 22 20 19 13 18 16 20 16 11 9 13 10 8 10 14 15 10 10 11 16 16 16 14 14 11 7 7 8 8 9 6 3 7 7
22 20 18 16 16 16 16 15 15 16 18 17 17 16 16 14 13 14 18 18 19 19 17 12 12 23 21 17 15 13 12 8 5 5 6 14 12 13 17 20 17 16 13 10 16 14 13 12 7 7 7 8 7 7
18 17 16 14 14 15 15 14 15 16 16 14 16 16 14 12 11 13 17 13 13 18 18 10 9 14 17 22 13 9 9 9 6 8 11 11 15 18 22 15 7 10 16 18 19 13 8 7 13 11 11 7 8 9
18 16 15 15 15 16 17 17 16 16 16 15 14 12 10 9 10 15 16 13 13 21 15 17 17 10 16 15 10 10 11 13 14 17 13 16 19 21 13 11 11 11 8 8 13 13 13 12 9 8 9 4 2 10
16 13 14 14 15 18 18 17 17 17 16 14 12 10 9 11 13 15 16 13 14 20 26 23 21 12 15 15 13 15 11 8 10 12 11 17 23 17 14 13 12 11 8 15 14 14 14 14 12 8 5 8 8 4
15 12 13 14 16 17 17 17 17 15 14 11 11 12 11 13 13 15 12 14 12 12 18 24 23 23 19 18 11 10 7 5 7 10 14 11 18 5 13 12 10 6 10 12 11 8 11 16 15 13 13 11 9 8
14 12 13 15 15 14 14 13 13 9 10 12 14 12 14 15 8 9 10 10 9 15 13 13 21 28 25 19 14 11 11 6 5 6 5 6 2 5 12 13 11 7 7 11 13 12 13 14 14 15 16 16 14 13
13 12 13 12 14 12 10 10 7 8 13 17 16 14 10 10 10 9 13 12 12 7 5 10 13 22 28 19 17 12 7 9 12 8 9 16 5 5 5 7 8 9 9 11 12 12 13 15 15 16 16 18 20 20
13 15 14 13 13 13 9 8 6 9 20 20 13 13 11 8 10 15 13 11 12 13 3 3 12 13 23 24 13 9 14 9 7 11 19 20 5 2 0 2 3 4 7 11 13 14 16 17 16 16 17 16 16 17
20 16 14 13 11 12 10 8 10 13 25 20 12 9 14 8 7 5 7 14 17 20 15 4 10 13 23 17 14 10 8 8 8 10 6 3 9 8 8 2 2 3 4 6 8 9 11 13 14 13 12 11 12 13
16 14 14 13 14 12 10 10 12 17 22 19 15 10 8 15 13 10 10 7 6 13 16 11 14 14 15 13 14 19 16 12 16 3 3 4 7 9 11 6 7 6 4 4 5 5 6 6 6 6 9 9 8 9
13 14 12 11 9 9 9 10 16 16 20 17 24 18 12 14 14 10 9 10 9 9 14 12 10 12 9 21 25 24 27 26 17 7 9 3 8 7 9 8 6 1 3 5 5 5 6 7 9 12 10 7 10 7
16 13 12 11 10 14 12 10 17 13 18 25 25 24 19 16 12 12 5 13 6 8 8 16 16 17 15 8 11 22 33 31 21 14 11 11 12 13 12 9 8 5 4 3 5 8 8 8 7 8 9 10 13 13
14 12 11 11 10 12 12 11 14 14 20 20 26 21 21 25 23 18 15 10 5 5 9 5 8 14 16 20 26 19 16 17 13 18 13 15 18 16 14 14 15 11 9 9 10 12 13 14 14 13 15 16 20 20
12 9 7 9 13 12 9 7 9 11 12 13 14 16 23 26 27 27 23 24 19 12 14 17 17 11 14 9 10 16 15 13 11 12 13 18 20 19 17 18 18 14 15 15 16 20 21 22 22 22 23 24 25 26
10 11 11 11 12 12 13 8 8 6 5 3 5 8 8 13 22 23 25 26 28 28 26 23 18 14 8 9 14 23 18 16 16 15 19 22 18 18 20 23 23 24 25 29 27 26 27 28 26 28 28 27 28 24
8 11 8 10 10 8 14 15 11 11 10 7 7 11 11 9 13 16 20 27 32 33 31 22 15 12 11 12 14 19 27 14 18 17 19 21 19 15 15 18 21 24 24 23 23 26 24 22 23 24 26 28 25 28
12 10 11 7 8 6 7 9 12 14 13 5 3 4 6 9 10 13 19 23 21 21 23 20 17 18 13 13 17 17 24 19 21 26 21 28 29 25 16 22 22 24 22 21 20 21 23 27 23 19 18 20 21 22
11 13 8 6 10 7 8 7 6 6 8 11 12 10 7 5 5 8 12 9 15 17 19 16 16 17 15 14 14 7 8 11 16 21 21 18 11 14 19 17 19 20 18 20 24 24 23 23 23 23 23 22 19 21
10 10 7 9 8 9 11 9 6 7 6 5 7 7 6 6 9 8 8 6 6 12 12 14 11 10 13 15 14 15 14 12 11 11 11 12 15 18 17 19 21 24 25 23 23 25 28 27 20 19 18 17 16 17
9 9 7 7 9 9 5 4 4 4 7 6 7 7 8 10 9 5 8 10 8 6 8 8 7 7 13 14 11 9 10 14 16 17 17 15 14 17 21 23 22 19 19 22 26 31 31 23 17 17 16 15 16 12
12 8 11 11 6 6 5 2 4 7 4 5 7 9 12 5 4 5 5 10 6 7 8 9 10 7 8 10 12 17 16 16 18 19 17 15 14 14 16 17 17 18 20 21 22 22 20 18 15 16 15 17 17 19
11 11 8 6 11 11 4 5 2 2 7 8 2 4 3 2 2 2 5 6 7 6 5 10 13 13 12 10 5 4 7 9 7 4 2 6 6 6 8 9 10 11 12 14 15 16 17 17 17 18 11 12 16 15
10 11 9 13 8 5 4 4 1 4 10 2 8 11 6 4 4 9 13 12 9 9 10 10 9 10 9 5 1 5 9 8 7 4 6 7 9 11 11 12 12 12 12 12 13 13 14 15 14 12 15 16 16 18
11 13 11 9 6 5 4 3 3 7 11 11 9 11 13 10 15 13 10 8 6 4 2 4 6 5 5 4 5 3 3 9 10 13 14 14 16 16 14 12 12 11 11 11 11 12 13 12 11 14 18 18 21 23
13 11 10 9 8 6 3 0 5 4 2 5 9 7 6 4 6 5 3 4 3 4 6 5 5 3 2 3 6 7 10 12 14 16 19 18 18 17 14 11 12 12 11 11 10 11 11 8 10 14 15 19 19 21
15 14 14 11 8 7 7 4 6 5 4 3 4 5 4 1 3 6 4 6 6 7 5 3 3 5 7 9 11 13 15 16 19 17 15 15 14 12 10 10 12 12 12 10 8 7 7 9 9 10 12 16 21 24
19 20 17 15 10 8 7 4 1 3 5 4 2 3 2 3 10 10 6 2 2 2 3 4 8 12 12 10 11 11 13 15 15 13 11 11 15 16 18 18 18 18 15 11 7 6 5 5 9 14 16 19 22 20

GFSWCAN_700_spd_120.txt.gz
Wind_Speed
33 31 29 28 27 24 23 22 22 21 21 20 19 19 17 16 14 15 15 17 18 19 21 21 17 15 15 13 11 10 10 13 14 15 15 14 11 10 10 8 5 5 4 5 7 6 8 11 13 18 10 9 13 13
30 28 27 26 24 23 23 25 23 21 20 21 21 20 19 17 15 15 16 17 19 19 16 26 20 19 16 15 12 11 12 11 11 12 14 14 12 12 11 10 10 9 8 5 4 5 9 9 16 13 13 12 16 17
28 27 28 27 26 27 26 25 24 23 22 21 20 20 18 17 16 15 17 18 19 18 16 23 28 21 19 13 10 6 8 9 14 16 16 17 17 16 15 15 16 12 11 11 11 10 12 13 11 12 14 15 17 16
28 26 26 26 24 25 25 25 24 22 21 20 19 18 18 16 16 15 17 18 18 16 16 12 26 29 22 17 11 5 5 11 12 13 14 15 15 13 16 17 16 16 12 12 14 12 11 10 10 10 15 14 13 11
27 25 24 25 25 25 24 24 22 21 20 19 18 17 17 18 17 17 17 18 19 17 6 12 18 29 23 21 17 13 9 10 11 13 15 16 17 17 17 15 16 16 15 15 18 11 10 9 8 12 14 13 10 6
24 23 22 22 19 18 19 18 17 16 17 17 17 16 14 15 14 14 16 17 17 16 18 16 8 23 27 24 20 16 12 13 14 13 13 15 14 13 10 15 16 17 14 14 14 13 10 9 7 8 8 6 4 3
22 21 20 18 16 15 14 13 14 14 14 14 15 16 15 14 13 13 13 12 13 17 16 12 12 21 19 22 22 17 14 13 12 9 9 9 15 18 20 22 17 15 13 15 14 16 15 11 8 8 8 8 6 3
18 18 17 15 14 13 14 14 13 14 14 14 14 13 14 13 12 12 13 10 10 15 15 8 8 15 25 23 22 16 13 13 11 9 11 12 15 17 21 24 19 13 14 15 14 12 14 8 12 12 9 7 5 3
16 16 15 15 14 14 14 15 15 16 15 14 13 12 11 11 11 14 13 11 13 20 12 15 15 11 20 27 24 19 12 12 14 17 13 16 19 17 16 12 8 10 9 10 15 17 15 14 12 9 7 5 2 5
18 18 16 14 13 13 15 16 17 16 14 13 11 11 9 10 12 12 13 12 13 21 25 21 21 9 15 19 19 16 13 11 10 11 10 16 23 20 18 15 11 13 12 13 16 16 16 16 13 9 7 6 2 4
17 16 15 13 13 13 15 15 16 15 11 10 10 11 10 13 14 15 10 10 10 11 18 22 21 22 14 19 18 14 11 6 6 6 8 7 16 4 10 11 11 13 8 10 13 9 8 8 10 11 8 8 3 1
17 15 14 13 12 13 12 12 12 10 7 9 11 11 14 16 8 10 9 9 9 12 10 11 19 25 19 16 18 14 11 6 5 5 5 6 8 11 8 6 6 7 7 9 12 14 10 10 13 10 11 12 6 5
17 17 15 13 12 11 10 9 10 5 8 14 16 16 11 10 11 9 14 12 11 6 6 11 10 22 28 20 15 9 7 8 7 7 8 16 8 6 5 4 7 9 9 11 13 13 11 10 12 16 14 11 11 10
16 16 15 13 12 13 9 7 6 4 14 18 12 14 10 8 9 15 14 13 12 10 8 7 10 9 23 25 13 9 10 7 7 9 18 17 10 4 1 1 4 6 6 7 7 8 7 9 10 10 9 10 12 13
15 16 15 15 14 12 8 8 9 9 19 19 10 9 12 10 8 9 14 16 16 19 12 6 14 11 20 14 17 11 8 8 9 16 6 3 8 11 6 3 4 6 7 7 8 8 7 8 9 9 11 12 14 14
17 12 16 16 13 13 13 11 13 13 22 23 15 9 9 15 13 12 9 12 15 22 24 16 10 14 14 11 13 18 13 9 14 4 4 1 3 7 9 7 6 7 7 8 9 10 11 11 11 10 13 14 14 13
19 15 15 13 12 8 8 9 9 16 14 20 27 19 12 12 19 15 18 11 11 15 20 22 13 12 9 20 21 23 18 18 22 18 12 10 8 7 9 12 10 4 3 6 9 10 11 13 13 12 11 10 9 10
16 13 12 12 11 10 13 12 13 13 14 15 19 19 25 20 19 22 18 19 14 19 20 20 18 18 19 9 14 28 24 23 24 23 16 12 11 12 13 12 10 8 6 5 7 10 12 10 8 6 8 10 12 12
15 12 12 13 12 11 11 14 14 14 19 21 18 18 21 25 22 15 17 15 17 19 11 13 11 18 23 17 14 16 16 18 18 17 20 18 17 13 17 16 15 13 13 10 8 5 7 11 12 12 11 13 16 15
11 13 13 11 9 11 9 7 10 9 7 9 10 12 14 23 24 27 25 20 13 13 16 21 21 12 9 8 10 12 11 17 23 17 14 21 20 19 23 24 22 18 17 13 11 13 13 16 18 20 22 23 25 24
14 11 9 10 14 15 15 8 8 7 7 6 5 8 9 14 22 27 28 28 29 29 27 24 18 12 12 10 13 12 10 13 11 15 12 17 21 26 28 27 24 24 23 20 19 19 22 23 22 24 27 30 32 34
10 10 9 11 12 10 13 15 13 11 8 8 7 10 11 11 11 13 18 29 33 30 26 24 22 17 14 14 16 16 17 21 17 20 20 22 21 26 27 28 28 27 26 24 25 25 26 26 28 30 31 24 25 27
9 9 11 6 8 7 7 8 12 14 15 9 5 5 5 5 10 11 16 22 26 24 20 21 20 19 17 14 15 17 19 25 27 24 18 21 21 21 25 27 30 31 29 26 28 27 25 25 23 23 27 31 26 23
14 11 9 4 7 6 8 7 7 6 6 10 12 10 7 6 5 10 15 11 8 8 7 7 8 14 14 16 18 7 10 9 14 13 12 13 12 16 21 25 32 28 27 24 23 21 22 25 25 24 21 24 26 26
11 9 6 9 7 7 12 10 8 7 6 4 7 6 5 6 10 11 8 4 3 4 10 12 10 11 12 12 15 11 9 9 9 9 7 7 8 11 15 19 23 24 23 24 25 26 27 25 25 25 25 25 23 23
10 8 6 6 9 9 7 5 3 6 8 9 7 6 6 9 10 6 6 4 6 5 8 11 11 12 11 11 7 7 8 9 9 11 11 14 16 16 16 19 21 23 25 24 23 20 20 23 24 25 27 21 18 19
9 7 11 10 7 6 6 8 9 6 6 8 12 10 8 4 4 5 6 9 4 4 4 6 7 7 7 10 10 9 8 11 13 15 18 18 16 14 14 15 15 16 17 18 20 21 23 24 24 21 17 16 17 18
9 8 8 5 8 9 11 5 2 4 5 7 3 7 6 3 2 3 3 1 3 3 4 7 8 6 4 5 7 8 9 10 11 8 5 4 3 4 5 7 8 9 9 10 11 13 15 16 17 16 16 17 19 18
11 8 7 9 6 6 4 4 5 4 11 6 11 9 2 4 3 6 13 12 10 9 7 5 7 7 7 5 4 8 9 7 5 2 3 3 2 5 6 8 9 10 10 11 11 11 11 12 13 13 15 14 14 17
7 10 11 7 7 6 5 3 9 7 13 12 11 12 9 10 14 11 9 9 8 5 4 3 5 7 5 1 2 1 2 3 5 8 11 11 11 10 9 10 10 11 12 12 13 13 12 12 12 13 11 14 14 17
13 11 9 7 6 5 4 2 1 5 10 10 9 9 7 8 8 4 1 3 3 1 1 2 2 2 2 1 3 4 6 8 9 10 10 12 14 12 9 10 11 12 12 13 13 12 11 10 8 7 9 10 12 15
11 8 8 7 8 4 4 6 4 3 3 1 2 3 3 3 5 2 2 3 3 2 0 3 4 1 4 7 5 4 5 7 9 11 11 11 10 10 11 13 12 13 14 15 14 12 11 11 7 6 11 11 13 16
13 12 10 9 8 8 7 5 1 3 3 3 1 2 1 2 7 7 4 5 5 3 4 6 5 6 6 9 9 9 11 13 14 14 11 10 11 14 16 18 16 16 16 15 13 11 10 9 8 6 7 14 14 13

GFSWCAN_700_spd_123.txt.gz
Wind_Speed
28 28 28 28 27 24 23 22 21 21 19 20 18 19 19 17 15 15 14 13 15 16 15 22 22 21 22 25 21 17 15 17 19 17 17 15 12 13 12 13 11 8 5 5 6 6 8 11 13 15 14 16 15 20
28 26 26 26 26 24 25 25 25 21 19 20 19 18 17 17 16 15 15 14 15 16 13 22 26 21 21 23 22 19 17 14 13 14 15 14 15 14 14 13 13 13 13 8 8 5 9 12 9 12 15 9 20 23
25 24 24 24 23 21 22 22 23 22 21 20 20 19 19 17 16 15 15 15 16 16 14 21 26 26 24 21 21 17 16 13 10 14 17 17 16 15 16 17 18 17 14 13 12 9 10 12 11 11 15 13 20 24
24 23 23 23 23 23 23 23 22 21 20 20 19 19 18 16 17 15 16 14 14 17 16 13 22 32 28 25 19 16 13 9 9 12 14 19 18 16 16 15 16 16 16 16 15 12 12 11 9 9 11 11 14 13
23 22 22 22 22 21 20 19 19 19 20 19 19 18 17 16 16 16 17 17 16 16 8 9 19 30 30 26 19 17 11 9 11 14 15 16 17 19 21 22 23 17 16 18 16 12 12 11 9 8 8 11 11 10
21 22 21 20 19 19 17 16 16 16 15 15 15 15 15 13 14 14 15 17 15 14 15 14 11 18 31 28 22 19 17 13 13 15 17 17 17 15 10 15 13 11 12 12 17 18 13 10 8 7 8 9 10 11
21 21 19 17 17 16 14 13 13 12 12 12 12 12 13 13 12 13 14 12 11 14 15 10 13 12 23 30 25 22 20 16 15 17 15 11 10 12 21 27 19 15 16 15 15 12 13 12 7 6 8 9 8 7
16 15 15 15 14 13 13 13 13 13 14 13 13 13 12 12 13 14 14 13 10 14 14 7 7 13 23 27 27 25 21 15 17 16 14 12 15 17 20 14 10 16 17 16 17 17 14 14 14 11 10 10 9 9
15 14 14 13 13 13 14 14 14 14 15 15 14 12 12 11 12 12 13 13 14 18 11 12 14 11 20 24 23 22 19 16 16 18 18 19 20 20 20 5 5 6 10 5 13 15 11 16 13 12 12 12 9 10
16 16 15 15 14 13 13 13 14 16 15 14 12 11 11 11 9 11 13 11 13 20 24 19 19 9 15 25 26 22 18 15 11 15 13 17 22 14 15 16 13 12 12 11 13 19 21 20 17 14 10 10 6 9
18 17 15 15 13 13 12 13 14 14 13 10 10 12 9 11 11 13 8 10 9 10 16 21 20 19 10 19 23 22 15 13 8 10 9 7 11 7 7 6 8 15 16 9 11 12 10 9 15 16 14 14 9 8
17 16 15 15 13 13 13 12 11 11 8 7 11 10 12 14 8 9 8 8 9 10 10 6 18 25 15 12 16 17 11 8 6 8 5 6 3 10 10 5 3 5 10 10 14 17 16 16 16 17 14 14 10 6
16 16 15 14 14 13 11 9 8 9 5 10 13 13 11 10 10 9 13 11 10 7 6 10 7 24 26 15 12 12 9 10 7 6 7 10 6 7 6 5 6 7 7 9 12 17 16 15 18 17 14 15 11 7
15 16 15 17 15 13 11 9 8 6 7 14 13 14 11 8 9 17 14 12 10 7 5 8 11 15 24 22 9 9 9 8 8 9 16 14 10 9 3 1 3 6 8 8 9 12 13 12 13 17 19 18 14 11
16 16 15 16 14 12 11 8 8 12 12 16 11 8 14 12 10 9 14 15 17 18 9 6 14 11 19 17 15 10 9 8 10 15 13 4 8 6 7 3 1 3 6 7 11 12 13 12 13 13 14 13 12 13
16 15 16 19 15 11 12 13 12 16 15 21 16 8 8 13 13 13 15 17 19 22 18 11 8 10 12 10 10 18 15 10 13 10 9 5 4 1 5 7 6 7 9 10 11 12 13 12 11 12 14 14 13 13
15 17 15 14 14 13 11 9 9 13 14 11 19 24 13 9 16 18 17 17 21 21 22 17 11 10 9 14 14 17 22 20 13 11 14 10 9 6 8 10 10 8 6 7 10 11 12 13 13 15 13 11 11 11
17 14 15 12 12 12 11 13 12 11 16 20 19 18 26 20 16 18 22 20 17 15 21 23 24 20 13 10 12 21 15 17 20 24 24 21 16 13 10 10 10 11 7 3 5 7 10 11 12 11 11 13 14 16
14 11 12 11 9 10 10 11 14 16 16 18 17 15 16 18 21 27 24 21 23 15 20 24 16 24 22 16 12 14 10 12 17 19 19 18 23 21 16 17 17 14 12 9 6 7 9 9 10 10 11 11 11 12
14 14 8 8 10 10 7 9 11 11 8 8 7 11 18 19 19 24 26 16 14 20 24 26 31 14 14 15 21 21 17 12 13 12 16 14 20 25 24 20 20 20 18 14 13 11 13 13 9 9 13 17 20 20
11 9 11 11 10 13 13 7 8 8 7 8 8 9 10 10 11 17 24 26 26 28 23 35 29 20 21 14 12 14 15 16 13 9 9 16 15 22 24 21 24 26 25 22 19 18 18 17 19 21 22 22 23 25
12 11 12 11 12 14 16 14 12 15 15 10 9 10 11 10 10 11 15 22 30 29 27 21 17 19 19 18 15 16 18 20 19 15 15 13 12 14 19 26 30 29 27 25 25 26 27 26 27 27 28 28 28 28
9 8 12 7 8 8 8 9 9 9 10 10 9 7 6 2 6 9 14 15 15 14 15 18 19 20 23 24 24 20 14 12 14 16 21 21 23 24 23 23 24 24 32 28 29 27 28 26 28 30 29 29 26 24
10 9 7 4 6 6 8 7 7 6 6 7 9 9 4 5 5 8 13 11 8 11 16 17 17 19 21 23 22 15 14 14 15 15 20 24 27 24 18 18 23 26 30 33 34 34 33 30 31 32 30 27 26 25
11 10 6 7 6 5 7 8 7 7 5 3 4 3 4 5 8 10 8 2 3 4 8 12 11 9 12 16 15 14 19 15 10 9 8 9 10 9 13 18 20 21 22 21 23 25 28 29 27 28 30 29 25 25
9 7 5 4 7 6 5 4 3 4 6 9 6 5 3 5 7 4 4 4 4 4 5 12 12 12 11 10 10 9 11 13 12 11 11 10 11 13 15 18 20 21 24 26 29 30 30 30 29 25 22 20 24 23
8 5 8 10 5 5 5 7 7 15 12 8 9 8 5 3 3 3 5 7 8 3 4 5 10 11 9 10 9 8 8 9 9 11 12 14 16 18 18 17 17 18 19 21 22 22 22 23 23 22 23 24 22 19
8 4 3 4 6 8 9 9 9 5 2 3 6 8 5 4 3 3 1 3 7 5 3 5 11 10 5 4 5 8 9 10 10 8 6 4 5 7 8 8 8 8 9 10 11 12 14 15 16 17 17 17 17 17
6 7 6 7 6 3 2 4 8 3 7 14 10 5 4 5 6 8 11 11 10 9 3 1 1 4 9 8 7 6 4 4 3 1 1 2 5 6 7 8 7 7 7 8 9 10 11 11 12 13 15 16 17 18
6 6 6 8 9 9 6 5 8 17 16 16 13 11 11 12 14 13 12 10 8 8 7 9 10 7 5 4 4 3 3 2 2 3 6 7 7 7 6 6 7 8 8 9 10 11 11 11 11 12 12 14 15 16
10 12 14 11 9 6 4 4 19 14 14 13 13 11 11 10 8 5 7 7 5 6 8 7 6 5 4 2 1 1 2 5 5 7 9 11 12 11 8 6 7 11 13 13 13 13 12 11 10 10 8 8 12 13
20 16 14 11 7 5 7 6 6 7 6 5 6 4 4 3 3 7 11 9 9 7 6 6 5 2 1 2 1 1 2 5 7 8 9 10 11 11 12 13 14 16 15 16 15 13 12 10 9 8 7 9 10 12
12 13 12 9 7 4 7 5 4 2 2 1 2 1 2 4 5 10 8 8 8 5 4 4 5 6 3 5 5 8 11 13 14 16 18 17 15 16 18 19 19 19 19 16 15 14 12 10 8 7 7 9 13 12